[[[{"header":{"parameterUnit":"kt","parameterCategory":2,"dx":1,"dy":1,"la1":29.285339999999998,"la2":30.599998999999997,"lo1":-89.70041500000002,"lo2":-87.6738589999976,"nx":112,"ny":82,"refTime":"2022-10-16T12:00:00:Z","depth":0,"parameterNumber":1,"parameterNumberName":"U-component_of_WINDS"},"data":[4.8564,4.8151,4.7948,4.7465,4.6727,4.6199,4.6641,4.5107,4.3703,4.4091,4.2183,4.0502,4.0725,4.008,0.0,0.0,0.0,0.0,0.0,3.9101,0.0,0.0,0.0,0.0,0.0,0.0,0.0,0.0,0.0,0.0,0.0,5.8177,5.9126,5.9224,5.9126,6.0696,6.4035,6.3985,6.5692,6.9132,6.9248,6.9395,6.9592,6.9697,6.9714,6.966,6.9573,6.9431,6.9207,6.9169,6.9095,6.8993,6.8993,6.8993,6.8993,6.8993,6.8993,6.8993,6.8993,6.8993,6.8993,6.8993,6.8993,6.8993,6.8993,6.8993,6.8993,6.8993,6.8993,6.8993,6.8993,6.8993,6.8966,6.878,6.8626,6.8498,6.8467,6.8205,6.8171,6.8626,6.8205,6.7782,6.7927,6.7671,6.744,6.744,6.7745,6.7596,6.6614,6.6479,6.6318,6.5732,6.5715,6.5715,6.5715,6.5715,6.5715,6.5715,6.6786,6.7891,6.8926,7.0531,7.0853,6.9782,6.9711,6.8641,6.6536,6.5965,6.5715,6.5715,6.5715,6.5715,4.6138,4.5637,4.5501,4.5588,4.5254,4.499,4.5176,4.3681,4.2261,4.2429,4.0768,3.926,3.926,3.926,0.0,0.0,0.0,0.0,0.0,0.0,0.0,0.0,0.0,0.0,0.0,0.0,0.0,0.0,5.8297,0.0,5.7623,5.8588,5.9224,5.9336,5.9247,6.0822,6.4247,6.4184,6.5891,6.9282,6.9431,6.9583,6.9785,6.9928,6.9948,6.9825,6.9784,6.9618,6.9394,6.9319,6.9207,6.9095,6.9095,6.9057,6.8993,6.9095,6.9057,6.8993,6.8993,6.8993,6.8993,6.8993,6.8993,6.8993,6.8993,6.8993,6.8993,6.8993,6.8993,6.8993,6.8993,6.8993,6.8993,6.8993,6.8751,6.8566,6.8722,6.8373,6.8137,6.8626,6.8303,6.8032,6.8205,6.8103,6.7962,6.7962,6.8271,6.81,6.6957,6.6827,6.6515,6.5783,6.5715,6.5715,6.5715,6.5715,6.5465,6.4966,6.5394,6.5929,6.6411,6.8569,6.8926,6.7267,6.889,6.8391,6.5715,6.5715,6.5715,6.5715,6.5715,6.5715,4.3663,4.2598,4.202,4.4014,4.2457,4.0743,4.2246,4.0634,3.8826,3.8845,3.8826,3.8826,3.8826,3.8826,0.0,0.0,0.0,0.0,0.0,0.0,0.0,0.0,0.0,0.0,0.0,5.5119,5.7068,0.0,6.0037,6.1131,5.9568,5.9359,5.9321,5.9456,5.9472,6.1116,6.452,6.4532,6.6138,6.9383,6.9671,6.9781,6.9781,6.9933,6.9971,6.9969,6.9844,6.9783,6.9768,6.9506,6.9319,6.9196,6.9207,6.9132,6.9046,6.9169,6.9132,6.9057,6.9057,6.9057,6.8993,6.8993,6.8993,6.8993,6.8993,6.8993,6.8993,6.8993,6.8993,6.8993,6.8993,6.8993,6.8993,6.8993,6.8993,6.8874,6.8373,6.8626,6.8808,6.8335,6.8626,6.8846,6.8373,6.8693,6.8993,6.8993,6.8993,6.8626,6.7595,6.7479,6.6993,6.5835,6.5732,6.5732,6.5715,6.5715,6.5073,6.3575,6.4823,6.4966,6.3539,6.6269,6.7214,6.5715,6.7214,6.7249,6.5715,6.5715,6.5715,6.5715,6.5715,6.5715,4.1484,4.0498,4.0291,4.0657,3.9817,3.8862,3.8796,3.8244,3.789,3.8477,3.8004,0.0,0.0,0.0,3.85,0.0,0.0,4.1463,4.2794,4.3511,4.457,0.0,0.0,0.0,0.0,5.7047,5.8459,5.7389,6.0176,6.1219,5.9568,5.9438,5.9469,5.9607,5.9556,6.1175,6.4655,6.457,6.6185,6.9387,6.9659,6.9786,6.9781,6.9933,6.9971,6.997,6.9928,6.9875,6.9768,6.9693,6.9578,6.9353,6.931,6.9315,6.9315,6.9348,6.9319,6.9319,6.9319,6.9244,6.9132,6.9057,6.8993,6.8993,6.8993,6.8993,6.8993,6.8993,6.8993,6.8993,6.8993,6.8993,6.8993,6.8993,6.8993,6.8966,6.8846,6.8596,6.8535,6.8751,6.8596,6.8535,6.8751,6.8901,6.8993,6.8993,6.8993,6.8751,6.81,6.7997,6.7558,6.6376,6.6235,6.6078,6.5732,6.5715,6.5537,6.5109,6.4395,6.4324,6.5037,6.4823,6.5002,6.568,6.6143,6.6143,6.5715,6.5715,6.5715,6.5715,6.5715,6.5715,3.8696,3.7387,3.7126,3.7214,3.7167,3.7103,3.7156,3.7268,3.7528,3.8161,0.0,0.0,0.0,0.0,0.0,0.0,4.2196,4.3175,4.4263,4.5207,4.6633,4.908,0.0,0.0,5.4898,5.7833,5.9328,5.8547,6.0679,6.1334,5.9797,5.9612,5.9608,5.9682,5.9726,6.1016,6.3652,6.4347,6.6008,6.8593,6.9469,6.9857,6.9857,6.9933,6.9971,6.9971,6.9971,6.9955,6.9883,6.9883,6.9743,6.9562,6.9609,6.9613,6.9542,6.9548,6.9497,6.9386,6.9386,6.9348,6.9268,6.9173,6.9132,6.9095,6.9057,6.8993,6.8993,6.8993,6.8993,6.8993,6.8993,6.8993,6.8993,6.8993,6.8993,6.8993,6.8993,6.8751,6.8626,6.8966,6.8751,6.8656,6.8929,6.8993,6.8993,6.8993,6.8993,6.8808,6.8271,6.8238,6.7781,6.6614,6.6479,6.6235,6.5732,6.5715,6.5715,6.5715,6.4859,6.4467,6.4716,6.386,6.3824,6.4716,6.5358,6.5715,6.5715,6.5715,6.5715,6.5715,6.5715,6.5715,3.5628,3.3955,3.3542,3.404,3.4757,3.5587,3.6659,0.0,3.7517,3.8223,0.0,4.0636,3.9722,0.0,0.0,4.2784,4.3824,4.4792,4.5056,4.6772,4.9156,5.2235,5.4177,5.5277,5.5305,5.795,5.9778,6.002,6.1087,6.1234,6.006,5.9795,5.9682,5.9642,5.9863,6.0691,6.2172,6.3806,6.5557,6.7455,6.8982,6.9781,6.9971,6.9971,6.9971,6.9971,6.9971,6.9971,6.9971,6.9971,6.9916,6.981,6.9948,6.9906,6.9808,6.9808,6.9675,6.9464,6.9464,6.9453,6.9436,6.9447,6.9334,6.9198,6.9057,6.9057,6.8993,6.8993,6.8993,6.8993,6.8993,6.8993,6.8993,6.8993,6.8993,6.8993,6.8993,6.8993,6.8993,6.8993,6.8993,6.8993,6.8993,6.8993,6.8993,6.8993,6.8993,6.8808,6.8404,6.834,6.789,6.6791,6.6614,6.6412,6.5799,6.5732,6.5715,6.5715,6.5715,6.5073,6.3717,6.3503,6.3325,6.3147,6.4467,6.5251,6.543,6.5608,6.5715,6.5715,6.5715,6.5715,3.3457,3.226,3.223,3.2822,3.3802,3.4937,0.0,0.0,0.0,3.963,4.0,4.0127,4.0327,4.1291,4.2588,4.4277,4.5265,4.6398,4.818,5.0899,5.315,5.4348,5.5923,5.6942,5.7051,5.8655,5.9698,5.9756,6.0,5.9969,5.9603,5.9624,5.963,5.9537,5.957,6.0355,6.2026,6.2515,6.4253,6.7283,6.7716,6.8642,6.9971,6.9971,6.9971,6.9971,6.9971,6.9971,6.9971,6.9971,6.9965,6.9938,6.9968,6.9965,6.9933,6.9933,6.9909,6.9846,6.9846,6.9793,6.9722,6.9708,6.9569,6.9332,6.9211,6.9095,6.8993,6.8993,6.8993,6.8993,6.8993,6.8993,6.8993,6.8993,6.8993,6.8993,6.8993,6.8993,6.8993,6.8993,6.8993,6.8993,6.8993,6.8993,6.8993,6.8993,6.8993,6.8993,6.8874,6.8874,6.8626,6.796,6.7481,6.7036,6.6376,6.5915,6.5715,6.5715,6.5715,6.5573,6.5287,6.4074,6.279,6.1505,6.1755,6.254,6.3824,6.5073,6.5715,6.5715,6.5715,6.5715,2.9101,3.149,3.1833,3.2124,3.3322,0.0,0.0,3.7293,3.8482,4.0095,4.1076,4.16,4.1695,4.3189,4.4984,4.6771,4.7824,4.9083,5.0978,5.3363,5.5128,5.5642,5.7137,5.8219,5.8499,5.9177,5.9568,5.9575,5.9581,5.9552,5.9469,5.9531,5.952,5.9397,5.9451,5.9864,6.0619,6.1631,6.2986,6.4643,6.5632,6.6954,6.8605,6.866,6.9173,6.9971,6.9971,6.9971,6.9971,6.9971,6.9971,6.9971,6.9971,6.9971,6.9971,6.9971,6.9971,6.9971,6.9971,6.9955,6.9875,6.9883,6.9733,6.9595,6.9498,6.9319,6.9095,6.9057,6.8993,6.8993,6.8993,6.8993,6.8993,6.8993,6.8993,6.8993,6.8993,6.8993,6.8993,6.8993,6.8993,6.8993,6.8993,6.8993,6.8993,6.8993,6.8993,6.8993,6.8993,6.8993,6.8817,6.8271,6.7997,6.7481,6.657,6.6271,6.5965,6.5715,6.5715,6.5358,6.4574,6.3789,6.229,5.99,6.0614,6.1791,6.3396,6.4145,6.4966,6.5715,6.5715,6.5715,2.5458,3.122,3.1752,3.2311,3.358,0.0,3.6778,3.7856,3.8976,4.0432,4.208,4.3322,4.344,4.555,4.7707,4.9162,5.0182,5.1561,5.3621,5.5177,5.6256,5.6654,5.7977,5.8995,5.9319,5.9402,5.9431,5.9431,5.9439,5.9418,5.9417,5.942,5.9373,5.9261,5.9336,5.9373,5.9261,6.0728,6.1637,6.1988,6.346,6.5112,6.6792,6.6846,6.7869,6.9477,6.9499,6.9656,6.9971,6.9971,6.9971,6.9971,6.9971,6.9971,6.9971,6.9971,6.9971,6.9971,6.9971,6.9971,6.9962,6.997,6.9921,6.9805,6.9768,6.9581,6.9282,6.9132,6.9095,6.9057,6.8993,6.8993,6.8993,6.8993,6.8993,6.8993,6.8993,6.8993,6.8993,6.8993,6.8993,6.8993,6.8993,6.8993,6.8993,6.8993,6.8993,6.8993,6.8993,6.8993,6.8846,6.8436,6.8271,6.7818,6.6747,6.6561,6.6271,6.5732,6.5715,6.5144,6.3896,6.3539,6.2076,5.9222,6.0078,6.1327,6.2932,6.2932,6.3896,6.5715,6.5715,6.5715,2.5596,3.0737,3.1587,3.4569,3.4965,0.0,3.8471,3.8915,3.9259,4.1388,4.2461,4.3618,4.568,4.6711,4.8047,5.0479,5.1086,5.2579,5.635,5.7034,5.7342,5.7852,5.8386,5.8795,5.8982,5.918,5.9313,5.9313,5.9284,5.9284,5.9163,5.9247,5.9261,5.9089,5.9126,5.9126,5.9089,5.9411,6.0317,6.1813,6.2181,6.3267,6.4999,6.5034,6.6023,6.773,6.7707,6.8583,6.9971,6.9971,6.9971,6.9971,6.9971,6.9971,6.9971,6.9971,6.9971,6.9971,6.9971,6.9971,6.997,6.9962,6.9956,6.9944,6.9805,6.973,6.9655,6.9431,6.9282,6.9169,6.9057,6.8993,6.8993,6.8993,6.8993,6.8993,6.8993,6.8993,6.8993,6.8993,6.8993,6.8993,6.8993,6.8993,6.8993,6.8993,6.8993,6.8993,6.8993,6.8993,6.8993,6.8901,6.8498,6.7997,6.74,6.6827,6.6271,6.5732,6.5715,6.5608,6.5465,6.411,6.2576,6.0792,5.9579,5.9722,6.1291,6.1291,6.279,6.5715,6.5715,6.5715,1.0646,1.5089,1.581,2.227,0.0,0.0,3.7773,3.87,3.9774,4.1958,4.3042,4.4258,4.6426,4.7454,4.8917,5.1689,5.2252,5.3215,5.5751,5.578,5.6046,5.7377,5.6886,5.6997,5.842,5.8308,5.8425,5.914,5.8884,5.8707,5.867,5.8453,5.8337,5.83,5.8526,5.867,5.867,5.9019,5.9523,6.0219,6.0369,6.1327,6.3043,6.3124,6.4158,6.5907,6.6904,6.7773,6.8481,6.8405,6.8426,6.8604,6.9591,6.9971,6.9971,6.9971,6.9971,6.9971,6.9971,6.9971,6.9971,6.9971,6.9971,6.9979,6.9941,6.9844,6.9768,6.9655,6.9431,6.9169,6.9057,6.9095,6.9132,6.9057,6.8993,6.8993,6.8993,6.8993,6.8993,6.8993,6.8993,6.8993,6.8993,6.8993,6.8993,6.8993,6.8993,6.8993,6.8993,6.8993,6.8993,6.8993,6.8808,6.8467,6.7962,6.7364,6.6784,6.6175,6.585,6.5287,6.4395,6.2861,6.1256,5.9722,5.8152,5.8116,5.9686,6.0578,6.1684,6.3004,6.4859,6.5715,-0.8112,0.0,0.0,0.0,0.0,0.0,3.8628,3.9391,4.0398,4.249,4.345,4.4577,4.6968,4.7971,4.9262,5.1738,5.2399,5.2965,5.3918,5.4145,5.461,5.5786,5.527,5.5466,5.7185,5.7042,5.7285,5.8295,5.8056,5.7935,5.8167,5.7887,5.7724,5.7724,5.8107,5.8313,5.8313,5.8834,5.9089,5.9089,5.9187,5.9897,6.1125,6.1221,6.2238,6.404,6.5264,6.5865,6.6034,6.6409,6.6904,6.7579,6.8794,6.9553,6.9971,6.9971,6.9971,6.9971,6.9971,6.9971,6.9971,6.9971,6.9971,6.9971,6.9971,6.9925,6.9841,6.986,6.9618,6.9356,6.9244,6.9244,6.9207,6.9095,6.9057,6.8993,6.8993,6.8993,6.8993,6.8993,6.8993,6.8993,6.8993,6.8993,6.8993,6.8993,6.8993,6.8993,6.8993,6.8993,6.8993,6.8993,6.8993,6.878,6.8271,6.7745,6.7161,6.6524,6.5965,6.518,6.4074,6.2112,6.0507,5.9365,5.7403,5.6929,5.8081,5.965,6.0614,6.1077,6.3789,6.5287,0.0,0.0,0.0,0.1897,2.288,3.9135,4.2443,4.1958,4.1305,4.2964,4.3317,4.4333,4.7562,4.8222,4.8638,4.9993,5.0996,5.1488,5.1257,5.2974,5.3902,5.294,5.4016,5.4823,5.4922,5.5385,5.5922,5.6558,5.6633,5.6932,5.7688,5.7758,5.7724,5.7724,5.8107,5.8313,5.8313,5.8834,5.9089,5.9089,5.9089,5.9187,5.9373,5.9359,6.0354,6.2106,6.2143,6.2247,6.2496,6.4152,6.5869,6.7465,6.7503,6.8528,6.9971,6.9971,6.9971,6.9971,6.9971,6.9971,6.9971,6.9971,6.9971,6.9971,6.9971,6.997,6.998,6.9982,6.988,6.9768,6.9768,6.9468,6.9207,6.9207,6.9132,6.8993,6.8993,6.8993,6.8993,6.8993,6.8993,6.8993,6.8993,6.8993,6.8993,6.8993,6.8993,6.8993,6.8993,6.8993,6.8993,6.8993,6.8993,6.878,6.8271,6.7745,6.7161,6.6524,6.5965,6.568,6.5644,6.2647,6.1006,6.097,5.7974,5.6359,5.643,5.8009,5.9543,6.1042,6.2683,6.4253,-2.7095,-2.8606,-2.8123,-2.0754,0.9883,3.8561,3.9775,4.0416,4.1288,4.3024,4.4135,4.5331,4.7318,4.4822,4.3306,4.6222,4.6936,4.7877,5.0158,5.1227,5.1975,5.2583,5.2804,5.3357,5.4708,5.4518,5.4939,5.644,5.6305,5.6526,5.7332,5.7022,5.6819,5.6819,5.6946,5.7333,5.7919,5.835,5.8747,5.9089,5.9089,5.9089,5.9126,5.9126,5.9523,6.0256,6.1372,6.1276,6.0406,6.2098,6.3235,6.4196,6.6453,6.7718,6.8452,6.9553,6.9971,6.9971,6.9971,6.9971,6.9971,6.9971,6.9971,6.9971,6.9971,6.9971,6.9968,6.9966,6.9881,6.9797,6.9863,6.9617,6.9298,6.9236,6.9169,6.9132,6.9057,6.8993,6.8993,6.8993,6.8993,6.8993,6.8993,6.8993,6.8993,6.8993,6.8993,6.8993,6.8993,6.8993,6.8993,6.8993,6.8993,6.8929,6.8751,6.7962,6.736,6.7119,6.6211,6.5715,6.5715,6.3717,6.2112,6.1042,5.8972,5.7938,5.7938,5.8473,5.9508,6.1042,6.2647,6.4217,-2.8399,-3.1238,-3.2879,-2.7654,-0.0706,2.7486,3.8524,4.1811,4.263,4.2461,4.3159,4.3903,4.4471,4.144,3.9697,4.2023,4.3505,4.505,4.6993,4.9176,5.0714,5.126,5.1719,5.2265,5.3197,5.2814,5.2993,5.4188,5.4296,5.4708,5.5529,5.56,5.5693,5.5931,5.5966,5.6445,5.7516,5.8045,5.858,5.9089,5.9089,5.9089,5.9089,5.9089,5.9126,5.9299,6.0369,6.0256,5.9373,6.0443,6.1402,6.2421,6.4602,6.6261,6.7579,6.868,6.9439,6.9971,6.9971,6.9971,6.9971,6.9971,6.9971,6.9971,6.9971,6.9971,6.9971,6.9971,6.9905,6.9867,6.9972,6.978,6.9542,6.9423,6.9348,6.9217,6.911,6.9057,6.8993,6.8993,6.8993,6.8993,6.8993,6.8993,6.8993,6.8993,6.8993,6.8993,6.8993,6.8993,6.8993,6.8993,6.8993,6.8993,6.8993,6.8032,6.744,6.744,6.6354,6.5715,6.5715,6.4217,6.2932,6.1898,5.9793,5.8723,5.8723,5.8152,5.8972,6.1042,6.2076,6.3682,-3.2644,-3.5023,-3.4138,-2.05,-0.9269,0.591,3.4841,4.3754,4.4933,4.1585,4.0817,4.0249,3.9068,3.812,3.7501,3.7428,4.0507,4.2618,4.1815,4.6372,4.9561,4.8858,5.0437,5.1255,5.0603,5.0463,5.0367,5.0143,5.1029,5.1874,5.2609,5.3665,5.452,5.5109,5.5194,5.5824,5.7018,5.7854,5.8526,5.9028,5.9089,5.9089,5.9089,5.9089,5.9089,5.9089,5.9089,5.9187,5.9261,5.9261,6.0369,6.2061,6.2181,6.4231,6.7198,6.7275,6.8376,6.9857,6.9857,6.9895,6.9971,6.9971,6.9971,6.9971,6.9971,6.9971,6.9971,6.9971,6.9971,6.9971,6.9971,6.9957,6.9935,6.9797,6.96,6.9382,6.9223,6.9132,6.8993,6.8993,6.8993,6.8993,6.8993,6.8993,6.8993,6.8993,6.8993,6.8993,6.8993,6.8993,6.8993,6.8993,6.8993,6.8993,6.8993,6.8066,6.7479,6.744,6.6354,6.5732,6.5715,6.4288,6.3468,6.3396,6.0471,5.8901,5.883,5.726,5.8045,6.0899,6.097,6.2647,-3.0943,-3.2282,-3.2847,-3.0232,-2.6789,-2.2733,-1.8083,1.5549,4.5595,4.476,4.2508,3.8487,3.1349,3.1036,3.1877,3.1469,3.3264,3.5255,3.6989,3.915,4.1905,4.5512,4.6342,4.7686,5.0259,4.9863,4.9592,5.0143,5.1029,5.1874,5.2609,5.3665,5.4338,5.4466,5.494,5.5358,5.5695,5.6833,5.7792,5.8516,5.892,5.9089,5.9089,5.9089,5.9089,5.9089,5.9089,5.9089,5.9126,5.9126,5.9486,6.0152,6.1536,6.2656,6.3674,6.5043,6.663,6.811,6.811,6.8946,6.9971,6.9971,6.9971,6.9971,6.9971,6.9971,6.9971,6.9971,6.9971,6.9971,6.9971,6.9992,6.998,6.9942,6.9807,6.9634,6.9383,6.9244,6.9132,6.9057,6.8993,6.8993,6.8993,6.8993,6.8993,6.8993,6.8993,6.8993,6.8993,6.8993,6.8993,6.8993,6.8993,6.8993,6.8993,6.8404,6.7891,6.7479,6.6695,6.6078,6.5715,6.5323,6.4574,6.3396,6.2611,6.1612,6.0435,5.8865,5.8544,5.9329,6.0471,6.2076,-3.2581,-3.2857,-3.277,-3.2908,-3.1017,-3.0049,-3.382,-1.0219,1.7559,3.5189,3.7351,3.4325,2.917,2.8457,2.8443,2.8223,2.9463,3.1341,3.3539,3.5786,3.8459,4.2064,4.3931,4.5622,4.73,4.7961,4.8284,4.8282,4.9144,5.0143,5.0996,5.2069,5.2946,5.3687,5.4048,5.4592,5.5194,5.6154,5.711,5.8076,5.8759,5.9089,5.9089,5.9089,5.9089,5.9089,5.9089,5.9089,5.9089,5.9089,5.9187,5.9396,6.0398,6.1376,6.2338,6.3337,6.4828,6.644,6.7199,6.8072,6.8984,6.9743,6.9971,6.9971,6.9971,6.9971,6.9971,6.9971,6.9971,6.9971,6.9971,6.9971,6.9971,6.9971,6.988,6.973,6.9581,6.9395,6.9247,6.911,6.9057,6.8993,6.8993,6.8993,6.8993,6.8993,6.8993,6.8993,6.8993,6.8993,6.8993,6.8993,6.8993,6.8993,6.8993,6.8498,6.8137,6.7818,6.6999,6.6329,6.6064,6.5799,6.5287,6.4431,6.3753,6.2611,6.1006,5.9472,5.8723,5.8758,6.0292,6.1862,-3.5123,-3.4534,-3.3002,-3.199,-2.8865,-2.6675,-2.9655,-3.0085,-2.0031,1.4775,2.1952,2.3283,2.7847,2.7908,2.6995,2.609,2.7379,2.8978,3.0367,3.3405,3.6287,3.8329,4.1826,4.3875,4.3585,4.5764,4.6878,4.5948,4.6878,4.7851,4.8951,4.9935,5.1255,5.2891,5.3013,5.371,5.5093,5.5589,5.6443,5.7656,5.8509,5.8981,5.9089,5.9089,5.9089,5.9089,5.9089,5.9089,5.9089,5.9089,5.9126,5.9261,5.9299,6.0331,6.1799,6.1836,6.3018,6.4757,6.6287,6.7085,6.7693,6.9173,6.9819,6.9971,6.9971,6.9971,6.9971,6.9971,6.9971,6.9971,6.9971,6.9971,6.9971,6.9971,6.9906,6.9817,6.9817,6.9619,6.9408,6.9273,6.9169,6.9057,6.9057,6.9057,6.8993,6.8993,6.8993,6.8993,6.8993,6.8993,6.8993,6.8993,6.8993,6.8993,6.8993,6.8596,6.8303,6.8238,6.7206,6.6606,6.6479,6.5965,6.5715,6.5715,6.4395,6.2825,6.1006,5.9686,5.8794,5.8437,6.0221,6.1755,-3.3236,-3.2858,-3.2384,-3.2865,-3.1632,-3.0701,-3.2037,-3.1062,-2.7929,-2.0974,-1.966,-1.1033,1.6997,2.6165,2.766,2.2582,2.3339,2.4626,2.4481,2.6113,2.9052,3.3606,3.7067,4.0321,4.3237,4.5069,4.6115,4.5864,4.6878,4.7851,4.8951,4.9935,5.1049,5.2078,5.2707,5.3513,5.4358,5.5058,5.6019,5.7254,5.7724,5.8358,5.9089,5.9089,5.9089,5.9089,5.9089,5.9089,5.9089,5.9089,5.9089,5.9126,5.9261,5.9486,5.9822,6.0032,6.1197,6.2762,6.3255,6.5187,6.7503,6.7807,6.8832,6.9971,6.9971,6.9971,6.9971,6.9971,6.9971,6.9971,6.9971,6.9971,6.9971,6.9971,6.9962,6.9938,6.9938,6.9823,6.9698,6.9682,6.9394,6.9169,6.9169,6.9095,6.8993,6.8993,6.8993,6.8993,6.8993,6.8993,6.8993,6.8993,6.8993,6.8993,6.8993,6.8901,6.8693,6.8238,6.7633,6.7036,6.6479,6.5965,6.5715,6.5715,6.543,6.3896,6.1006,6.0756,5.9294,5.6822,5.9722,6.1149,-3.2797,-3.2343,-3.1998,-3.1793,-3.0967,-3.0672,-3.2504,-3.1311,-2.9592,-2.8469,-2.6544,-2.0057,-0.3869,1.3306,2.4077,2.1064,2.1459,2.24,2.3252,2.4429,2.6446,2.9756,3.3586,3.7129,4.0253,4.2541,4.4411,4.578,4.6335,4.733,4.8876,4.9469,5.0361,5.1883,5.2238,5.283,5.3629,5.4358,5.5322,5.6545,5.7145,5.7858,5.8696,5.8471,5.8471,5.8696,5.8981,5.9089,5.9089,5.9089,5.9089,5.9089,5.9187,5.9224,5.9299,5.9411,6.0069,6.102,6.2059,6.3519,6.5187,6.6895,6.7996,6.8832,6.9705,6.9971,6.9971,6.9971,6.9971,6.9971,6.9971,6.9971,6.9971,6.9971,6.9971,6.9971,6.9971,6.9866,6.9722,6.9595,6.9358,6.9207,6.9132,6.9057,6.8993,6.8993,6.8993,6.8993,6.8993,6.8993,6.8993,6.8993,6.8993,6.8993,6.8993,6.8993,6.8901,6.8626,6.7891,6.732,6.7036,6.6162,6.5715,6.5715,6.5715,6.4145,6.1006,6.1006,5.9436,5.643,5.9579,6.1006,-3.3393,-3.3094,-3.2787,-3.1635,-3.0457,-2.9947,-3.1553,-3.067,-2.8941,-2.7152,-2.3442,-2.0515,-2.0615,-0.1678,1.5443,1.9922,1.934,1.944,2.2566,2.3784,2.49,2.6914,3.0634,3.4156,3.7177,3.9987,4.2587,4.4928,4.5328,4.6276,4.8207,4.8694,4.9759,5.1521,5.1818,5.2302,5.3073,5.3801,5.4767,5.5831,5.6742,5.748,5.8045,5.7758,5.7825,5.8226,5.8696,5.892,5.892,5.9066,5.9313,5.9598,5.9201,5.9411,5.9747,5.9411,5.9411,5.9785,6.1177,6.203,6.2989,6.5945,6.7161,6.7769,6.9477,6.9971,6.9971,6.9971,6.9971,6.9971,6.9971,6.9971,6.9971,6.9971,6.9971,6.9971,6.9971,6.9903,6.9769,6.954,6.9374,6.9207,6.9132,6.9057,6.8993,6.8993,6.8993,6.8993,6.8993,6.8993,6.8993,6.8993,6.8993,6.8993,6.8993,6.8993,6.8993,6.8993,6.8032,6.744,6.744,6.6307,6.5715,6.5715,6.5715,6.4324,6.1541,6.1184,5.9579,5.6929,5.9401,6.0685,-3.5097,-3.5728,-3.587,-3.4862,-3.2845,-3.0917,-2.9458,-2.8509,-2.7622,-2.7001,-2.3398,-2.0517,-2.0553,-1.3569,-0.1428,1.7522,1.5398,1.3492,2.0015,2.0828,2.1967,2.5153,2.7966,3.1414,3.5849,3.8685,4.0873,4.245,4.3615,4.4756,4.5911,4.7868,4.9469,5.0635,5.1454,5.2302,5.3073,5.3801,5.4573,5.5308,5.6531,5.7176,5.7254,5.7215,5.7443,5.7825,5.8197,5.8407,5.8434,5.8896,6.0009,6.1243,5.971,6.0046,6.1243,5.9822,5.9299,5.9373,5.9747,6.0945,6.256,6.4507,6.6174,6.7769,6.9477,6.9971,6.9971,6.9971,6.9971,6.9971,6.9971,6.9971,6.9971,6.9971,6.9971,6.9971,6.9971,6.9968,6.9962,6.993,6.9634,6.9394,6.9356,6.9169,6.8993,6.8993,6.8993,6.8993,6.8993,6.8993,6.8993,6.8993,6.8993,6.8993,6.8993,6.8993,6.8993,6.8993,6.8032,6.744,6.744,6.6307,6.5715,6.5715,6.5715,6.4859,6.3182,6.172,6.015,5.8509,5.8794,5.9686,-3.4339,-3.4328,-3.4678,-3.4314,-3.4014,-3.3226,-3.0699,-2.9438,-2.8086,-2.6246,-2.4025,-2.1548,-1.9027,-1.7447,-1.2484,-0.013,1.0146,1.7499,2.0225,2.0427,2.1252,2.3514,2.5532,2.881,3.4288,3.6589,3.8587,4.0711,4.2148,4.3709,4.5577,4.6486,4.81,5.0463,5.0912,5.1521,5.2365,5.3133,5.3915,5.4626,5.5552,5.5963,5.6009,5.6473,5.6937,5.7406,5.7552,5.7758,5.7983,5.8434,5.9016,5.96,5.9205,5.95,6.0046,5.9411,5.9224,5.9299,5.9486,6.0069,6.0976,6.2904,6.4617,6.625,6.7921,6.9173,6.9971,6.9971,6.9971,6.9971,6.9971,6.9971,6.9971,6.9971,6.9971,6.9971,6.9971,6.9971,6.9891,6.967,6.9502,6.9352,6.9184,6.9095,6.8993,6.8993,6.8993,6.8993,6.8993,6.8993,6.8993,6.8993,6.8993,6.8993,6.8993,6.8993,6.8993,6.8993,6.8032,6.744,6.744,6.6307,6.5715,6.5715,6.5715,6.493,6.3396,6.2754,6.1648,6.0078,6.0078,6.0935,-3.466,-3.457,-3.4809,-3.4944,-3.4896,-3.4214,-3.21,-3.098,-2.9568,-2.6657,-2.4663,-2.2274,-1.8826,-1.8924,-1.8133,-1.4122,0.3106,1.6365,1.7447,1.8036,1.9182,2.1037,2.265,2.5863,3.1414,3.4204,3.658,3.876,4.0315,4.2027,4.4017,4.4747,4.6372,4.8944,4.9745,5.0533,5.1454,5.2265,5.3032,5.3892,5.4749,5.5194,5.5209,5.6013,5.6545,5.6932,5.6932,5.7176,5.7551,5.7854,5.8365,5.9074,5.8908,5.928,5.9785,5.9276,5.9126,5.9261,5.9373,5.9484,5.9946,6.1847,6.3267,6.4617,6.6782,6.83,6.9325,6.9857,6.9971,6.9971,6.9971,6.9971,6.9971,6.9971,6.9971,6.9971,6.9971,6.9971,6.9889,6.9647,6.9464,6.9336,6.9173,6.9095,6.8993,6.8993,6.8993,6.8993,6.8993,6.8993,6.8993,6.8993,6.8993,6.8993,6.8993,6.8993,6.8993,6.8993,6.8032,6.744,6.744,6.6307,6.5715,6.5715,6.5715,6.518,6.4074,6.361,6.2825,6.172,6.1256,6.1862,-3.7116,-3.7659,-3.7736,-3.8012,-3.5725,-3.3306,-3.2761,-3.2634,-3.1765,-2.8727,-2.5269,-2.2357,-2.0887,-1.854,-1.7705,-2.0143,-0.607,0.6452,0.9857,1.2359,1.4902,1.7608,1.927,2.2101,2.6865,3.1535,3.4808,3.6275,3.792,3.9397,4.0449,4.2683,4.4454,4.5527,4.7789,4.9469,5.0565,5.1226,5.2069,5.31,5.4538,5.5194,5.5209,5.6013,5.6359,5.6404,5.6404,5.6675,5.7173,5.7137,5.8609,6.0639,5.8972,5.9637,6.1392,5.971,5.9089,5.9089,5.9261,5.9382,5.9772,6.1597,6.238,6.3213,6.6478,6.7465,6.7807,6.9515,6.9971,6.9971,6.9971,6.9971,6.9971,6.9971,6.9971,6.9971,6.9971,6.9971,6.9971,6.9971,6.9663,6.9394,6.9394,6.9207,6.8993,6.8993,6.8993,6.8993,6.8993,6.8993,6.8993,6.8993,6.8993,6.8993,6.8993,6.8993,6.8993,6.8993,6.8032,6.744,6.744,6.6307,6.5715,6.5715,6.5715,6.5715,6.568,6.4145,6.3396,6.3325,6.1755,6.1862,-3.5958,-3.6282,-3.6475,-3.7068,-3.5977,-3.4647,-3.4199,-3.3597,-3.2409,-3.0198,-2.8605,-2.5764,-1.9799,-1.6534,-1.4595,-1.3785,-0.9137,-0.3502,0.2459,0.8064,1.2888,1.6733,1.7155,1.9639,2.6097,2.9035,3.166,3.4191,3.6032,3.7264,3.7886,4.0288,4.2517,4.4346,4.6656,4.8422,4.9469,5.0367,5.1224,5.2036,5.3699,5.452,5.4573,5.5789,5.6359,5.6359,5.6359,5.6457,5.6632,5.6632,5.7307,5.8317,5.8291,5.8967,5.986,5.9276,5.9089,5.9089,5.9261,6.0083,6.1014,6.0601,6.2873,6.5576,6.4444,6.6516,6.9059,6.8414,6.9097,6.9971,6.9971,6.9971,6.9971,6.9971,6.9971,6.9971,6.9971,6.9971,6.995,6.9852,6.9765,6.9581,6.9319,6.9207,6.9132,6.9057,6.8993,6.8993,6.8993,6.8993,6.8993,6.8993,6.8993,6.8993,6.8993,6.8993,6.8993,6.8993,6.8032,6.744,6.744,6.6307,6.5715,6.5715,6.5715,6.5715,6.5715,6.518,6.4966,6.493,6.3361,6.4074,-3.6002,-3.5933,-3.5947,-3.7464,-3.6523,-3.526,-3.5045,-3.3788,-3.2429,-3.1472,-3.0183,-2.7745,-2.3319,-1.9601,-1.6241,-1.34,-1.2695,-0.9543,-0.1168,0.5995,1.1511,1.414,1.5572,1.8586,2.3997,2.7256,3.0271,3.3211,3.4708,3.5662,3.6002,3.811,4.0125,4.1848,4.4709,4.6608,4.7653,4.9217,5.0124,5.0553,5.2349,5.3561,5.4283,5.5414,5.6105,5.6359,5.6359,5.6359,5.6359,5.6359,5.6545,5.6896,5.7621,5.867,5.9741,5.9741,5.9853,6.0084,6.0159,6.0883,6.1668,6.0808,6.3175,6.6063,6.4795,6.7009,6.9781,6.868,6.9629,7.092,7.092,7.0464,6.9971,6.9971,6.9971,6.9971,6.9971,6.9971,6.9954,6.989,6.975,6.9531,6.9306,6.9173,6.9132,6.9057,6.8993,6.8993,6.8993,6.8993,6.8993,6.8993,6.8993,6.8993,6.8993,6.8993,6.8993,6.8993,6.8032,6.744,6.744,6.6307,6.5715,6.5715,6.5715,6.5715,6.5715,6.5715,6.5715,6.568,6.4716,6.5002,-3.7008,-3.6672,-3.6228,-3.8884,-3.7302,-3.5257,-3.5369,-3.3517,-3.1986,-3.2395,-3.0368,-2.8669,-2.9333,-2.5913,-2.1562,-1.7594,-1.6075,-1.2012,-0.221,0.5228,0.9728,0.9691,1.387,1.7868,2.0759,2.5523,2.9715,3.2691,3.3759,3.4316,3.4546,3.6113,3.7527,3.8578,4.2056,4.4394,4.5375,4.7622,4.8795,4.887,5.0625,5.2473,5.4173,5.4853,5.5574,5.6278,5.6359,5.6359,5.6359,5.6359,5.6359,5.6448,5.6932,5.8572,6.058,6.0788,6.1115,6.1467,6.1692,6.1855,6.2004,6.2129,6.3512,6.5337,6.6825,6.8526,6.997,6.9966,7.1184,7.2476,7.2362,7.1148,6.9971,6.9971,6.9971,6.9971,6.9971,6.9971,6.9971,6.9971,6.9676,6.9428,6.9412,6.9177,6.9057,6.8993,6.8993,6.8993,6.8993,6.8993,6.8993,6.8993,6.8993,6.8993,6.8929,6.8993,6.8993,6.8929,6.7997,6.744,6.74,6.6307,6.5715,6.5715,6.5715,6.5715,6.5715,6.5715,6.5715,6.5715,6.5715,6.493,-3.7419,-3.779,-3.7996,-3.8387,-3.6836,-3.5171,-3.5232,-3.4255,-3.2781,-3.0859,-3.1096,-3.0279,-2.6061,-2.4924,-2.265,-1.6772,-1.4911,-1.2881,-0.8986,-0.214,0.2409,0.2005,0.5829,1.0982,1.7282,2.1512,2.5194,2.8193,3.1085,3.2504,3.203,3.4445,3.6371,3.7447,4.0083,4.2458,4.4403,4.5706,4.6735,4.754,5.024,5.2162,5.3396,5.4644,5.5294,5.5526,5.6105,5.6359,5.6359,5.6359,5.6359,5.6448,5.6932,5.751,5.8246,6.0132,6.0344,6.0046,6.2552,6.3449,6.3462,6.3586,6.5769,6.7937,6.5946,6.7544,6.9995,6.997,7.1212,7.2211,7.092,7.0274,6.9971,6.9971,6.9971,6.9971,6.9971,6.9971,6.9971,6.9971,6.9891,6.9738,6.944,6.9348,6.9244,6.9057,6.8993,6.8993,6.8993,6.8993,6.8993,6.8993,6.8993,6.8846,6.8436,6.878,6.8808,6.8436,6.7818,6.7202,6.674,6.6064,6.5715,6.5715,6.5715,6.5715,6.5715,6.5715,6.5715,6.5715,6.5715,6.5501,-3.8392,-3.8396,-3.805,-3.8093,-3.7005,-3.5788,-3.5367,-3.4467,-3.3275,-3.1664,-3.1662,-3.0931,-2.7536,-2.6588,-2.5094,-2.1586,-1.859,-1.5948,-1.3493,-0.839,-0.2535,0.3785,0.6738,1.073,1.7296,1.9922,2.2799,2.6527,2.9381,3.0972,3.1095,3.3312,3.5011,3.6213,3.8465,4.0526,4.2316,4.3431,4.5029,4.7072,4.9321,5.1292,5.3133,5.4214,5.4784,5.4836,5.5919,5.6187,5.5884,5.6233,5.6359,5.6368,5.6675,5.6802,5.7071,5.9378,5.9995,6.0021,6.2938,6.3935,6.4122,6.5031,6.7168,6.9091,6.7393,6.8859,7.0963,7.0146,7.0598,7.1337,7.1186,7.0578,6.9971,6.9971,6.9971,6.9971,6.9971,6.9971,6.9971,6.9971,6.984,6.966,6.943,6.9297,6.9169,6.9057,6.8993,6.8993,6.8993,6.8993,6.8993,6.8993,6.8993,6.8901,6.8596,6.8846,6.8874,6.8596,6.7891,6.7161,6.6479,6.5965,6.5715,6.5715,6.5715,6.5715,6.5715,6.5715,6.5715,6.568,6.4966,6.4253,-3.9521,-3.897,-3.8014,-3.8074,-3.7321,-3.6304,-3.5568,-3.437,-3.326,-3.2887,-3.1962,-3.1017,-3.0456,-2.9028,-2.793,-2.7362,-2.3664,-1.9653,-1.6028,-1.2661,-0.5694,0.7336,0.9384,1.1863,1.7475,1.8956,2.1408,2.5615,2.7681,2.9494,3.1232,3.2426,3.3655,3.5179,3.7106,3.8681,3.9711,4.1165,4.3395,4.6516,4.7987,5.0111,5.2735,5.3629,5.4061,5.4117,5.5463,5.5658,5.5144,5.5884,5.6187,5.6233,5.6359,5.6359,5.6591,5.8422,5.9556,6.0395,6.239,6.3474,6.4309,6.6365,6.8085,6.9373,6.9399,7.0654,7.1756,7.0185,6.9844,7.0312,7.1755,7.1034,6.9971,6.9971,6.9971,6.9971,6.9971,6.9971,6.9971,6.9971,6.9689,6.949,6.9407,6.9231,6.9057,6.8993,6.8993,6.8993,6.8993,6.8993,6.8993,6.8993,6.8993,6.8993,6.8901,6.8874,6.8874,6.878,6.7818,6.7078,6.6479,6.5965,6.5715,6.5715,6.5715,6.5715,6.5715,6.5715,6.5715,6.5644,6.411,6.254,-3.9777,-4.0461,-4.0616,-3.8728,-3.6871,-3.5375,-3.5255,-3.3699,-3.1997,-3.0977,-3.1232,-3.1143,-2.974,-2.9807,-2.9063,-2.6113,-2.4939,-2.2265,-1.6514,-1.2874,-0.7685,0.0675,0.1971,0.5034,1.2082,1.5936,1.897,2.1643,2.4553,2.7987,3.2213,3.2135,3.2965,3.5306,3.5605,3.6228,3.7254,3.9403,4.172,4.4128,4.627,4.8621,5.1017,5.255,5.3219,5.3312,5.4138,5.45,5.4412,5.5093,5.5343,5.5477,5.6105,5.6359,5.6484,5.7226,5.8375,5.9592,5.9276,6.128,6.4496,6.7636,6.8908,6.9261,6.9361,6.9788,7.0085,6.9596,6.9685,7.0047,7.0274,7.016,6.9971,6.9971,6.9971,6.9971,6.9971,6.9971,6.9971,6.9971,6.9931,6.9783,6.9472,6.936,6.9282,6.9057,6.8993,6.8993,6.8993,6.8993,6.8993,6.8993,6.8993,6.8846,6.8404,6.8335,6.8134,6.7745,6.6999,6.657,6.6479,6.5965,6.5715,6.5715,6.5715,6.5715,6.5715,6.5715,6.5715,6.5644,6.411,6.254,-4.0718,-4.1044,-4.1334,-3.9407,-3.7493,-3.5879,-3.5348,-3.4024,-3.2622,-3.1455,-3.1443,-3.1388,-3.0508,-3.0417,-3.0085,-2.877,-2.6848,-2.4313,-2.0657,-1.574,-1.0739,-0.6218,-0.1976,0.3601,1.1229,1.4347,1.6656,1.8994,2.1414,2.4226,2.748,2.9782,3.1548,3.2813,3.4899,3.6292,3.676,3.8501,4.0775,4.3536,4.5382,4.7686,5.0533,5.1686,5.2295,5.2458,5.3687,5.4005,5.3687,5.4749,5.5194,5.5294,5.6059,5.6359,5.6368,5.6632,5.7365,5.8158,5.7807,5.9694,6.2882,6.6463,6.7711,6.7987,6.893,6.9381,6.9585,6.9607,7.0444,7.1337,7.1337,7.1337,7.1337,7.1337,7.0654,6.9971,6.9971,6.9971,6.9971,6.9971,6.9795,6.9603,6.9448,6.9283,6.9169,6.9057,6.8993,6.8993,6.8993,6.8993,6.8993,6.8993,6.8993,6.878,6.8271,6.7962,6.7671,6.744,6.6597,6.6175,6.6479,6.5965,6.5715,6.5715,6.5715,6.5715,6.5715,6.5715,6.5715,6.5644,6.411,6.254,-4.2932,0.0,-4.3001,-4.1225,-3.9396,-3.7676,0.0,-3.5023,-3.3742,-3.2307,-3.2105,-3.2035,-3.1637,-3.1298,-3.101,-3.0985,-2.835,-2.5659,-2.345,-1.8677,-1.4417,-1.1748,-0.5927,0.0865,0.8608,1.1091,1.3724,1.7233,1.9006,2.0956,2.3597,2.7591,3.0191,3.1089,3.4396,3.6094,3.5934,3.7154,3.9443,4.2875,4.4112,4.6612,5.0149,5.099,5.149,5.1949,5.316,5.3338,5.2891,5.4377,5.4853,5.4802,5.5966,5.6233,5.6105,5.6314,5.6632,5.6973,5.7094,5.8719,6.1247,6.466,6.6426,6.7449,6.8683,6.9244,6.942,6.9634,7.1042,7.24,7.2021,7.2211,7.24,7.1983,7.092,6.9971,6.9971,6.9971,6.9971,6.9971,6.97,6.9475,6.9414,6.9187,6.9057,6.8993,6.8993,6.8993,6.8993,6.8993,6.8993,6.8993,6.8993,6.878,6.8271,6.7633,6.7197,6.7036,6.6198,6.5901,6.6282,6.5901,6.5715,6.5715,6.5715,6.5715,6.5715,6.5715,6.5715,6.5644,6.411,6.254,0.0,-4.8064,-4.7542,-4.528,-4.3246,-4.1194,-3.8965,-3.6831,0.0,-3.2537,-3.2908,-3.3533,-3.3189,-3.2784,-3.1893,-3.0156,-2.855,-2.5877,-2.128,-2.0277,-1.8529,-1.4615,-1.2334,-0.8012,0.0147,0.3949,0.9082,1.6969,1.8141,2.0252,2.4589,2.7021,2.957,3.228,3.3702,3.4128,3.3468,3.4465,3.6877,4.0877,4.1948,4.4774,4.91,5.0149,5.1085,5.1883,5.2014,5.2078,5.211,5.3629,5.3858,5.3455,5.5561,5.5931,5.5343,5.6105,5.6404,5.6501,5.6973,5.8537,6.0645,6.287,6.5974,6.8908,6.9132,6.9282,6.9411,6.9404,7.0914,7.2135,7.0578,7.1337,7.2135,7.054,7.0085,6.9971,6.9971,6.9971,6.9971,6.9971,6.9856,6.9683,6.9442,6.9271,6.9169,6.9057,6.8993,6.8993,6.8993,6.8993,6.8993,6.8993,6.8993,6.878,6.8271,6.7206,6.6329,6.5886,6.5732,6.5715,6.5732,6.5732,6.5715,6.5715,6.5715,6.5715,6.5715,6.5715,6.5715,6.5644,6.411,6.254,-4.9167,-4.8945,-4.803,-4.5593,-4.3548,-4.1581,-3.9237,-3.757,-3.6095,-3.448,-3.4483,-3.4702,-3.4307,-3.3407,-3.2503,-3.2118,-2.9824,-2.7239,-2.4526,-2.2278,-1.9485,-1.5633,-1.2883,-1.0459,-0.7809,-0.207,0.4915,1.3011,1.481,1.6545,1.894,2.3502,2.6614,2.7771,2.9526,3.1115,3.2439,3.3857,3.6049,3.9052,4.1161,4.3779,4.6861,4.8726,5.0149,5.1117,5.1686,5.1883,0.0,5.3073,5.3629,5.3915,5.5179,5.5754,5.5931,5.6278,5.6359,5.6368,5.6589,5.7375,5.8464,5.9508,6.1728,6.4158,6.5529,6.6702,6.7824,6.9037,7.082,7.2262,7.1706,7.2021,7.2362,7.1717,7.073,6.9971,6.9971,6.9971,6.9971,6.9971,6.9753,6.9516,6.9398,6.9244,6.9095,6.8993,6.8993,6.8993,6.8993,6.8993,6.8993,6.8993,6.8722,6.8303,6.7782,6.6999,6.6271,6.5732,6.5715,6.5715,6.5715,6.5715,6.5715,6.5715,6.4752,6.4752,6.5715,6.426,6.4042,6.4925,6.3868,6.2339,-5.1664,-5.0604,-4.9233,-4.7538,-4.5735,-4.3703,-4.1325,-3.9846,-3.8304,-3.6362,-3.6249,-3.6232,-3.5569,-3.4528,-3.3836,-3.3626,-3.1062,-2.8483,-2.6945,-2.3834,-2.0893,-1.845,-1.5532,-1.3782,-1.4312,-0.5913,0.2173,0.8801,1.2277,1.4447,1.5496,2.0594,2.3453,2.3558,2.6492,2.9065,3.1367,3.3518,3.5885,3.8328,4.0633,4.283,4.4924,4.6936,4.8622,4.9993,5.099,5.162,5.1949,5.2769,5.3253,5.3629,5.4749,5.5428,5.5741,5.6187,5.6359,5.6359,5.6359,5.6718,5.7249,5.8063,5.9428,6.1217,6.3169,6.4308,6.5454,6.7979,7.0426,7.2279,7.1817,7.2097,7.2362,7.1831,7.0806,6.9971,6.9971,6.9971,6.9971,6.9971,6.967,6.9399,6.9411,6.9207,6.8993,6.8993,6.8993,6.8993,6.8993,6.8993,6.8993,6.8993,6.8566,6.7962,6.7202,6.6561,6.6114,6.5732,6.5715,6.5715,6.5715,6.5251,6.4966,6.4966,6.3432,6.3147,6.4217,6.2434,6.2049,6.3123,6.2595,6.1198,-5.5199,-5.359,-5.1883,-5.1883,-5.0399,-4.8367,-4.604,-4.401,-4.1594,-3.7946,-3.8051,-3.8504,-3.7188,-3.6586,-3.5836,-3.4489,-3.1766,-2.9201,-2.7842,-2.4884,-2.3101,-2.3615,-2.1122,-1.917,-1.8822,-0.7564,0.1303,0.4947,1.086,1.47,1.5506,1.8666,2.0386,2.0386,2.5089,2.8435,3.0304,3.3171,3.5975,3.8685,3.9931,4.1609,4.3596,4.4894,4.661,4.8679,4.9956,5.1049,5.1949,5.2707,5.2583,5.211,5.4343,5.4836,5.4446,5.5872,5.6359,5.6359,5.6359,5.6682,5.7427,5.8952,6.0033,6.1084,6.2782,6.2519,6.2365,6.5991,6.9617,7.2021,7.0388,7.1186,7.2059,7.0388,6.9971,6.9971,6.9971,6.9971,6.9971,6.9971,6.967,6.9399,6.9411,6.9207,6.8993,6.8993,6.8993,6.8993,6.8993,6.8993,6.8993,6.8993,6.8498,6.7745,6.657,6.6015,6.5715,6.568,6.568,6.5644,6.5644,6.4181,6.3361,6.3361,6.1827,6.1006,6.1006,6.0352,6.0033,6.0033,6.0033,5.9156,-5.4015,-5.3227,-5.2458,-5.122,-4.9935,-4.842,-4.6113,-4.4582,-4.2829,-4.0035,-3.9705,-3.9554,-3.8243,-3.7136,-3.6171,-3.5755,-3.3266,-3.085,-2.9333,-2.7425,-2.5121,-2.2303,-2.1346,-1.95,-1.6133,-1.3186,-0.7934,0.0423,0.7571,1.2493,1.4184,1.6692,1.8773,2.0373,2.4037,2.6794,2.8341,3.1327,3.4142,3.6881,3.7492,3.9492,4.2601,4.3844,4.5527,4.766,4.9646,5.1049,5.1949,5.2174,5.2395,5.283,5.4083,5.4679,5.5042,5.6013,5.6359,5.6359,5.6359,5.6457,5.6747,5.756,5.8209,5.883,5.9588,6.0631,6.1879,6.3038,6.5053,6.7091,6.7842,6.9401,7.0616,7.0085,6.9971,6.9971,6.9971,6.9971,6.9971,6.9971,6.967,6.9399,6.9411,6.9207,6.8993,6.8993,6.8993,6.8993,6.8993,6.8693,6.8467,6.8467,6.7559,6.6834,6.6479,6.6015,6.5251,6.4145,6.4074,6.3575,6.2433,6.1969,6.172,6.172,6.0185,5.9743,6.0352,5.8408,5.7553,5.7609,5.8066,5.7757,-5.4159,-5.3479,-5.2797,-5.1785,-5.0539,-4.9143,-4.7368,-4.6188,-4.4728,-4.2347,-4.1511,-4.0755,-3.9451,-3.8135,-3.7019,-3.6482,-3.4914,-3.307,-3.0922,-2.937,-2.7085,-2.3543,-2.2933,-2.0978,-1.6078,-1.6872,-1.4264,-0.5947,0.4501,1.0528,1.0416,1.3784,1.6313,1.7405,2.1925,2.5041,2.6494,3.0754,3.4268,3.6981,3.7679,3.9159,4.1444,4.2656,4.4156,4.5797,4.8125,5.002,5.142,5.1752,5.2174,5.2645,5.3455,5.4193,5.4888,5.5658,5.6105,5.6359,5.6359,5.6501,5.676,5.7054,5.7516,5.8014,5.8255,5.9403,6.0794,6.1579,6.2652,6.4116,6.6601,6.8117,6.9135,6.9819,6.9971,6.9971,6.9971,6.9971,6.9971,6.9933,6.9632,6.9399,6.9311,6.9169,6.8993,6.8993,6.8993,6.8993,6.8993,6.8566,6.8238,6.8238,6.6999,6.6175,6.6175,6.5901,6.5037,6.3503,6.3396,6.2683,6.1077,6.0435,6.0078,6.0078,5.858,5.7893,5.8138,5.6354,5.5365,5.5168,5.5573,5.5539,-5.5244,-5.4214,-5.3193,-5.3073,-5.1752,-5.0323,-4.9322,-4.8238,-4.6818,-4.4698,-4.323,-4.1924,-4.0711,-3.9451,-3.816,-3.6791,-3.6378,-3.544,-3.2676,-3.1001,-2.915,-2.6683,-2.5539,-2.3109,-1.823,-1.9046,-1.7835,-1.2851,0.0807,0.7473,0.4031,1.0268,1.3792,1.3443,1.9307,2.3246,2.4854,3.0697,3.5107,3.7954,3.9058,3.9764,4.0128,4.1283,4.2437,4.3669,4.6023,4.8353,5.0635,5.1521,5.1883,5.2014,5.2769,5.3547,5.4338,5.4991,5.5706,5.6359,5.6359,5.6718,5.7173,5.7173,5.769,5.8407,5.8407,5.8721,5.9448,6.1102,6.1806,6.2805,6.6144,6.7219,6.7883,6.9553,6.9971,6.9971,6.9971,6.9971,6.9933,6.9819,6.9571,6.9349,6.9236,6.9095,6.8993,6.8993,6.8993,6.8993,6.8993,6.8498,6.81,6.8066,6.6497,6.5501,6.5501,6.5358,6.4609,6.304,6.2968,6.2169,6.0601,5.9128,5.838,5.838,5.699,5.5884,5.5109,5.452,5.3801,5.2919,5.2919,5.2919,-5.5379,-5.4592,-5.3835,-5.3219,-5.1752,-5.0463,-5.0252,-4.8801,-4.706,-4.5606,-4.4468,-4.2986,-4.0807,-4.023,-3.9549,-3.826,-3.7122,-3.5755,-3.3955,-3.3055,-3.1757,-2.9184,-2.8017,-2.6137,-2.2668,-1.9838,-1.7261,-1.5002,-0.6824,-0.3461,-0.6934,0.7001,1.5408,1.601,1.916,2.2229,2.4982,2.8714,3.2087,3.4936,3.5656,3.6848,3.8617,3.919,4.0946,4.3669,4.6023,4.8353,5.0635,5.1521,5.1883,5.2014,5.2769,5.3547,5.4338,5.4991,5.5706,5.6359,5.6359,5.6718,5.7173,5.7173,5.7961,5.892,5.892,5.9005,5.9187,5.9673,6.0892,6.2535,6.4722,6.6349,6.7883,6.9553,6.9971,6.9971,6.9971,6.9895,6.9819,6.9781,6.9491,6.9235,6.9196,6.9095,6.8993,6.8993,6.8993,6.8993,6.8993,6.8205,6.7403,6.692,6.5047,6.3896,6.3896,6.2754,6.1363,5.9829,5.9686,5.8699,5.6547,5.6146,5.597,5.597,5.5653,5.5093,5.4412,5.4283,5.3513,5.2174,5.2174,5.2174,-5.5884,-5.5229,-5.452,-5.3801,-5.2702,-5.1522,-5.0742,-4.9322,-4.7851,-4.6789,-4.4757,-4.2778,-4.1485,-4.0301,-3.9255,-3.8585,-3.7857,-3.6893,-3.5418,-3.4774,-3.3549,-3.1007,-2.9268,-2.7023,-2.3995,-2.0984,-1.8191,-1.5687,-1.2685,-1.0082,-0.8125,0.2202,0.9863,1.3749,1.7292,1.993,2.1679,2.7003,3.0784,3.2969,3.5357,3.7397,3.905,3.9267,4.0685,4.2994,4.4626,4.6712,4.8984,5.0589,5.1687,5.2458,5.2891,5.371,5.4732,5.5093,5.5706,5.6404,5.6675,5.7058,5.7443,5.7656,5.833,5.9089,5.9089,5.9089,5.9089,5.9261,6.0593,6.2418,6.4269,6.6079,6.7883,6.9553,6.9971,6.9971,6.9971,6.9895,6.9732,6.9627,6.939,6.9207,6.9132,6.9057,6.8993,6.8993,6.8993,6.8901,6.8656,6.7927,6.691,6.5474,6.4184,6.3075,6.2326,6.1505,6.0364,5.8794,5.8331,5.7295,5.5279,5.494,5.4732,5.4732,5.4732,5.4412,5.3629,5.3629,5.3073,5.1883,5.1883,5.1883,-5.6359,-5.5836,-5.5042,-5.4358,-5.3629,-5.2674,-5.1153,-4.9863,-4.8694,-4.7851,-4.507,-4.2632,-4.2267,-4.0512,-3.8958,-3.8585,-3.8656,-3.8247,-3.6864,-3.6374,-3.5215,-3.2931,-3.0068,-2.7431,-2.4999,-2.2353,-1.94,-1.6083,-1.6773,-1.4043,-0.6526,-0.3377,0.1427,0.8462,1.3888,1.6999,1.7844,2.4966,2.9277,3.0996,3.517,3.7971,3.9375,3.9511,4.0552,4.2248,4.3157,4.4771,4.6951,4.9506,5.1389,5.2674,5.2919,5.388,5.5093,5.5259,5.5813,5.6589,5.7058,5.7516,5.7887,5.8284,5.8759,5.9126,5.9126,5.9126,5.9261,5.9635,6.1085,6.2904,6.4675,6.6516,6.8262,6.9629,6.9971,6.9971,6.9971,6.9892,6.9708,6.9395,6.9282,6.9169,6.9057,6.8993,6.8993,6.8993,6.8993,6.8808,6.8271,6.7229,6.5727,6.3819,6.2976,6.2041,6.0721,6.0364,5.9603,5.819,5.7528,5.6439,5.4888,5.4303,5.4061,5.4061,5.4061,5.3687,5.3073,5.3073,5.2645,5.1883,5.1883,5.1883,-5.6359,-5.5836,-5.5042,-5.4358,-5.3629,-5.283,-5.1916,-5.0259,-4.8951,-4.8801,-4.698,-4.4756,-4.2541,-4.1898,-4.0988,-3.8859,-3.9315,-3.9508,-3.8086,-3.8004,-3.7542,-3.582,-3.1916,-2.9225,-2.8752,-2.3343,-1.8956,-1.7046,-1.7612,-1.574,-1.0068,-0.9296,-0.5865,0.1164,0.7924,1.3587,1.7844,2.1623,2.5115,2.8134,3.1266,3.4093,3.6718,3.6822,3.8772,4.2248,4.3157,4.4364,4.5995,4.9222,5.0673,5.1017,5.2454,5.3571,5.452,5.5506,5.6381,5.7134,5.7516,5.7887,5.8313,5.8809,5.9103,5.9261,5.9261,5.9336,5.971,6.1215,6.296,6.4759,6.6477,6.8262,6.9705,6.9933,6.9971,6.9971,6.9971,6.9879,6.9663,6.9323,6.9132,6.9057,6.8993,6.8993,6.8993,6.8993,6.8993,6.8808,6.8271,6.4909,6.2272,6.1531,6.0162,5.9258,5.9044,5.7795,5.6638,5.5709,5.5575,5.4818,5.3396,5.3279,5.3219,5.3219,5.3219,5.316,5.3073,5.3073,5.2645,5.1883,5.1883,5.1883,-5.6359,-5.6105,-5.5609,-5.45,-5.4005,-5.3396,-5.2174,-5.0399,-4.9025,-4.9025,-4.6818,-4.475,-4.4411,-4.2592,-4.1344,-4.1609,-4.0252,-3.9515,-4.0181,-3.9485,-3.8918,-3.8718,-3.5854,-3.3496,-3.2618,-2.7718,-2.2909,-1.9016,-1.7476,-1.4971,-1.0715,-1.0482,-0.7306,-0.0259,0.6773,1.2126,1.5612,2.0218,2.3319,2.4907,2.967,3.3374,3.6184,3.5707,3.7554,4.106,4.0937,4.2488,4.5448,4.7669,4.9901,5.2108,5.3279,5.4138,5.4905,5.6163,5.6865,5.7254,5.7822,5.772,5.7356,5.7609,5.8401,5.9119,5.8163,5.9267,6.1094,6.1898,6.4009,6.6211,6.7047,6.8555,6.986,6.986,6.9928,6.9971,6.9895,6.9827,6.966,6.9259,6.9132,6.8993,6.8993,6.8993,6.8993,6.8993,6.7959,6.6554,6.4838,6.298,6.1274,5.9887,5.9115,5.8366,5.751,5.6367,5.5574,5.5244,5.4485,5.371,5.31,5.2645,5.2395,5.2395,5.2395,5.2395,5.2395,5.2395,5.2238,5.1883,5.1883,5.1883,-5.6278,-5.6095,-5.5596,-5.45,-5.4083,-5.3571,-5.2238,-5.0399,-4.91,-4.9322,-4.7,-4.5214,-4.6187,-4.387,-4.2284,-4.3799,-4.1408,-3.9952,-4.1687,-4.0632,-3.9985,-4.0746,-3.838,-3.6351,-3.5446,-3.0594,-2.6175,-2.2876,-1.9145,-1.5516,-1.1952,-1.0973,-0.7301,-0.0259,0.6782,1.126,1.2912,1.7855,2.1091,2.2828,2.8183,3.254,3.5708,3.4694,3.6328,3.9808,3.902,4.0998,4.4832,4.6409,4.9123,5.255,5.3744,5.452,5.5159,5.6706,5.7002,5.6715,5.7125,5.6735,5.6046,5.6046,5.7002,5.7969,5.7178,5.8761,6.1072,6.1956,6.3934,6.6017,6.6963,6.8175,6.9236,6.9583,6.9816,6.9894,6.9729,6.9679,6.9543,6.9282,6.9132,6.8993,6.8993,6.8993,6.8752,6.806,6.6683,6.4601,6.1581,6.0588,5.9509,5.8001,5.7667,5.711,5.5895,5.5279,5.4853,5.4697,5.3653,5.2979,5.2769,5.2238,5.1883,5.1883,5.1883,5.1883,5.1883,5.1883,5.1883,5.1883,5.1883,5.1883,-5.6187,-5.5364,-5.4338,-5.4228,-5.3687,-5.2891,-5.2078,-5.0399,-4.9248,-5.0252,-4.877,-4.719,-4.704,-4.61,-4.5013,-4.3922,-4.2615,-4.1838,-4.199,-4.1258,-4.0769,-4.0838,-3.7302,-3.5523,-3.708,-2.9904,-2.6427,-2.9398,-2.4428,-1.9404,-1.5378,-1.2216,-0.7297,-0.0259,0.6786,1.0502,1.0715,1.3024,1.7097,2.2828,2.6246,3.0211,3.4639,3.334,3.4943,3.874,3.8656,4.0579,4.3772,4.6125,4.8456,5.0948,5.3304,5.4283,5.4538,5.6844,5.6665,5.5223,5.4639,5.447,5.4545,5.4545,5.4779,5.5304,5.6871,5.7517,5.8391,6.1352,6.2302,6.3153,6.6266,6.7234,6.7744,6.909,6.9601,6.9735,6.9459,6.9334,6.9244,6.9207,6.9132,6.8993,6.8993,6.8993,6.8126,6.5535,6.5481,6.4231,6.0131,5.725,5.5469,5.5434,5.4871,5.4407,5.4338,5.4338,5.3971,5.3219,5.31,5.2707,5.2014,5.1949,5.1883,5.1883,5.1883,5.1883,5.1883,5.1883,5.1883,5.1883,5.1883,5.1883,-5.5526,-5.5244,-5.4784,-5.4303,-5.3629,-5.2891,-5.2078,-5.088,-5.011,-5.0463,-4.9395,-4.8668,-4.9389,-4.7457,-4.6007,-4.7191,-4.3724,-4.1466,-4.3049,-4.165,-4.0904,-4.2242,-4.1232,-4.0454,-4.0715,-3.563,-3.2137,-3.1789,-2.7421,-2.2015,-1.5743,-1.4845,-1.1125,-0.3632,0.1299,0.4812,0.7162,1.0171,1.3341,1.6616,2.1975,2.7205,3.2218,3.1892,3.3324,3.6349,3.6343,3.8717,4.253,4.3896,4.6008,4.8578,5.0523,5.1624,5.2411,5.4023,5.4363,5.4102,5.4271,5.3728,5.2905,5.2923,5.3712,5.481,5.5429,5.7157,5.9348,6.1496,6.2806,6.3851,6.4999,6.5355,6.5501,6.6015,6.6266,6.6373,6.6169,6.61,6.6041,6.5879,6.5804,6.569,6.5424,6.5366,6.4958,6.3624,6.2452,6.0687,5.7845,5.6132,5.5194,5.5194,5.4626,5.4228,5.4228,5.3744,5.3338,5.3073,5.2583,5.2174,5.1883,5.1883,5.1883,5.1883,5.1883,5.1883,5.1883,5.1883,5.1883,5.1883,5.1883,5.1883,-5.461,-5.4274,-5.3809,-5.4145,-5.3489,-5.2521,-5.2014,-5.1185,-5.0603,-5.0912,-5.022,-4.9825,-5.1024,-4.879,-4.738,-4.9018,-4.4627,-4.1586,-4.3113,-4.156,-4.0706,-4.2121,-4.2454,-4.2581,-4.2802,-4.0288,-3.7288,-3.4025,-3.0479,-2.5148,-1.7462,-1.6951,-1.3823,-0.7162,-0.4812,-0.1299,0.3377,0.8084,1.1853,1.4339,1.8337,2.3223,2.8563,3.0394,3.2352,3.4473,3.5359,3.8151,4.2221,4.2759,4.4796,4.7807,4.9242,5.0358,5.1307,5.2581,5.2661,5.2159,5.2629,5.2102,5.1251,5.1242,5.2001,5.3137,5.4286,5.6185,5.8411,6.0505,6.1827,6.2762,6.3286,6.346,6.3585,6.3909,6.4221,6.4384,6.408,6.4133,6.4147,6.3819,6.3745,6.3637,6.3172,6.2947,6.2774,6.2633,6.0679,5.8535,5.6627,5.5512,5.4749,5.4538,5.3824,5.3489,5.3489,5.2952,5.2645,5.2645,5.2174,5.1883,5.1883,5.1883,5.1883,5.1883,5.1883,5.1883,5.1883,5.1883,5.1883,5.1883,5.1883,5.1883,-5.3306,-5.2318,-5.1269,-5.3547,-5.2972,-5.1818,-5.1883,-5.122,-5.0843,-5.1752,-5.1185,-5.0843,-5.1752,-5.0259,-4.9025,-4.9025,-4.5238,-4.2175,-4.2175,-4.105,-4.0249,-4.0273,-4.058,-4.1464,-4.3131,-4.3317,-4.1277,-3.6311,-3.3958,-2.9106,-2.0849,-1.816,-1.4991,-1.0837,-1.0625,-0.7055,-0.013,0.7037,1.264,1.666,1.5784,1.8359,2.3827,2.8831,3.1891,3.3552,3.5722,3.9021,4.2861,4.2926,4.5133,4.8569,4.9597,5.047,5.1244,5.2782,5.1638,4.9425,4.9538,4.9564,4.9583,4.9583,4.9574,5.0176,5.3524,5.4557,5.5244,5.8327,5.9261,5.9635,6.1144,6.164,6.1967,6.2945,6.3664,6.3972,6.3354,6.3515,6.3659,6.328,6.319,6.303,6.2521,6.2002,6.184,6.2342,6.024,5.8081,5.6537,5.5163,5.3949,5.316,5.2365,5.1883,5.1883,5.1883,5.1883,5.1883,5.1883,5.1883,5.1883,5.1883,5.1883,5.1883,5.1883,5.1883,5.1883,5.1883,5.1883,5.1883,5.1883,5.1883,-5.1413,-5.0687,-5.0185,-5.1292,-5.0955,-5.0464,-5.0927,-5.1286,-5.162,-5.1818,-5.1686,-5.162,-5.1883,-5.0259,-4.9025,-4.9025,-4.5911,-4.3257,-4.2293,-4.111,-4.0352,-4.0279,-4.0339,-4.0892,-4.2238,-4.2246,-4.062,-3.6534,-3.4907,-3.1144,-2.4535,-2.0558,-1.7414,-1.5253,-1.2141,-0.7176,-0.013,0.6921,1.113,1.2359,1.4791,1.7045,1.8999,2.2866,2.7471,3.2274,3.4307,3.7179,4.056,4.1769,4.3619,4.5699,4.6594,4.7885,4.9364,5.0217,5.0138,4.9645,4.9598,4.9617,4.9693,4.9598,4.9529,4.9832,5.1992,5.3449,5.4737,5.6756,5.8214,5.9154,5.9228,5.9249,5.9316,5.9267,5.9415,5.9578,5.9684,5.9565,5.9504,5.9684,5.9473,5.9147,5.8755,5.8524,5.8323,5.8116,5.7484,5.6649,5.5645,5.5194,5.4431,5.3219,5.2365,5.1883,5.1883,5.1883,5.1883,5.1883,5.1883,5.1883,5.1883,5.1883,5.1883,5.1883,5.1883,5.1883,5.1883,5.1883,5.1883,5.1883,5.1883,5.1883,-4.9184,-4.9042,-4.9216,-5.029,-4.9888,-4.9488,-5.0054,-5.0383,-5.0539,-5.0539,-5.0975,-5.1377,-5.106,-4.9876,-4.9025,-4.9025,-4.6217,-4.3643,-4.2385,-4.1135,-4.0414,-4.0302,-4.0276,-4.0553,-4.1325,-4.1247,-3.9644,-3.5995,-3.5006,-3.1823,-2.5449,-2.1115,-1.7853,-1.5633,-1.193,-0.7302,-0.1881,0.3644,0.7828,1.0509,1.3442,1.567,1.7228,1.9811,2.4148,2.9691,3.3583,3.7064,4.0234,4.2712,4.4233,4.5184,4.6872,4.8027,4.8747,4.93,4.9611,4.9697,4.9659,4.9632,4.9593,4.9494,4.9391,4.9596,5.1278,5.2457,5.3503,5.5111,5.6667,5.7753,5.7433,5.7716,5.7983,5.7551,5.7586,5.7758,5.7789,5.7755,5.7758,5.7789,5.7621,5.7333,5.6891,5.6808,5.6639,5.5977,5.6187,5.6105,5.5294,5.4991,5.4323,5.316,5.2365,5.1883,5.1883,5.1883,5.1883,5.1883,5.1883,5.1883,5.1883,5.1883,5.1883,5.1883,5.1883,5.1883,5.1883,5.1883,5.1883,5.1883,5.1883,5.1555,-4.7133,-4.7556,-4.8396,-4.9682,-4.9172,-4.8536,0.0,-4.8887,-4.8495,-4.8495,-4.9511,-5.0214,-4.964,-4.9178,-4.8955,-4.8955,-4.6508,-4.4206,-4.2814,-4.1646,-4.0971,-4.0902,-4.0711,-4.0615,-4.0615,-4.0377,-3.8789,-3.5336,-3.4595,-3.1599,-2.5435,-2.1035,-1.7465,-1.4529,-1.1749,-0.86,-0.5254,-0.2621,0.2746,1.0529,1.1352,1.3641,1.7277,1.8534,2.1588,2.6195,3.2593,3.7217,4.0365,4.4255,4.5948,4.6349,4.8852,4.9469,4.8957,4.9545,4.9697,4.9621,4.9691,4.9536,4.9297,4.9315,4.9183,4.9407,5.0881,5.1499,5.1947,5.3419,5.4702,5.5655,5.56,5.6447,5.7295,5.6922,5.7186,5.7479,5.7215,5.7406,5.7516,5.7215,5.7094,5.6891,5.6323,5.6278,5.6059,5.5244,5.5658,5.5836,5.5058,5.4466,5.3801,5.3013,5.2302,5.1883,5.1883,5.1883,5.1883,5.1883,5.1883,5.1883,5.1883,5.1752,5.1653,5.1653,5.1489,5.139,5.139,5.139,5.139,5.139,5.139,5.0733,0.0,0.0,0.0,0.0,0.0,0.0,0.0,-4.7467,-4.7814,-4.7814,-4.8045,-4.8184,-4.8064,-4.82,-4.8361,-4.8361,-4.8173,-4.7319,-4.5296,-4.4786,-4.4411,-4.3464,-4.2504,-4.1832,-4.1832,-4.0962,-3.9348,-3.6755,-3.3975,-3.1716,-3.0154,-2.4233,-2.0345,-1.9235,-1.7043,-1.4374,-1.1139,-1.2774,-0.5485,1.0403,0.7429,0.9309,1.5539,1.6785,1.9062,2.2362,2.8372,3.2727,3.5915,4.2018,4.6218,4.8748,4.8195,4.8598,4.956,4.9619,4.9659,4.9693,4.9515,4.9235,4.8884,4.8811,4.8722,4.8714,4.8841,4.9977,5.1237,5.1277,5.242,5.3517,5.3137,5.4131,5.5111,5.4738,5.57,5.6688,5.7094,5.6891,5.6766,5.7094,5.6844,5.6288,5.5574,5.5966,5.5919,5.4608,5.452,5.4358,5.3629,5.3396,5.3013,5.2238,5.2014,5.1883,5.1883,5.1883,5.1883,5.1883,5.1883,5.1883,5.1883,5.0798,5.0174,5.0174,4.9023,4.8492,4.8492,4.8492,4.8492,4.8492,4.8492,4.8327,0.0,0.0,0.0,0.0,0.0,0.0,0.0,0.0,0.0,0.0,0.0,-4.6953,-4.6641,0.0,-4.7387,-4.8123,-4.8062,-4.7365,-4.5906,-4.5661,-4.569,-4.5777,-4.4206,-4.314,-4.314,-4.1511,-3.9701,-3.8044,-3.5215,-3.2956,-3.1586,-2.5949,-2.2133,-2.0433,-1.766,-1.5748,-1.5012,-1.3571,-0.6716,0.5272,0.8992,1.26,1.6085,1.8501,2.0168,2.1379,2.7873,3.1765,3.3982,4.036,4.5155,4.8506,4.901,4.9926,5.0912,5.0001,4.9663,4.9657,4.944,4.9069,4.8684,4.8625,4.8497,4.8383,4.8234,4.8904,4.9611,4.9446,5.0414,5.1433,5.1196,5.2138,5.3016,5.2509,5.298,5.3759,5.4467,5.468,5.5019,5.5957,5.5953,5.5658,5.5294,5.403,5.2966,5.2661,5.2909,5.3148,5.3058,5.3073,5.307,5.2969,5.3659,5.3823,5.3034,5.3659,5.3462,5.1982,5.1226,5.0502,4.9779,4.9056,4.8694,4.8694,4.7971,4.7636,4.7636,4.7636,4.7636,4.7636,4.7636,4.7971,0.0,0.0,0.0,0.0,0.0,0.0,0.0,0.0,0.0,0.0,0.0,0.0,0.0,0.0,0.0,-4.7522,-4.7272,-4.6817,-4.6213,-4.6122,-4.6312,-4.6939,-4.5464,-4.4378,-4.4114,-4.2097,-4.0324,-3.9234,-3.6658,-3.4356,-3.2265,-2.7653,-2.3977,-2.1522,-1.7911,-1.6547,-1.7673,-1.1593,-0.6804,-0.3154,1.0606,0.0,1.7185,2.0362,2.1588,2.1591,2.7914,3.162,3.3554,3.9538,4.4149,4.7666,5.0194,5.1803,5.2554,5.0836,4.9905,4.9503,4.9295,4.8923,4.8497,4.8448,4.8188,4.7911,4.7984,4.7948,0.0,4.7984,4.8549,4.9181,4.9181,5.0061,5.0741,5.0228,5.0312,5.0767,5.1475,5.2036,5.2776,5.4122,5.4233,5.4099,5.4099,5.1492,4.9767,5.0903,5.1159,5.1599,5.2717,5.2388,5.2216,5.2739,5.3922,5.4152,5.2936,5.4711,5.4514,5.1259,5.0765,4.9943,4.8558,4.8168,4.8196,4.8459,4.8168,4.7932,4.7636,4.7636,4.7636,4.7636,4.7636,4.8069,0.0,0.0,0.0,0.0,0.0,0.0,0.0,0.0,0.0,0.0,0.0,0.0,0.0,0.0,0.0,0.0,-4.6746,-4.7615,-4.7879,-4.7635,-4.697,-4.5692,-4.5659,-4.5271,-4.4202,-4.2868,-4.1526,-4.0339,-3.7094,-3.5051,-3.4737,-3.0439,0.0,0.0,0.0,-2.0068,-1.9498,-1.2196,-1.0806,-1.4944,0.6804,1.7161,1.7136,1.9171,2.0895,2.2368,2.5591,2.9691,3.4539,4.0429,4.4629,4.7759,5.092,5.305,5.4142,5.2466,5.0798,4.9315,4.8864,0.0,0.0,4.7827,4.7301,4.6847,4.7097,4.699,4.6883,4.7097,4.6832,4.6542,4.6542,4.7205,4.7895,4.7813,4.8898,4.9901,5.0024,5.0109,5.034,5.1094,5.0776,5.0351,5.0251,4.8907,4.8766,5.1418,4.9698,4.9097,5.1715,4.9834,4.8256,4.836,4.8464,0.0,4.8332,5.2015,5.2541,4.8332,5.1555,5.2936,5.1456,5.0207,5.0108,5.139,5.0174,4.8891,4.7636,4.7636,4.7636,4.7636,4.7636,4.6984,0.0,0.0,0.0,0.0,0.0,0.0,0.0,0.0,0.0,0.0,0.0,0.0,0.0,0.0,0.0,0.0,-4.6555,-4.7009,-4.7168,-4.6532,-4.6107,-4.6254,-4.5143,-4.4552,-4.4806,-4.3223,-4.1954,-4.1526,-3.9458,-3.7556,-3.5957,-3.2806,-2.9876,-2.7169,-2.3697,-2.1176,-1.9878,-1.5602,-1.3046,-1.2036,-0.5806,0.0748,0.7385,1.3015,1.8053,2.2535,2.6039,3.0278,3.5019,3.9661,4.4418,4.9077,0.0,0.0,0.0,0.0,5.2873,5.0235,4.9279,4.862,4.8122,4.7557,4.6883,4.6234,4.5978,4.5824,4.5754,4.5859,4.5723,4.5514,4.5514,4.5821,4.5992,4.5608,4.6002,4.6616,4.7146,4.7667,4.8267,4.9413,4.9396,0.0,4.6735,4.5697,4.5834,4.7839,4.7149,4.7083,4.9122,4.8332,4.7965,4.876,4.9582,4.9746,4.8924,5.1292,0.0,0.0,0.0,4.8793,4.8201,4.6787,0.0,0.0,0.0,4.6984,4.636,4.7182,0.0,0.0,4.6609,4.682,0.0,0.0,0.0,0.0,0.0,0.0,0.0,0.0,0.0,0.0,0.0,0.0,0.0,0.0,0.0,0.0,-4.5441,-4.5781,-4.5781,-4.5282,-4.5216,-4.6081,-4.4701,-4.4062,-4.4999,-4.3463,-4.2182,-4.1635,-4.0773,-3.9094,-3.6596,-3.428,-3.1799,-2.9211,-2.5007,-2.2257,-2.1066,-1.8969,-1.573,-1.174,-1.5378,-1.2778,-0.4249,0.9577,1.8506,2.331,2.7583,3.1677,3.562,3.9756,4.4653,4.9871,5.3464,5.457,5.4277,5.4917,5.3494,5.0964,4.9138,4.8258,4.7808,4.6914,4.6133,4.547,4.5201,4.4983,4.4843,4.5029,4.4983,4.4843,4.4843,4.4736,4.4529,4.4031,4.3929,4.4108,4.4762,4.5347,4.6098,4.7267,4.7395,4.6562,4.4298,4.3592,4.3992,4.5801,4.5406,4.5538,4.7406,4.6919,4.682,4.7905,4.8924,4.906,4.7731,4.9659,4.9464,4.5959,4.5895,4.544,4.4272,4.3827,4.3665,4.3824,4.5489,4.613,0.0,0.0,0.0,0.0,0.0,0.0,0.0,0.0,0.0,0.0,0.0,0.0,0.0,0.0,0.0,0.0,0.0,0.0,0.0,0.0,0.0,0.0,0.0,0.0,-4.4183,-4.4619,-4.4655,-4.4094,-4.4367,-4.4724,-4.4755,-4.3518,-4.1963,-4.0279,-3.9856,-3.8916,-3.7021,-3.4447,-3.2963,-3.2817,-2.7299,-2.4192,-2.4192,-2.1184,-1.9659,-1.944,-1.7871,-1.6934,-1.5611,1.2115,2.4822,2.5262,2.998,3.3605,3.6526,4.156,4.5908,4.9555,5.1296,5.2465,5.2985,5.2033,5.158,5.1024,4.785,4.695,4.7051,4.5634,4.4749,4.4314,4.489,4.4654,4.4314,4.4937,4.4654,4.4165,4.4165,4.3789,4.3422,4.3335,4.3368,4.3368,4.3433,4.3433,4.3585,4.4183,4.3904,4.3466,4.3368,4.3368,4.4321,4.7175,4.5176,0.0,4.7274,4.5176,4.3532,4.3565,4.3598,4.3199,4.2293,4.6172,4.6523,4.1395,4.4935,4.5311,4.1145,4.3019,4.4418,4.506,4.7318,4.7811,4.6429,0.0,0.0,0.0,0.0,0.0,0.0,0.0,0.0,0.0,0.0,0.0,0.0,0.0,0.0,0.0,0.0,0.0,0.0,0.0,0.0,0.0,0.0,0.0,0.0,-4.3217,-4.3711,-4.4043,-4.3299,-4.3152,-4.4099,-4.2772,-4.163,-4.1117,-4.0369,-3.9596,-3.8738,-3.5164,-3.3538,-3.4206,-2.9016,-2.6413,-2.6886,-2.3308,-2.1955,-2.2921,-2.2118,-1.9017,-1.3581,0.0438,1.3508,2.5198,2.7882,3.2881,3.9476,4.1199,4.4839,4.9549,5.1836,5.2821,5.3002,5.2402,5.1885,5.1134,4.8486,4.7417,4.6945,4.5374,4.4517,4.4099,4.3996,4.377,4.3499,4.2724,4.2356,4.1921,4.0926,4.0494,4.062,4.1658,4.1921,4.2184,4.3138,4.3368,4.3422,4.3592,4.2706,4.2217,4.3203,4.2546,4.2874,4.5768,4.4584,4.3729,4.4683,4.3959,4.3368,4.3368,4.3368,4.3225,4.2915,4.3686,4.3486,4.1692,4.1674,4.1426,4.0834,4.1212,4.192,4.3021,4.4418,4.4661,4.3728,0.0,0.0,0.0,0.0,0.0,0.0,0.0,0.0,0.0,0.0,0.0,0.0,0.0,0.0,0.0,0.0,0.0,0.0,0.0,0.0,0.0,0.0,0.0,0.0,0.0,0.0,-4.3579,-4.2805,0.0,-4.3492,-4.176,-4.0438,-3.9846,-3.9193,-3.8399,-3.7627,-3.4807,-3.3308,-3.3608,-2.9647,-2.7673,-2.8138,-2.4367,-2.3286,-2.4616,-2.3818,-2.0875,-1.5697,-0.914,0.2421,1.7251,2.0129,2.6413,3.4539,3.457,4.0513,4.9774,5.1361,5.1398,5.0548,5.0494,4.988,4.8908,4.7631,4.6723,4.5996,4.5,4.4402,4.4048,4.3518,4.3498,4.3394,4.229,4.1954,4.1724,4.0686,4.0456,4.0686,4.1724,4.1559,4.148,4.2381,4.2579,4.2743,4.3269,4.233,4.1915,4.3347,4.277,4.2826,4.4649,4.4161,4.3469,4.3379,4.3368,4.3368,4.3368,4.3368,4.3225,4.2882,4.2306,4.1643,4.084,3.9714,3.9378,4.0026,3.9721,3.9948,4.0808,4.1415,4.1297,0.0,0.0,0.0,0.0,0.0,0.0,0.0,0.0,0.0,0.0,0.0,0.0,0.0,0.0,0.0,0.0,0.0,0.0,0.0,0.0,0.0,0.0,0.0,0.0,0.0,0.0,0.0,-4.2638,-4.2674,0.0,0.0,0.0,0.0,-3.6646,-3.6495,-3.5777,-3.4026,-3.3466,-3.2715,-3.183,-2.9445,-2.8261,-2.8411,-2.4998,-2.394,-2.5262,-2.3484,-2.2702,-2.2485,-1.6121,-0.8055,0.1275,0.6252,1.3556,2.2158,2.2853,3.3652,4.9775,4.83,4.6321,4.4366,4.5965,4.5797,4.4827,4.5347,4.4852,4.4013,4.4407,4.4218,4.3796,4.3287,4.3485,0.0,0.0,4.3138,4.3138,4.3138,4.3138,4.317,4.3236,4.2184,4.1249,4.1315,4.1296,4.1625,4.2809,4.243,4.233,4.3553,0.0,4.3779,4.3968,4.3873,4.3571,4.3324,4.3236,4.3214,4.3182,4.3247,4.2882,4.2004,4.1856,4.0931,3.8753,3.9062,3.9087,3.8636,3.8572,3.8631,3.8753,3.8797,0.0,0.0,0.0,0.0,0.0,0.0,0.0,0.0,0.0,0.0,0.0,0.0,0.0,0.0,0.0,0.0,0.0,0.0,0.0,0.0,0.0,0.0,0.0,0.0,0.0,0.0,-3.7684,-3.9361,-4.0345,-3.9603,-3.914,0.0,0.0,0.0,0.0,0.0,0.0,-3.5826,-3.3635,-3.3544,-3.606,-3.2659,-3.1913,-3.4339,-3.0169,-2.8716,-3.01,-2.7688,-2.7023,-2.7831,-2.57,-2.3201,-2.0598,-2.098,-0.887,1.1794,2.0864,3.4529,4.78,2.5851,1.7567,1.9959,3.6347,4.3672,4.5294,4.4277,4.3061,4.198,4.2072,4.1241,4.0181,4.0047,0.0,0.0,0.0,0.0,4.0508,4.0097,3.9996,4.0292,4.1461,4.1461,4.1494,4.2579,4.2273,4.1121,3.8863,4.0026,4.1524,4.1829,4.1356,0.0,4.4675,4.2712,4.1115,4.1704,4.1724,4.1479,4.0839,4.1719,4.1799,4.0537,3.9843,3.8868,3.7351,3.7395,3.7595,3.7964,3.7612,3.8091,3.9529,0.0,0.0,0.0,0.0,0.0,0.0,0.0,0.0,0.0,0.0,0.0,0.0,0.0,0.0,0.0,0.0,0.0,0.0,0.0,0.0,0.0,0.0,0.0,0.0,0.0,0.0,0.0,-3.466,-3.6448,-3.7183,-3.6669,-3.6221,0.0,0.0,0.0,0.0,0.0,0.0,0.0,0.0,0.0,-3.3769,-3.2021,-3.201,-3.3818,-3.0797,-2.9901,-3.1155,-2.9149,-2.896,-3.0349,-2.9286,-2.9476,-3.0739,-3.1683,-2.3321,-0.7715,0.9575,1.6255,1.4747,0.0,0.0,0.0,0.0,3.1039,3.5714,4.0008,4.1544,4.1481,4.0617,0.0,0.0,0.0,0.0,0.0,0.0,0.0,3.9329,3.9201,3.9042,3.9241,4.0803,4.0672,4.0606,4.2085,4.0722,3.8866,3.7518,3.8308,3.9527,4.0388,4.0641,0.0,0.0,0.0,4.0374,4.0604,4.0125,3.9702,3.9428,4.0172,4.0334,3.9525,3.8782,3.799,3.7203,3.7174,3.7198,3.7322,3.7316,3.7382,0.0,0.0,0.0,0.0,0.0,0.0,0.0,0.0,0.0,0.0,0.0,0.0,0.0,0.0,0.0,0.0,0.0,0.0,0.0,0.0,0.0,0.0,0.0,0.0,0.0,0.0,0.0,0.0,0.0,-3.3577,-3.3785,0.0,0.0,0.0,0.0,0.0,0.0,0.0,0.0,0.0,0.0,0.0,0.0,0.0,-3.0082,-3.0512,-2.9422,-2.9406,-3.0558,-2.9366,-2.9857,-3.1701,-2.9708,-3.0577,-3.3541,-3.2265,0.0,-2.7597,-0.6717,0.0,0.0,0.0,0.0,0.0,0.0,0.0,0.0,0.0,0.0,0.0,0.0,0.0,0.0,0.0,0.0,0.0,0.0,0.0,0.0,0.0,0.0,3.9307,4.0624,3.9799,3.9158,4.0606,3.8386,3.6472,3.7455,3.7231,3.7345,0.0,0.0,0.0,0.0,0.0,0.0,3.9658,3.8498,3.7856,3.8188,3.8368,3.8401,3.8205,3.7792,3.7455,3.719,3.7591,3.7508,3.6647,3.7142,0.0,0.0,0.0,0.0,0.0,0.0,0.0,0.0,0.0,0.0,0.0,0.0,0.0,0.0,0.0,0.0,0.0,0.0,0.0,0.0,0.0,0.0,0.0,0.0,0.0,0.0,0.0,0.0,0.0,0.0,0.0,0.0,0.0,0.0,0.0,0.0,0.0,0.0,0.0,0.0,0.0,0.0,0.0,0.0,0.0,0.0,0.0,0.0,0.0,0.0,-3.0581,-3.1515,-3.4285,-3.1347,-3.1778,-3.4547,-3.0915,-2.8182,-2.6089,-2.1783,0.0,0.0,0.0,0.0,0.0,0.0,0.0,0.0,0.0,0.0,0.0,0.0,0.0,0.0,0.0,0.0,0.0,0.0,0.0,0.0,0.0,0.0,3.9457,3.9323,3.8661,3.8295,3.9076,0.0,0.0,0.0,0.0,0.0,0.0,0.0,0.0,0.0,0.0,0.0,3.8061,3.7516,3.6349,3.4683,3.5603,3.5844,3.4628,3.5284,3.5409,3.4375,3.6981,3.7749,0.0,0.0,0.0,0.0,0.0,0.0,0.0,0.0,0.0,0.0,0.0,0.0,0.0,0.0,0.0,0.0,0.0,0.0,0.0,0.0,0.0,0.0,0.0,0.0,0.0,0.0,0.0,0.0,0.0,0.0,0.0,0.0,0.0,0.0,0.0,0.0,0.0,0.0,0.0,0.0,0.0,0.0,0.0,0.0,0.0,0.0,0.0,0.0,0.0,0.0,0.0,0.0,0.0,0.0,0.0,0.0,0.0,0.0,-2.9443,-2.6586,0.0,0.0,0.0,0.0,0.0,0.0,0.0,0.0,0.0,0.0,0.0,0.0,0.0,0.0,0.0,0.0,0.0,0.0,0.0,0.0,0.0,0.0,0.0,0.0,0.0,0.0,0.0,0.0,0.0,0.0,0.0,0.0,0.0,0.0,0.0,0.0,0.0,0.0,0.0,0.0,3.5679,3.5341,3.4597,3.3281,3.374,3.3863,3.3189,3.3964,3.4219,3.3704,3.5032,0.0,0.0,0.0,0.0,0.0,0.0,0.0,0.0,0.0,0.0,0.0,0.0,0.0,0.0,0.0,0.0,0.0,0.0,0.0,0.0,0.0,0.0,0.0,0.0,0.0,0.0,0.0,0.0,0.0,0.0,0.0,0.0,0.0,0.0,0.0,0.0,0.0,0.0,0.0,0.0,0.0,0.0,0.0,0.0,0.0,0.0,0.0,0.0,0.0,0.0,0.0,0.0,0.0,0.0,0.0,0.0,0.0,0.0,0.0,-2.7385,-2.4906,0.0,0.0,0.0,0.0,0.0,0.0,0.0,0.0,0.0,0.0,0.0,0.0,0.0,0.0,0.0,0.0,0.0,0.0,0.0,0.0,0.0,0.0,0.0,0.0,0.0,0.0,0.0,0.0,0.0,0.0,0.0,0.0,0.0,0.0,0.0,0.0,0.0,0.0,0.0,0.0,3.4216,3.3894,3.3498,3.2708,3.2414,3.2353,3.2577,3.3369,3.3809,3.3809,3.3898,0.0,0.0,0.0,0.0,0.0,0.0,0.0,0.0,0.0,0.0,0.0,0.0,0.0,0.0,0.0,0.0,0.0,0.0,0.0,0.0,0.0,0.0,0.0,0.0,0.0,0.0,0.0,0.0,0.0,0.0,0.0,0.0,0.0,0.0,0.0,0.0,0.0,0.0,0.0,0.0,0.0,0.0,0.0,0.0,0.0,0.0,0.0,0.0,0.0,0.0,0.0,0.0,0.0,0.0,0.0,0.0,0.0,0.0,0.0,0.0,0.0,0.0,0.0,0.0,0.0,0.0,0.0,0.0,0.0,0.0,0.0,0.0,0.0,0.0,0.0,0.0,0.0,0.0,0.0,0.0,0.0,0.0,0.0,0.0,0.0,0.0,0.0,0.0,0.0,0.0,0.0,0.0,0.0,0.0,0.0,0.0,0.0,0.0,0.0,0.0,0.0,3.5482,3.4879,3.3828,3.2605,3.1551,3.1317,3.2371,3.3656,3.4323,3.4323,0.0,0.0,0.0,0.0,0.0,0.0,0.0,0.0,0.0,0.0,0.0,0.0,0.0,0.0,0.0,0.0,0.0,0.0,0.0,0.0,0.0,0.0,0.0,0.0,0.0,0.0,0.0,0.0,0.0,0.0,0.0,0.0,0.0,0.0,0.0,0.0,0.0,0.0,0.0,0.0,0.0,0.0,0.0,0.0,0.0,0.0,0.0,0.0,0.0,0.0,0.0,0.0,0.0,0.0,0.0,0.0,0.0,0.0,0.0,0.0,0.0,0.0,0.0,0.0,0.0,0.0,0.0,0.0,0.0,0.0,0.0,0.0,0.0,0.0,0.0,0.0,0.0,0.0,0.0,0.0,0.0,0.0,0.0,0.0,0.0,0.0,0.0,0.0,0.0,0.0,0.0,0.0,0.0,0.0,0.0,0.0,0.0,0.0,0.0,0.0,0.0,0.0,3.3091,3.3149,3.3065,3.2543,3.141,3.0914,3.1381,3.2514,3.2709,3.1449,0.0,0.0,0.0,0.0,0.0,0.0,0.0,0.0,0.0,0.0,0.0,0.0,0.0,0.0,0.0,0.0,0.0,0.0,0.0,0.0,0.0,0.0,0.0,0.0,0.0,0.0,0.0,0.0,0.0,0.0,0.0,0.0,0.0,0.0,0.0,0.0,0.0,0.0,0.0,0.0,0.0,0.0,0.0,0.0,0.0,0.0,0.0,0.0,0.0,0.0,0.0,0.0,0.0,0.0,0.0,0.0,0.0,0.0,0.0,0.0,0.0,0.0,0.0,0.0,0.0,0.0,0.0,0.0,0.0,0.0,0.0,0.0,0.0,0.0,0.0,0.0,0.0,0.0,0.0,0.0,0.0,0.0,0.0,0.0,0.0,0.0,0.0,0.0,0.0,0.0,0.0,0.0,0.0,0.0,0.0,0.0,0.0,0.0,0.0,0.0,0.0,0.0,3.17,3.2472,3.3036,3.3036,3.1963,3.1381,3.173,3.2194,3.1722,3.0007,0.0,0.0,0.0,0.0,0.0,0.0,0.0,0.0,0.0,0.0,0.0,0.0,0.0,0.0,0.0,0.0,0.0,0.0,0.0,0.0,0.0,0.0,0.0,0.0,0.0,0.0,0.0,0.0,0.0,0.0,0.0,0.0,0.0,0.0,0.0,0.0,0.0,0.0,0.0,0.0,0.0,0.0,0.0,0.0,0.0,0.0,0.0,0.0,0.0,0.0,0.0,0.0,0.0,0.0,0.0,0.0,0.0,0.0,0.0,0.0,0.0,0.0,0.0,0.0,0.0,0.0,0.0,0.0,0.0,0.0,0.0,0.0,0.0,0.0,0.0,0.0,0.0,0.0,0.0,0.0,0.0,0.0,0.0,0.0,0.0,0.0,0.0,0.0,0.0,0.0,0.0,0.0,0.0,0.0,0.0,0.0,0.0,0.0,0.0,0.0,0.0,0.0,3.2365,3.3588,3.4372,3.4372,3.3239,3.2978,3.4226,3.321,3.2155,0.0,0.0,0.0,0.0,0.0,0.0,0.0,0.0,0.0,0.0,0.0,0.0,0.0,0.0,0.0,0.0,0.0,0.0,0.0,0.0,0.0,0.0,0.0,0.0,0.0,0.0,0.0,0.0,0.0,0.0,0.0,0.0,0.0,0.0,0.0,0.0,0.0,0.0,0.0,0.0,0.0,0.0,0.0,0.0,0.0,0.0,0.0,0.0,0.0,0.0,0.0,0.0,0.0,0.0,0.0,0.0,0.0,0.0,0.0,0.0,0.0,0.0,0.0,0.0,0.0,0.0,0.0,0.0,0.0,0.0,0.0,0.0,0.0,0.0,0.0,0.0,0.0,0.0,0.0,0.0,0.0,0.0,0.0,0.0,0.0,0.0,0.0,0.0,0.0,0.0,0.0,0.0,0.0,0.0,0.0,0.0,0.0,0.0,0.0,0.0,0.0,0.0,0.0,2.9826,3.0536,3.1087,3.1459,3.0796,3.0267,3.0169,2.9776,2.9249,2.8436,0.0,0.0,0.0,0.0,0.0,0.0,0.0,0.0,0.0,0.0,0.0,0.0,0.0,0.0,0.0,0.0,0.0,0.0,0.0,0.0,0.0,0.0,0.0,0.0,0.0,0.0,0.0,0.0,0.0,0.0,0.0,0.0,0.0,0.0,0.0,0.0,0.0,0.0,0.0,0.0,0.0,0.0,0.0,0.0,0.0,0.0,0.0,0.0,0.0,0.0,0.0,0.0,0.0,0.0,0.0,0.0,0.0,0.0,0.0,0.0,0.0,0.0,0.0,0.0,0.0,0.0,0.0,0.0,0.0,0.0,0.0,0.0,0.0,0.0,0.0,0.0,0.0,0.0,0.0,0.0,0.0,0.0,0.0,0.0,0.0,0.0,0.0,0.0,0.0,0.0,0.0,0.0,0.0,0.0,0.0,0.0,0.0,0.0,0.0,0.0,0.0,0.0,0.0,2.946,3.0065,3.0112,2.9858,2.9482,2.8985,2.8738,2.8188,2.7085,0.0,0.0,0.0,0.0,0.0,0.0,0.0,0.0,0.0,0.0,0.0,0.0,0.0,0.0,0.0,0.0,0.0,0.0,0.0,0.0,0.0,0.0,0.0,0.0,0.0,0.0,0.0,0.0,0.0,0.0,0.0,0.0,0.0,0.0,0.0,0.0,0.0,0.0,0.0,0.0,0.0,0.0,0.0,0.0,0.0,0.0,0.0,0.0,0.0,0.0,0.0,0.0,0.0,0.0,0.0,0.0,0.0,0.0,0.0,0.0,0.0,0.0,0.0,0.0,0.0,0.0,0.0,0.0,0.0,0.0,0.0,0.0,0.0,0.0,0.0,0.0,0.0,0.0,0.0,0.0,0.0,0.0,0.0,0.0,0.0,0.0,0.0,0.0,0.0,0.0,0.0,0.0,0.0,0.0,0.0,0.0,0.0,0.0,0.0,0.0,0.0,0.0,0.0,2.9784,3.0723,3.002,2.9929,2.9993,2.9993,2.955,2.8615,2.7149,2.7692,0.0,0.0,0.0,0.0,0.0,0.0,0.0,0.0,0.0,0.0,0.0,0.0,0.0,0.0,0.0,0.0,0.0,0.0,0.0,0.0,0.0,0.0,0.0,0.0,0.0,0.0,0.0,0.0,0.0,0.0,0.0,0.0,0.0,0.0,0.0,0.0,0.0,0.0,0.0,0.0,0.0,0.0,0.0,0.0,0.0,0.0,0.0,0.0,0.0,0.0,0.0,0.0,0.0,0.0,0.0,0.0,0.0,0.0,0.0,0.0,0.0,0.0,0.0,0.0,0.0,0.0,0.0,0.0,0.0,0.0,0.0,0.0,0.0,0.0,0.0,0.0,0.0,0.0,0.0,0.0,0.0,0.0,0.0,0.0,0.0,0.0,0.0,0.0,0.0,0.0,0.0,0.0,0.0,0.0,0.0,0.0,0.0,0.0,0.0,0.0,0.0,0.0,2.7317,2.796,2.7795,2.8277,2.8653,2.8653,2.8534,2.8065,2.7085,2.7213,0.0,0.0,0.0,0.0,0.0,0.0,0.0,0.0,0.0,0.0,0.0,0.0,0.0,0.0,0.0,0.0,0.0,0.0,0.0,0.0,0.0,0.0,0.0,0.0,0.0,0.0,0.0,0.0,0.0,0.0,0.0,0.0,0.0,0.0,0.0,0.0,0.0,0.0,0.0,0.0,0.0,0.0,0.0,0.0,0.0,0.0,0.0,0.0,0.0,0.0,0.0,0.0,0.0,0.0,0.0,0.0,0.0,0.0,0.0,0.0,0.0,0.0,0.0,0.0,0.0,0.0,0.0,0.0,0.0,0.0,0.0,0.0,0.0,0.0,0.0,0.0,0.0,0.0,0.0,0.0,0.0,0.0,0.0,0.0,0.0,0.0,0.0,0.0,0.0,0.0,0.0,0.0,0.0,0.0,0.0,0.0,0.0,0.0,0.0,0.0,0.0,0.0,2.5782,2.64,2.64,2.6764,2.7021,2.7021,2.7377,2.7251,2.6465,2.6001,0.0,0.0,0.0,0.0,0.0,0.0,0.0,0.0,0.0,0.0,0.0,0.0,0.0,0.0,0.0,0.0,0.0,0.0,0.0,0.0,0.0,0.0,0.0,0.0,0.0,0.0,0.0,0.0,0.0,0.0,0.0,0.0,0.0,0.0,0.0,0.0,0.0,0.0,0.0,0.0,0.0,0.0,0.0,0.0,0.0,0.0,0.0,0.0,0.0,0.0,0.0,0.0,0.0,0.0,0.0,0.0,0.0,0.0,0.0,0.0,0.0,0.0,0.0,0.0,0.0,0.0,0.0,0.0,0.0,0.0,0.0,0.0,0.0,0.0,0.0,0.0,0.0,0.0,0.0,0.0,0.0,0.0,0.0,0.0,0.0,0.0,0.0,0.0,0.0,0.0,0.0,0.0,0.0,0.0,0.0,0.0,0.0,0.0,0.0,0.0,0.0,0.0,0.0,2.5453,2.5453,2.5722,2.5897,2.603,2.6764,2.6752,2.5651,0.0,0.0,0.0,0.0,0.0,0.0,0.0,0.0,0.0,0.0,0.0,0.0,0.0,0.0,0.0,0.0,0.0,0.0,0.0,0.0,0.0,0.0,0.0,0.0,0.0,0.0,0.0,0.0,0.0,0.0,0.0,0.0,0.0,0.0,0.0,0.0,0.0,0.0,0.0,0.0,0.0,0.0,0.0,0.0,0.0,0.0,0.0,0.0,0.0,0.0,0.0,0.0,0.0,0.0,0.0,0.0,0.0,0.0,0.0,0.0,0.0,0.0,0.0,0.0,0.0,0.0,0.0,0.0,0.0,0.0,0.0,0.0,0.0,0.0,0.0,0.0,0.0,0.0,0.0,0.0,0.0,0.0,0.0,0.0,0.0,0.0,0.0,0.0,0.0,0.0,0.0,0.0,0.0,0.0,0.0,0.0,0.0,0.0,0.0,0.0,0.0,0.0,0.0,0.0,2.4521,2.4521,2.5914,2.7085,2.7754,2.7941,2.7243,2.546,0.0,0.0,0.0,0.0,0.0,0.0,0.0,0.0,0.0,0.0,0.0,0.0,0.0,0.0]}],[{"header":{"parameterUnit":"kt","parameterCategory":2,"dx":1,"dy":1,"la1":29.285339999999998,"la2":30.599998999999997,"lo1":-89.70041500000002,"lo2":-87.6738589999976,"nx":112,"ny":82,"refTime":"2022-10-16T12:00:00:Z","depth":0,"parameterNumber":2,"parameterNumberName":"V-component_of_WINDS"},"data":[0.922,1.2453,1.5464,0.5303,0.4705,0.4245,-0.4799,-0.5838,-0.4786,-0.4731,-0.5928,-0.6143,-0.3205,-0.4389,0.0,0.0,0.0,0.0,0.0,-0.5756,0.0,0.0,0.0,0.0,0.0,0.0,0.0,0.0,0.0,0.0,0.0,1.0258,1.0559,1.0443,1.0559,1.0839,1.1579,1.1426,1.1583,1.219,1.1278,1.0836,1.0556,0.4721,0.5028,1.01,1.1642,1.2243,1.2203,1.2196,1.2183,1.2321,1.2321,1.2321,1.2321,1.2321,1.2321,1.2321,1.2321,1.2321,1.2321,1.2321,1.2321,1.2321,1.2321,1.2321,1.2321,1.2321,1.2321,1.2321,1.2321,1.2321,1.2471,1.3058,1.3651,1.4092,1.4241,1.5277,1.5426,1.3651,1.5277,1.69,1.6308,1.7186,1.807,1.807,1.7048,1.7324,2.0525,2.0961,2.1708,2.3762,2.3918,2.3918,2.3918,2.3918,2.3918,2.3918,2.4308,2.471,2.5087,2.5671,2.5788,2.5399,2.5373,2.4983,2.4217,2.4009,2.3918,2.3918,2.3918,2.3918,0.1611,0.3692,0.7105,0.0895,-0.1877,-0.453,-1.0222,-1.0285,-0.8983,-0.8151,-0.774,-0.7542,-0.7542,-0.7542,0.0,0.0,0.0,0.0,0.0,0.0,0.0,0.0,0.0,0.0,0.0,0.0,0.0,0.0,0.331,0.0,0.9901,1.0331,1.0443,1.0463,0.9384,0.9633,1.1473,1.1606,1.1767,1.2216,1.2243,1.0865,0.7951,0.2442,0.2901,0.8264,1.1053,1.2276,1.2236,1.2223,1.2203,1.2183,1.2183,1.2177,1.2321,1.2183,1.2177,1.2321,1.2321,1.2321,1.2321,1.2321,1.2321,1.2321,1.2321,1.2321,1.2321,1.2321,1.2321,1.2321,1.2321,1.2321,1.2321,1.2321,1.3208,1.395,1.3358,1.4689,1.5574,1.3651,1.483,1.5863,1.5277,1.5723,1.616,1.616,1.4979,1.5566,1.9516,1.9954,2.0972,2.3619,2.3918,2.3918,2.3918,2.3918,2.3827,2.3646,2.3802,2.3996,2.4336,2.4957,2.5087,2.465,2.5074,2.4892,2.3918,2.3918,2.3918,2.3918,2.3918,2.3918,-0.6818,-0.8667,-0.722,-0.599,-0.951,-1.3435,-1.3726,-1.1173,-0.8696,-0.8612,-0.8696,-0.8696,-0.8696,-0.8696,0.0,0.0,0.0,0.0,0.0,0.0,0.0,0.0,0.0,0.0,0.0,-0.7992,-0.7767,0.0,0.1703,0.5214,1.0236,1.0333,1.0327,1.0216,0.6907,0.7234,1.1232,1.1815,1.2109,1.2078,1.1972,0.7642,0.0,0.0,0.0,0.0458,0.8421,1.1991,1.2302,1.2256,1.2223,1.2045,1.2203,1.219,1.2019,1.2196,1.219,1.2177,1.2177,1.2177,1.2321,1.2321,1.2321,1.2321,1.2321,1.2321,1.2321,1.2321,1.2321,1.2321,1.2321,1.2321,1.2321,1.2321,1.2321,1.2765,1.4689,1.3651,1.2908,1.4681,1.3651,1.2915,1.4689,1.3508,1.2321,1.2321,1.2321,1.3651,1.7481,1.7923,1.9527,2.3475,2.3762,2.3762,2.3918,2.3918,2.3685,2.3139,2.3594,2.3646,2.3126,2.4284,2.4464,2.3918,2.4464,2.4477,2.3918,2.3918,2.3918,2.3918,2.3918,2.3918,-1.9015,-1.3452,-0.8197,-1.321,-1.1136,-0.8883,-1.2793,-1.2889,-1.1765,-1.013,-1.0987,0.0,0.0,0.0,-1.0768,0.0,0.0,-0.8342,-0.7642,-0.7281,-0.6661,0.0,0.0,0.0,0.0,-0.7637,-0.6402,0.6412,0.5662,0.6299,1.0236,0.8089,0.5464,0.2993,0.4426,0.7376,1.1983,0.9218,0.7687,0.7752,0.4718,0.2132,0.0,0.0,0.0,0.0153,0.2442,0.6728,1.2302,1.2289,1.0398,0.8055,1.1133,1.0359,0.8051,1.1139,1.2223,1.2223,1.2223,1.221,1.219,1.2177,1.2321,1.2321,1.2321,1.2321,1.2321,1.2321,1.2321,1.2321,1.2321,1.2321,1.2321,1.2321,1.2321,1.2471,1.2915,1.38,1.4099,1.3208,1.38,1.4099,1.3208,1.2615,1.2321,1.2321,1.2321,1.3208,1.5566,1.6011,1.7472,2.1407,2.1841,2.243,2.3762,2.3918,2.3853,2.3698,2.3438,2.3412,2.3672,2.3594,2.3659,2.3905,2.4074,2.4074,2.3918,2.3918,2.3918,2.3918,2.3918,2.3918,-2.3829,-1.8437,-1.3881,-1.775,-1.4828,-1.161,-1.38,-1.3934,-1.3105,-1.1394,0.0,0.0,0.0,0.0,0.0,0.0,-1.013,-0.8295,-0.6912,-0.7261,-0.645,-0.2894,0.0,0.0,0.0,-0.7486,-0.7153,0.5122,0.5576,0.5501,0.6021,0.4169,0.2082,0.0,0.1955,0.2931,0.264,0.3232,0.3459,0.3445,0.1061,0.0,0.0,0.0,0.0,0.0,0.0,0.2749,0.7037,0.7037,0.7638,0.8541,0.747,0.7778,0.9001,1.1327,1.1163,0.9597,0.9597,0.9592,0.9889,1.1731,1.219,1.2183,1.2177,1.2321,1.2321,1.2321,1.2321,1.2321,1.2321,1.2321,1.2321,1.2321,1.2321,1.2321,1.2321,1.3208,1.3651,1.2471,1.3208,1.3501,1.2464,1.2321,1.2321,1.2321,1.2321,1.2908,1.4979,1.5128,1.6586,2.0525,2.0961,2.1841,2.3762,2.3918,2.3918,2.3918,2.3607,2.3464,2.3555,2.3243,2.323,2.3555,2.3789,2.3918,2.3918,2.3918,2.3918,2.3918,2.3918,2.3918,-2.4372,-2.3119,-2.1472,-2.0453,-1.9365,-1.8132,-1.6418,0.0,-1.4027,-1.3068,0.0,-1.2521,-1.4851,0.0,0.0,-1.3285,-1.0825,-0.7898,-0.5632,-0.8037,-0.7566,-0.0798,0.0,-0.0362,-0.1086,-0.7758,-0.8667,-0.0655,0.2133,0.2272,-0.0393,-0.0261,-0.013,-0.052,-0.1045,-0.3978,-0.9847,-0.4042,-0.1144,-0.1177,-0.0451,0.0,0.0,0.0,0.0,0.0,0.0,0.0,0.0,0.0,0.4276,1.0122,0.2901,0.4429,1.09,1.09,0.8555,0.5314,0.5314,0.5924,0.7298,1.0999,1.1914,1.158,1.2177,1.2177,1.2321,1.2321,1.2321,1.2321,1.2321,1.2321,1.2321,1.2321,1.2321,1.2321,1.2321,1.2321,1.2321,1.2321,1.2321,1.2321,1.2321,1.2321,1.2321,1.2321,1.2321,1.2908,1.454,1.4838,1.6299,1.9943,2.0525,2.1419,2.3462,2.3762,2.3918,2.3918,2.3918,2.3685,2.3191,2.3113,2.3048,2.2983,2.3464,2.375,2.3815,2.3879,2.3918,2.3918,2.3918,2.3918,-2.7457,-2.5432,-2.3524,-2.2558,-2.0917,-1.9666,0.0,0.0,0.0,-1.7956,-1.8335,-1.8605,-1.8166,-1.6683,-1.5081,-1.3854,-1.2659,-1.0499,-0.6343,-1.3045,-1.3745,-0.1423,0.0,-0.2237,-0.7891,-0.9947,-0.7859,-0.0521,-0.459,-0.6568,-0.4299,-0.1561,-0.1301,-0.4163,-0.7051,-0.7812,-0.6246,-0.7676,-0.8459,-0.841,-0.2661,0.0,0.0,0.0,0.0,0.0,0.0,0.0,0.0,0.0,0.0916,0.2137,0.0611,0.0916,0.2289,0.2289,0.1831,0.1219,0.1219,0.5493,1.1199,1.1978,0.9932,0.7899,1.1272,1.2183,1.2321,1.2321,1.2321,1.2321,1.2321,1.2321,1.2321,1.2321,1.2321,1.2321,1.2321,1.2321,1.2321,1.2321,1.2321,1.2321,1.2321,1.2321,1.2321,1.2321,1.2321,1.2321,1.2765,1.2765,1.3651,1.6002,1.7766,1.938,2.1407,2.3019,2.3918,2.3918,2.3918,2.3866,2.3763,2.3321,2.2854,2.2386,2.2477,2.2763,2.323,2.3685,2.3918,2.3918,2.3918,2.3918,-2.9101,-2.7374,-2.5663,-2.3988,-2.2902,0.0,0.0,-2.1207,-2.0785,-1.9556,-1.9263,-1.9398,-1.9554,-1.7559,-1.5819,-1.5763,-1.485,-1.3381,-1.1418,-1.3677,-1.2854,-0.5971,-0.5124,-0.6505,-1.0183,-0.8844,-0.6392,-0.2862,-0.758,-0.89,-0.5464,-0.5208,-0.6125,-0.782,-0.9549,-0.9615,-0.7846,-0.9624,-0.9554,-0.7794,-0.6031,-0.5269,-0.5098,-0.1648,0.0,0.0,0.0,0.0,0.0,0.0,0.0,0.0,0.0,0.0,0.0,0.0,0.0,0.0,0.0,0.2749,0.6728,1.0912,1.0889,0.9471,1.163,1.2223,1.2183,1.2177,1.2321,1.2321,1.2321,1.2321,1.2321,1.2321,1.2321,1.2321,1.2321,1.2321,1.2321,1.2321,1.2321,1.2321,1.2321,1.2321,1.2321,1.2321,1.2321,1.2321,1.2321,1.2321,1.3065,1.4979,1.6011,1.7766,2.067,2.1853,2.2875,2.3918,2.3918,2.3789,2.3503,2.3217,2.2672,2.1802,2.2062,2.249,2.3074,2.3347,2.3646,2.3918,2.3918,2.3918,-3.1021,-2.9756,-2.834,-2.6399,-2.565,0.0,-2.3317,-2.3312,-2.3073,-2.116,-2.0071,-1.9743,-2.0836,-1.8403,-1.666,-1.7893,-1.7402,-1.6878,-1.7293,-1.4398,-1.2343,-1.2301,-1.1532,-1.1067,-1.1396,-0.8348,-0.6246,-0.6246,-0.8883,-0.9278,-0.6376,-0.9013,-1.0469,-1.0449,-1.0463,-1.0469,-1.0449,-1.0435,-0.9074,-0.6242,-0.9201,-1.0458,-1.028,-0.4674,-0.1333,-0.0152,-0.1516,-0.1216,0.0,0.0,0.0,0.0,0.0,0.0,0.0,0.0,0.0,0.0,0.0,0.0,0.1069,0.7663,1.0918,1.2308,1.2302,1.2269,1.2216,1.219,1.2183,1.2177,1.2321,1.2321,1.2321,1.2321,1.2321,1.2321,1.2321,1.2321,1.2321,1.2321,1.2321,1.2321,1.2321,1.2321,1.2321,1.2321,1.2321,1.2321,1.2321,1.2321,1.2915,1.4391,1.4979,1.6595,2.0089,2.0827,2.1853,2.3762,2.3918,2.3711,2.3256,2.3126,2.2594,2.1555,2.1867,2.2321,2.2906,2.2906,2.3256,2.3918,2.3918,2.3918,-3.523,-3.3987,-3.2143,-3.1677,-3.0261,0.0,-2.9254,-2.8015,-2.673,-2.6114,-2.5011,-2.4054,-2.3906,-2.2531,-2.0891,-1.9251,-2.0511,-2.1377,-2.0232,-1.9778,-1.9465,-1.9497,-1.5918,-1.3844,-1.4843,-1.1906,-0.9926,-0.9926,-1.032,-1.032,-0.99,-1.0314,-1.0449,-1.0552,-1.0559,-1.0559,-1.0552,-1.0476,-1.0364,-0.9929,-1.0266,-1.0445,-1.044,-0.9719,-0.5921,-0.0296,-0.6669,-0.5849,0.0,0.0,0.0,0.0,0.0,0.0,0.0,0.0,0.0,0.0,0.0,0.0,0.0153,0.1069,0.6274,1.2176,1.2308,1.2295,1.2282,1.2243,1.2216,1.2196,1.2177,1.2321,1.2321,1.2321,1.2321,1.2321,1.2321,1.2321,1.2321,1.2321,1.2321,1.2321,1.2321,1.2321,1.2321,1.2321,1.2321,1.2321,1.2321,1.2321,1.2321,1.2615,1.4092,1.6011,1.8218,1.9954,2.1853,2.3762,2.3918,2.3879,2.3827,2.3334,2.2776,2.2126,2.1685,2.1737,2.2308,2.2308,2.2854,2.3918,2.3918,2.3918,-3.5373,-3.5334,-3.4893,-3.4292,0.0,0.0,-3.2119,-3.0509,-2.903,-2.8837,-2.7686,-2.6593,-2.6267,-2.5099,-2.3463,-2.1147,-2.3401,-2.4673,-2.2242,-2.2678,-2.2218,-1.9477,-1.9034,-1.7698,-1.443,-1.3595,-1.2552,-1.0694,-1.1446,-1.1944,-1.1937,-1.2959,-1.3468,-1.346,-1.244,-1.1937,-1.1937,-1.0938,-1.0496,-1.0483,-1.0509,-1.0538,-1.0408,-0.831,-0.7026,-0.6346,-0.9254,-0.8772,-0.6142,-0.6135,-0.3736,0.0,0.0,0.0,0.0,0.0,0.0,0.0,0.0,0.0,0.0,0.0,0.2291,0.5047,0.5044,0.8421,1.2302,1.2282,1.2243,1.2196,1.2177,1.2183,1.219,1.2177,1.2321,1.2321,1.2321,1.2321,1.2321,1.2321,1.2321,1.2321,1.2321,1.2321,1.2321,1.2321,1.2321,1.2321,1.2321,1.2321,1.2321,1.2321,1.2908,1.4241,1.616,1.8208,2.01,2.2142,2.3319,2.3763,2.3438,2.288,2.2295,2.1737,2.1166,2.1153,2.1724,2.2049,2.2451,2.2932,2.3607,2.3918,-3.4792,0.0,0.0,0.0,0.0,0.0,-3.5396,-3.3792,-3.2278,-3.1297,-3.0283,-2.9365,-2.8641,-2.7696,-2.647,-2.4955,-2.6699,-2.7425,-2.5142,-2.5105,-2.4171,-2.0996,-2.1911,-2.0876,-1.6128,-1.6356,-1.5483,-1.279,-1.367,-1.4177,-1.3697,-1.4836,-1.5602,-1.5602,-1.395,-1.3061,-1.3061,-1.1303,-1.0552,-1.0552,-1.0436,-1.0561,-1.0366,-0.7924,-0.8056,-1.043,-0.9463,-0.955,-1.0459,-1.0518,-0.6295,0.0,0.0,0.0,0.0,0.0,0.0,0.0,0.0,0.0,0.0,0.0,0.0,0.0,0.0,0.4124,0.935,1.1534,1.2276,1.2229,1.221,1.221,1.2203,1.2183,1.2177,1.2321,1.2321,1.2321,1.2321,1.2321,1.2321,1.2321,1.2321,1.2321,1.2321,1.2321,1.2321,1.2321,1.2321,1.2321,1.2321,1.2321,1.2321,1.3058,1.4979,1.6891,1.8941,2.0816,2.2875,2.3724,2.3321,2.2607,2.2023,2.1607,2.0893,2.0861,2.114,2.1711,2.2062,2.223,2.3217,2.3763,0.0,0.0,0.0,-4.1377,-4.214,-4.2151,-4.0101,-3.8785,-3.7191,-3.4175,-3.354,-3.2955,-3.1183,-3.0721,-3.0986,-3.1543,-3.049,-2.9577,-2.9444,-2.6992,-2.571,-2.6974,-2.4474,-2.2709,-2.2469,-2.0983,-1.9392,-1.7833,-1.772,-1.7134,-1.5592,-1.5476,-1.5602,-1.5602,-1.395,-1.3061,-1.3061,-1.1303,-1.0552,-1.0552,-1.0552,-1.0436,-1.0469,-1.0333,-1.0371,-1.0254,-0.6943,-0.7367,-1.0458,-1.0448,-0.6343,0.0,0.0,0.0,0.0,0.0,0.0,0.0,0.0,0.0,0.0,0.0,0.0,0.0,0.0,0.0153,0.1985,0.9991,1.2322,1.2302,1.2302,1.2249,1.2203,1.2203,1.219,1.2321,1.2321,1.2321,1.2321,1.2321,1.2321,1.2321,1.2321,1.2321,1.2321,1.2321,1.2321,1.2321,1.2321,1.2321,1.2321,1.2321,1.2321,1.3058,1.4979,1.6891,1.8941,2.0816,2.2875,2.3905,2.3892,2.2802,2.2204,2.2191,2.1101,2.0652,2.0678,2.1114,2.1672,2.2217,2.2815,2.3386,-3.5151,-3.8483,-4.1892,-4.3269,-4.4124,-4.4753,-4.5156,-4.1669,-3.8502,-3.9252,-3.6706,-3.4471,-3.4536,-3.6948,-3.8314,-3.6113,-3.5369,-3.415,-3.1495,-3.0326,-2.9257,-2.7665,-2.7488,-2.6313,-2.3082,-2.3142,-2.1919,-1.8202,-1.8976,-1.8913,-1.7255,-1.8253,-1.8874,-1.8874,-1.8365,-1.6983,-1.471,-1.307,-1.1552,-1.0552,-1.0552,-1.0552,-1.0559,-1.0559,-1.0496,-1.0489,-0.9309,-0.9431,-1.0515,-1.0531,-0.9169,-0.7031,-0.6985,-0.4142,0.0,0.0,0.0,0.0,0.0,0.0,0.0,0.0,0.0,0.0,0.0,0.0,0.0611,0.3361,0.8116,1.168,0.8888,0.8086,0.8816,1.1586,1.2196,1.219,1.2177,1.2321,1.2321,1.2321,1.2321,1.2321,1.2321,1.2321,1.2321,1.2321,1.2321,1.2321,1.2321,1.2321,1.2321,1.2321,1.2321,1.2464,1.3208,1.616,1.8365,1.9088,2.2154,2.3918,2.3918,2.3191,2.2607,2.2217,2.1464,2.1088,2.1088,2.1282,2.1659,2.2217,2.2802,2.3373,-3.4451,-3.8064,-4.152,-4.3828,-4.6199,-4.8091,-4.8431,-4.5829,-4.3381,-4.3969,-4.1496,-3.9185,-3.8829,-4.1621,-4.3132,-4.0759,-3.9344,-3.7802,-3.5734,-3.3482,-3.1536,-3.0044,-2.986,-2.8971,-2.6378,-2.7055,-2.6277,-2.3141,-2.3468,-2.3082,-2.1455,-2.1901,-2.2079,-2.147,-2.1483,-1.985,-1.6492,-1.4204,-1.2185,-1.0552,-1.0552,-1.0552,-1.0552,-1.0552,-1.0559,-1.0456,-1.0509,-1.0489,-1.0469,-1.0522,-1.0551,-1.0446,-1.0521,-0.6234,0.0,0.0,0.0,0.0,0.0,0.0,0.0,0.0,0.0,0.0,0.0,0.0,0.0,0.0,0.3816,0.7189,0.4586,0.6105,0.9001,1.1617,1.1139,1.0499,1.1875,1.2177,1.2321,1.2321,1.2321,1.2321,1.2321,1.2321,1.2321,1.2321,1.2321,1.2321,1.2321,1.2321,1.2321,1.2321,1.2321,1.2321,1.2321,1.5863,1.807,1.807,2.172,2.3918,2.3918,2.3373,2.2906,2.2529,2.1763,2.1373,2.1373,2.1166,2.1464,2.2217,2.2594,2.3178,-3.2644,-3.6426,-3.9794,-4.3222,-4.8245,-5.1867,-5.0223,-5.1003,-5.1237,-4.8262,-4.737,-4.6506,-4.4159,-4.4831,-4.5695,-4.5607,-4.2686,-4.0798,-4.1998,-3.6721,-3.3115,-3.421,-3.1978,-3.0797,-3.1928,-3.2149,-3.2087,-3.1945,-3.051,-2.9051,-2.7533,-2.6029,-2.4559,-2.3109,-2.3003,-2.1429,-1.8389,-1.4962,-1.244,-1.0674,-1.0552,-1.0552,-1.0552,-1.0552,-1.0552,-1.0552,-1.0552,-1.0436,-1.0449,-1.0449,-1.0509,-1.0525,-1.0266,-0.6326,-0.044,-0.0147,0.0,0.0,0.0,0.0,0.0,0.0,0.0,0.0,0.0,0.0,0.0,0.0,0.0,0.0,0.0,0.5813,1.1546,1.168,0.8854,0.7445,1.1429,1.219,1.2321,1.2321,1.2321,1.2321,1.2321,1.2321,1.2321,1.2321,1.2321,1.2321,1.2321,1.2321,1.2321,1.2321,1.2321,1.2321,1.2321,1.5714,1.7923,1.807,2.172,2.3762,2.3918,2.3399,2.31,2.3074,2.201,2.1438,2.1412,2.0841,2.1127,2.2165,2.2191,2.2802,-3.4517,-3.8133,-4.111,-4.2976,-4.6872,-5.0762,-5.2518,-5.2492,-5.2221,-5.264,-4.9771,-4.8169,-5.1409,-5.1909,-5.1262,-4.9636,-4.8174,-4.6785,-4.5475,-4.2912,-4.0116,-3.7185,-3.6206,-3.4805,-3.2327,-3.3004,-3.3136,-3.1945,-3.051,-2.9051,-2.7533,-2.6029,-2.505,-2.4678,-2.3604,-2.2507,-2.1659,-1.8466,-1.535,-1.2305,-1.1053,-1.0552,-1.0552,-1.0552,-1.0552,-1.0552,-1.0552,-1.0552,-1.0559,-1.0559,-1.0489,-1.0201,-0.7556,-0.7139,-0.7255,-0.1987,0.0,0.0,0.0,0.0,0.0,0.0,0.0,0.0,0.0,0.0,0.0,0.0,0.0,0.0,0.0,0.1527,0.3055,0.3054,0.7029,1.1029,1.2078,1.221,1.219,1.2177,1.2321,1.2321,1.2321,1.2321,1.2321,1.2321,1.2321,1.2321,1.2321,1.2321,1.2321,1.2321,1.2321,1.2321,1.2321,1.454,1.6456,1.7923,2.0391,2.243,2.3918,2.3776,2.3503,2.3074,2.2789,2.2425,2.1997,2.1425,2.1308,2.1594,2.201,2.2594,-3.1463,-3.5857,-4.0831,-4.3276,-4.7534,-5.1785,-5.4123,-5.5136,-5.5689,-5.6042,-5.3841,-5.2855,-5.5737,-5.5252,-5.4061,-5.2802,-5.129,-4.9672,-4.8122,-4.5803,-4.3279,-4.0444,-3.8696,-3.7109,-3.5643,-3.5328,-3.508,-3.4758,-3.3461,-3.1945,-3.049,-2.9011,-2.7709,-2.633,-2.5491,-2.4306,-2.3003,-2.0438,-1.746,-1.4077,-1.1688,-1.0552,-1.0552,-1.0552,-1.0552,-1.0552,-1.0552,-1.0552,-1.0552,-1.0552,-1.0436,-1.034,-0.8354,-0.8762,-1.0013,-0.6099,-0.2689,0.0,0.0,0.0,0.0,0.0,0.0,0.0,0.0,0.0,0.0,0.0,0.0,0.0,0.0,0.0,0.0,0.0,0.6267,1.2295,1.2269,1.0836,1.004,1.1875,1.2177,1.2321,1.2321,1.2321,1.2321,1.2321,1.2321,1.2321,1.2321,1.2321,1.2321,1.2321,1.2321,1.2321,1.2321,1.4092,1.5574,1.6752,1.937,2.1552,2.2587,2.3462,2.3763,2.3451,2.3204,2.2789,2.2204,2.1646,2.1373,2.1386,2.1945,2.2516,-2.7564,-3.2772,-3.9857,-4.3629,-4.8518,-5.2922,-5.4618,-5.7487,-5.9435,-5.8177,-5.7941,-5.7992,-5.8057,-5.6592,-5.5348,-5.5319,-5.316,-5.1218,-5.0539,-4.7707,-4.5213,-4.3899,-4.0745,-3.8988,-3.9764,-3.7893,-3.7122,-3.8385,-3.7122,-3.5732,-3.4276,-3.2895,-3.0797,-2.7975,-2.7744,-2.6196,-2.3244,-2.1617,-1.916,-1.5854,-1.2703,-1.0932,-1.0552,-1.0552,-1.0552,-1.0552,-1.0552,-1.0552,-1.0552,-1.0552,-1.0559,-1.0449,-1.0456,-1.0502,-1.048,-1.0487,-0.6623,-0.1272,-0.0289,0.0,0.0,0.0,0.0,0.0,0.0,0.0,0.0,0.0,0.0,0.0,0.0,0.0,0.0,0.0,0.5502,1.059,1.059,0.8702,0.7908,1.1592,1.2196,1.2177,1.2177,1.2177,1.2321,1.2321,1.2321,1.2321,1.2321,1.2321,1.2321,1.2321,1.2321,1.2321,1.2321,1.38,1.483,1.5128,1.8638,2.0682,2.0961,2.2875,2.3918,2.3918,2.3438,2.2867,2.2204,2.1724,2.1399,2.1269,2.1919,2.2477,-3.2096,-3.5391,-3.9285,-4.2831,-4.6025,-4.9132,-5.2279,-5.5751,-5.8228,-5.8019,-5.7917,-5.8112,-5.8793,-5.8085,-5.7346,-5.6964,-5.6,-5.4989,-5.4347,-5.3244,-5.1088,-4.7332,-4.5166,-4.2862,-4.0143,-3.8834,-3.8184,-3.8485,-3.7122,-3.5732,-3.4276,-3.2895,-3.1283,-2.9615,-2.8321,-2.6681,-2.4916,-2.3229,-2.0805,-1.7641,-1.5602,-1.3205,-1.0552,-1.0552,-1.0552,-1.0552,-1.0552,-1.0552,-1.0552,-1.0552,-1.0552,-1.0559,-1.0449,-1.0489,-1.0548,-1.045,-0.9693,-0.7845,-0.2071,0.0,0.0,0.0,0.0,0.0,0.0,0.0,0.0,0.0,0.0,0.0,0.0,0.0,0.0,0.0,0.1069,0.2137,0.2137,0.6877,1.1351,1.213,1.2236,1.2196,1.2196,1.2183,1.2321,1.2321,1.2321,1.2321,1.2321,1.2321,1.2321,1.2321,1.2321,1.2321,1.2321,1.2615,1.3508,1.5128,1.7334,1.938,2.0961,2.2875,2.3918,2.3918,2.3815,2.3256,2.2204,2.2113,2.1581,2.0822,2.1737,2.2256,-3.1949,-3.5142,-3.8816,-4.0877,-4.4639,-4.8612,-5.1766,-5.4782,-5.6845,-5.6482,-5.7579,-5.8664,-5.9024,-5.8803,-5.8489,-5.8269,-5.7396,-5.6505,-5.579,-5.4869,-5.3333,-5.0769,-4.8414,-4.5851,-4.2978,-4.1261,-3.9813,-3.8585,-3.7857,-3.6482,-3.4382,-3.3524,-3.2238,-2.9955,-2.9255,-2.809,-2.6447,-2.4916,-2.2492,-1.9332,-1.7607,-1.5098,-1.1808,-1.2695,-1.2695,-1.1808,-1.0932,-1.0552,-1.0552,-1.0552,-1.0552,-1.0552,-1.0436,-1.0443,-1.0456,-1.0476,-1.0457,-1.0074,-0.666,-0.3051,0.0,0.0,0.0,0.0,0.0,0.0,0.0,0.0,0.0,0.0,0.0,0.0,0.0,0.0,0.0,0.0,0.0,0.642,1.1668,0.9471,1.083,1.2203,1.219,1.2177,1.2321,1.2321,1.2321,1.2321,1.2321,1.2321,1.2321,1.2321,1.2321,1.2321,1.2321,1.2321,1.2615,1.3651,1.6456,1.8511,1.938,2.2298,2.3918,2.3918,2.3918,2.3347,2.2204,2.2204,2.1633,2.0678,2.1685,2.2204,-3.06,-3.412,-3.8051,-3.8377,-4.3096,-4.8394,-5.1239,-5.3662,-5.53,-5.5059,-5.6944,-5.8747,-5.9033,-5.9165,-5.9181,-5.9111,-5.8224,-5.727,-5.6562,-5.5359,-5.4323,-5.3396,-5.0733,-4.8106,-4.591,-4.3638,-4.1487,-3.9401,-3.9057,-3.7809,-3.5185,-3.4573,-3.3091,-3.05,-3.0068,-2.9141,-2.7628,-2.6095,-2.3813,-2.0874,-1.8986,-1.6618,-1.4204,-1.5476,-1.5224,-1.3443,-1.1808,-1.1053,-1.1053,-1.0681,-1.0592,-1.0509,-1.0572,-1.0476,-1.0535,-1.0476,-1.0476,-1.0542,-1.0512,-0.693,-0.2062,-0.0432,0.0,0.0,0.0,0.0,0.0,0.0,0.0,0.0,0.0,0.0,0.0,0.0,0.0,0.0,0.0,0.5041,0.8721,0.532,0.8825,1.2203,1.219,1.2177,1.2321,1.2321,1.2321,1.2321,1.2321,1.2321,1.2321,1.2321,1.2321,1.2321,1.2321,1.2321,1.2321,1.2321,1.5863,1.807,1.807,2.1865,2.3918,2.3918,2.3918,2.3412,2.2399,2.2269,2.1685,2.0861,2.162,2.2088,-3.0109,-3.3609,-3.6822,-3.5631,-4.038,-4.6052,-4.9269,-5.1697,-5.3632,-5.4753,-5.614,-5.7538,-5.8854,-5.9366,-5.9513,-5.9154,-5.8486,-5.7864,-5.7313,-5.6456,-5.5411,-5.4248,-5.1777,-4.9311,-4.7144,-4.4897,-4.3071,-4.1898,-4.085,-3.9597,-3.8014,-3.5582,-3.3524,-3.1948,-3.0612,-2.9141,-2.7628,-2.6095,-2.444,-2.2627,-1.9603,-1.7891,-1.7641,-1.7766,-1.6879,-1.5224,-1.357,-1.2815,-1.2687,-1.1182,-1.0581,-1.0799,-1.0528,-1.0588,-1.0799,-1.0548,-1.0456,-1.0469,-1.0535,-1.0062,-0.8514,-0.2112,0.0,0.0,0.0,0.0,0.0,0.0,0.0,0.0,0.0,0.0,0.0,0.0,0.0,0.0,0.0,0.0611,0.1069,0.061,0.6858,1.2236,1.2229,1.2196,1.2321,1.2321,1.2321,1.2321,1.2321,1.2321,1.2321,1.2321,1.2321,1.2321,1.2321,1.2321,1.2321,1.2321,1.5863,1.807,1.807,2.1865,2.3918,2.3918,2.3918,2.3607,2.2996,2.2464,2.1893,2.1295,2.1399,2.1724,-3.0114,-3.3587,-3.6703,-3.6159,-3.965,-4.3893,-4.638,-4.8039,-5.0151,-5.3812,-5.5585,-5.6876,-5.8128,-5.8899,-5.9371,-5.9416,-5.9044,-5.8606,-5.8325,-5.7288,-5.6095,-5.4731,-5.323,-5.1181,-4.8292,-4.6621,-4.4981,-4.3277,-4.2148,-4.0582,-3.8414,-3.7309,-3.5268,-3.2149,-3.1505,-3.05,-2.9026,-2.7512,-2.586,-2.4321,-2.2023,-2.1063,-2.0941,-1.9998,-1.8637,-1.7005,-1.6367,-1.5476,-1.4457,-1.2687,-1.2141,-1.2126,-1.0973,-1.0625,-1.0588,-1.0476,-1.0443,-1.0456,-1.0489,-1.0457,-0.9385,-0.2334,0.0,0.0,0.0,0.0,0.0,0.0,0.0,0.0,0.0,0.0,0.0,0.0,0.0,0.0,0.0,0.0,0.0762,0.3194,0.6233,0.9284,1.1888,1.2183,1.2321,1.2321,1.2321,1.2321,1.2321,1.2321,1.2321,1.2321,1.2321,1.2321,1.2321,1.2321,1.2321,1.2321,1.5863,1.807,1.807,2.1865,2.3918,2.3918,2.3918,2.3633,2.3074,2.2841,2.2438,2.1867,2.1867,2.2178,-2.8445,-3.1956,-3.5577,-3.6186,-3.8927,-4.2251,-4.5003,-4.6147,-4.7781,-5.2036,-5.4431,-5.6187,-5.7514,-5.8241,-5.885,-5.9393,-5.9259,-5.9011,-5.8899,-5.8085,-5.6916,-5.5527,-5.4683,-5.3028,-5.003,-4.8398,-4.6821,-4.4983,-4.3232,-4.1299,-3.9114,-3.8218,-3.623,-3.3013,-3.2769,-3.2039,-3.0612,-2.8971,-2.746,-2.5995,-2.3948,-2.3003,-2.2868,-2.1361,-2.0024,-1.8773,-1.8773,-1.7891,-1.6231,-1.4962,-1.4012,-1.2961,-1.1717,-1.0987,-1.0542,-1.0585,-1.0559,-1.0449,-1.0469,-0.9821,-0.8292,-0.4325,-0.1657,0.0,0.0,0.0,0.0,0.0,0.0,0.0,0.0,0.0,0.0,0.0,0.0,0.0,0.0,0.0,0.0915,0.365,0.623,0.8821,1.1731,1.2183,1.2321,1.2321,1.2321,1.2321,1.2321,1.2321,1.2321,1.2321,1.2321,1.2321,1.2321,1.2321,1.2321,1.2321,1.5863,1.807,1.807,2.1865,2.3918,2.3918,2.3918,2.3724,2.3321,2.3152,2.2867,2.2464,2.2295,2.2516,-2.4334,-2.825,-3.2803,-3.4832,-3.7646,-4.113,-4.593,-4.7041,-4.754,-4.926,-5.2388,-5.5336,-5.7001,-5.7488,-5.7909,-5.8916,-5.8991,-5.8912,-5.8901,-5.8776,-5.8144,-5.6707,-5.5964,-5.4703,-5.2442,-5.0223,-4.8574,-4.7488,-4.4203,-4.1698,-4.0625,-3.7929,-3.5837,-3.4777,-3.4403,-3.3524,-3.2059,-3.0476,-2.9011,-2.7495,-2.4425,-2.3003,-2.2868,-2.1361,-2.0652,-2.0529,-2.0529,-1.9653,-1.8027,-1.8015,-1.6254,-1.3443,-1.3074,-1.2133,-1.0825,-1.0528,-1.0552,-1.0552,-1.0449,-0.8214,-0.5887,-0.9343,-0.5732,0.0,0.0,0.0,0.0,0.0,0.0,0.0,0.0,0.0,0.0,0.0,0.0,0.0,0.0,0.0,0.0,0.0,0.6554,1.2236,1.2236,1.2203,1.2321,1.2321,1.2321,1.2321,1.2321,1.2321,1.2321,1.2321,1.2321,1.2321,1.2321,1.2321,1.2321,1.2321,1.5863,1.807,1.807,2.1865,2.3918,2.3918,2.3918,2.3918,2.3905,2.3347,2.3074,2.3048,2.2477,2.2516,-2.5886,-2.8731,-3.1707,-3.367,-3.6611,-3.9856,-4.2994,-4.4183,-4.5435,-4.8327,-5.0817,-5.3413,-5.6302,-5.7662,-5.8535,-5.9121,-5.9363,-5.9389,-5.9289,-5.925,-5.874,-5.7407,-5.7916,-5.7443,-5.5022,-5.4607,-5.3481,-5.1171,-4.7816,-4.5004,-4.2822,-4.0464,-3.8115,-3.591,-3.58,-3.5019,-3.3524,-3.2087,-3.0627,-2.8993,-2.6046,-2.4559,-2.444,-2.1835,-2.0652,-2.0652,-2.0652,-2.027,-1.9777,-1.9777,-1.8482,-1.631,-1.3995,-1.1997,-1.0555,-1.0585,-1.0552,-1.0552,-1.0449,-0.992,-0.9391,-1.0277,-0.9537,-0.7327,-0.1688,0.0,0.0,0.0,0.0,0.0,0.0,0.0,0.0,0.0,0.0,0.0,0.0,0.0,0.1679,0.7342,1.0426,1.2269,1.2223,1.2203,1.219,1.2177,1.2321,1.2321,1.2321,1.2321,1.2321,1.2321,1.2321,1.2321,1.2321,1.2321,1.2321,1.2321,1.5863,1.807,1.807,2.1865,2.3918,2.3918,2.3918,2.3918,2.3918,2.3724,2.3646,2.3633,2.3061,2.3321,-2.5562,-2.7822,-3.0163,-3.3,-3.5579,-3.7978,-4.0315,-4.1912,-4.3825,-4.7325,-4.9497,-5.1637,-5.4277,-5.613,-5.7587,-5.8626,-5.9093,-5.9414,-5.9481,-5.9533,-5.9219,-5.8334,-5.9147,-5.8947,-5.6877,-5.6824,-5.5753,-5.2891,-4.9111,-4.5851,-4.3288,-4.0512,-3.8077,-3.6058,-3.6367,-3.5925,-3.4463,-3.3354,-3.2396,-3.1436,-2.8423,-2.6413,-2.5168,-2.267,-2.1117,-2.0652,-2.0652,-2.0652,-2.0652,-2.0652,-2.0024,-1.8762,-1.598,-1.3545,-1.1612,-1.1612,-1.1228,-1.0594,-1.0608,-1.0872,-1.1012,-1.0859,-1.1424,-1.0759,-0.2546,0.0,0.0,0.0,0.0,0.0,0.0,0.0,0.0,0.0,0.0,0.0,0.0,0.0,0.1526,0.6576,0.8873,0.9927,0.9895,1.1266,1.219,1.2177,1.2321,1.2321,1.2321,1.2321,1.2321,1.2321,1.2321,1.2321,1.2321,1.2321,1.2321,1.2321,1.5863,1.807,1.807,2.1865,2.3918,2.3918,2.3918,2.3918,2.3918,2.3918,2.3918,2.3905,2.3555,2.3659,-2.3804,-2.5798,-2.8432,-3.2628,-3.4482,-3.5722,-3.7929,-4.0121,-4.264,-4.605,-4.8131,-4.9908,-5.1583,-5.3425,-5.5447,-5.7546,-5.8461,-5.9042,-5.9565,-5.9757,-5.973,-5.9505,-6.0076,-5.9843,-5.8218,-5.7665,-5.618,-5.3347,-4.8663,-4.4924,-4.2471,-3.8896,-3.6398,-3.5506,-3.6398,-3.6272,-3.4975,-3.4441,-3.4167,-3.406,-3.1175,-2.8195,-2.5405,-2.3709,-2.2172,-2.0762,-2.0652,-2.0652,-2.0652,-2.0652,-2.0652,-2.0406,-1.8773,-1.6244,-1.3708,-1.3476,-1.2295,-1.0838,-1.0878,-1.1046,-1.1073,-1.1235,-1.1485,-1.0494,-0.3064,-0.0449,-0.0153,-0.0763,-0.0466,0.0,0.0,0.0,0.0,0.0,0.0,0.0,0.0,0.0,0.0,0.0,0.3042,0.5769,0.6378,0.9722,1.2177,1.2321,1.2321,1.2321,1.2321,1.2321,1.2321,1.2321,1.2321,1.2321,1.2464,1.2321,1.2321,1.2464,1.6011,1.807,1.8218,2.1865,2.3918,2.3918,2.3918,2.3918,2.3918,2.3918,2.3918,2.3918,2.3918,2.3633,-2.3724,-2.5851,-2.8244,-3.1503,-3.3754,-3.5325,-3.5853,-3.838,-4.1211,-4.3463,-4.5886,-4.8456,-5.1147,-5.2846,-5.4683,-5.7079,-5.8181,-5.9325,-6.1036,-6.1277,-6.1305,-6.1244,-6.3439,-6.3909,-6.1278,-6.1173,-6.008,-5.7171,-5.0725,-4.6205,-4.4492,-4.033,-3.75,-3.648,-3.673,-3.6746,-3.6441,-3.523,-3.4111,-3.298,-3.0787,-2.8765,-2.6914,-2.4187,-2.2762,-2.2293,-2.1117,-2.0652,-2.0652,-2.0652,-2.0652,-2.0406,-1.8773,-1.7583,-1.6702,-1.4298,-1.2277,-1.0588,-1.103,-1.1188,-1.1333,-1.1498,-0.9683,-0.774,-0.8975,-0.5019,-0.1375,-0.7663,-0.4824,0.0,0.0,0.0,0.0,0.0,0.0,0.0,0.0,0.0,0.0,0.0,0.0762,0.335,0.9759,1.1605,1.221,1.2177,1.2321,1.2321,1.2321,1.2321,1.2321,1.2321,1.2321,1.2915,1.4391,1.3058,1.2908,1.4391,1.6752,1.8795,2.0245,2.2587,2.3918,2.3918,2.3918,2.3918,2.3918,2.3918,2.3918,2.3918,2.3918,2.384,-2.4458,-2.6512,-2.8803,-3.1263,-3.3173,-3.4864,-3.6464,-3.7779,-3.9481,-4.2596,-4.4801,-4.6955,-4.9675,-5.1901,-5.3815,-5.5152,-5.6793,-5.8496,-6.024,-6.0661,-6.111,-6.1882,-6.4112,-6.4991,-6.3441,-6.3184,-6.1799,-5.8547,-5.2733,-4.8151,-4.5243,-4.1321,-3.8208,-3.6055,-3.6185,-3.6012,-3.5508,-3.517,-3.4241,-3.2655,-3.203,-3.0364,-2.7512,-2.5137,-2.3963,-2.3844,-2.1605,-2.1007,-2.1592,-2.0885,-2.0652,-2.0516,-1.9653,-1.9282,-1.8957,-1.6606,-1.4542,-1.2895,-1.1665,-1.1273,-1.1306,-1.1613,-1.0338,-0.8943,-0.9322,-0.7693,-0.6521,-1.0953,-0.6332,0.0,0.0,0.0,0.0,0.0,0.0,0.0,0.0,0.0,0.0,0.0,0.1524,0.4108,0.8679,1.0976,1.2196,1.2177,1.2321,1.2321,1.2321,1.2321,1.2321,1.2321,1.2321,1.2615,1.38,1.2915,1.2765,1.38,1.6456,1.8941,2.0961,2.2875,2.3918,2.3918,2.3918,2.3918,2.3918,2.3918,2.3918,2.3905,2.3646,2.3386,-2.5299,-2.7414,-2.9968,-3.1525,-3.2874,-3.4602,-3.7481,-3.7508,-3.8093,-4.2094,-4.3791,-4.5342,-4.7806,-5.0533,-5.2528,-5.3126,-5.5079,-5.7077,-5.8789,-5.9566,-6.0516,-6.1983,-6.3741,-6.4793,-6.4651,-6.3995,-6.2174,-5.891,-5.4327,-4.9822,-4.5656,-4.2259,-3.9058,-3.5798,-3.5521,-3.4829,-3.3767,-3.4695,-3.4364,-3.2722,-3.3601,-3.1924,-2.8188,-2.6447,-2.5641,-2.5523,-2.2549,-2.2065,-2.3124,-2.1592,-2.1007,-2.0885,-2.0652,-2.0652,-2.0458,-1.8982,-1.75,-1.5901,-1.2693,-1.1478,-1.1339,-1.1702,-1.2005,-1.1454,-0.7294,-0.8988,-1.2169,-1.143,-0.5804,0.0,0.0,0.0,0.0,0.0,0.0,0.0,0.0,0.0,0.0,0.0,0.2738,0.5469,0.6836,0.9884,1.2177,1.2321,1.2321,1.2321,1.2321,1.2321,1.2321,1.2321,1.2321,1.2321,1.2615,1.2765,1.2765,1.3058,1.6595,1.9234,2.0961,2.2875,2.3918,2.3918,2.3918,2.3918,2.3918,2.3918,2.3918,2.3892,2.3334,2.2763,-2.5463,-2.8331,-3.1448,-3.1925,-3.3491,-3.5068,-3.5564,-3.6938,-3.8472,-3.9828,-4.1259,-4.326,-4.6235,-4.8168,-5.0338,-5.3539,-5.4096,-5.5455,-5.9049,-6.0569,-6.1481,-6.1842,-6.4511,-6.5792,-6.4405,-6.3327,-6.2048,-6.028,-5.4189,-4.9466,-4.687,-4.3428,-4.0527,-3.8194,-3.6232,-3.4681,-3.3691,-3.3952,-3.3784,-3.3102,-3.3004,-3.2334,-3.1263,-2.8532,-2.7263,-2.7164,-2.5389,-2.4694,-2.4797,-2.3244,-2.2642,-2.2414,-2.1117,-2.0652,-2.0419,-1.8732,-1.8126,-1.7511,-1.3958,-1.205,-1.1372,-1.1926,-1.215,-1.1435,-0.729,-0.8878,-1.1571,-0.7929,-0.3652,0.0,0.0,0.0,0.0,0.0,0.0,0.0,0.0,0.0,0.0,0.0,0.0458,0.3199,1.0073,1.1762,1.2216,1.2177,1.2321,1.2321,1.2321,1.2321,1.2321,1.2321,1.2321,1.2915,1.454,1.4681,1.5417,1.7048,1.937,2.067,2.0961,2.2875,2.3918,2.3918,2.3918,2.3918,2.3918,2.3918,2.3918,2.3892,2.3334,2.2763,-2.7078,-2.9412,-3.1573,-3.1206,-3.2736,-3.4497,-3.5041,-3.6327,-3.7693,-3.8671,-4.0427,-4.2612,-4.5229,-4.7289,-4.9823,-5.3543,-5.4744,-5.5916,-5.7932,-5.926,-6.0906,-6.3135,-6.4663,-6.5962,-6.7101,-6.4717,-6.2709,-6.1644,-5.6521,-5.2251,-4.9576,-4.6749,-4.3623,-4.0161,-3.7588,-3.5976,-3.5498,-3.4972,-3.4214,-3.3256,-3.3581,-3.3235,-3.2039,-2.9841,-2.8839,-2.8779,-2.633,-2.5759,-2.633,-2.3948,-2.3003,-2.2762,-2.1239,-2.0652,-2.0516,-1.9777,-1.8916,-1.8058,-1.6303,-1.4331,-1.2365,-1.2018,-1.1939,-1.1682,-0.9841,-1.0679,-1.1801,-0.9937,-0.4926,0.0,0.0,0.0,0.0,0.0,0.0,0.0,0.0,0.0,0.0,0.0,0.1828,0.441,0.822,1.0818,1.2196,1.2177,1.2321,1.2321,1.2321,1.2321,1.2321,1.2321,1.2321,1.3058,1.4979,1.616,1.7186,1.807,2.0838,2.2142,2.0961,2.2875,2.3918,2.3918,2.3918,2.3918,2.3918,2.3918,2.3918,2.3892,2.3334,2.2763,-2.8822,0.0,-3.1242,-3.0645,-3.2188,-3.4073,0.0,-3.611,-3.731,-3.8162,-4.0001,-4.2128,-4.4354,-4.662,-4.9387,-5.2865,-5.4752,-5.598,-5.6612,-5.7483,-5.9478,-6.3386,-6.4498,-6.6055,-6.8865,-6.6278,-6.3881,-6.2671,-5.8933,-5.5314,-5.208,-4.9775,-4.6713,-4.2595,-4.0273,-3.8706,-3.7867,-3.6671,-3.5515,-3.4104,-3.462,-3.4022,-3.2567,-3.0942,-3.0179,-2.9842,-2.7379,-2.703,-2.7975,-2.4781,-2.3709,-2.3828,-2.1483,-2.0885,-2.1117,-2.0775,-1.9777,-1.8649,-1.8276,-1.6284,-1.3859,-1.2569,-1.2012,-1.1893,-1.2111,-1.221,-1.2085,-1.1029,-0.5591,0.0,0.0,0.0,0.0,0.0,0.0,0.0,0.0,0.0,0.0,0.0,0.2434,0.5163,0.7143,1.0186,1.2177,1.2321,1.2321,1.2321,1.2321,1.2321,1.2321,1.2321,1.2321,1.3058,1.4979,1.7334,1.8952,1.938,2.231,2.3175,2.1696,2.3175,2.3918,2.3918,2.3918,2.3918,2.3918,2.3918,2.3918,2.3892,2.3334,2.2763,0.0,-3.0473,-3.0727,-3.0975,-3.2885,-3.4719,-3.4625,-3.6511,0.0,-3.8265,-3.9393,-4.1043,-4.3253,-4.554,-4.8185,-5.1195,-5.2583,-5.3949,-5.58,-5.6091,-5.7451,-6.0876,-6.4203,-6.6452,-6.7161,-6.6969,-6.5663,-6.2782,-6.0276,-5.7189,-5.3338,-5.0819,-4.8492,-4.6316,-4.5339,-4.3291,-4.0063,-3.8955,-3.7855,-3.6645,-3.5355,-3.4512,-3.4062,-3.2567,-3.1152,-2.9955,-2.9728,-2.9615,-2.9482,-2.6447,-2.5978,-2.6797,-2.2307,-2.147,-2.2642,-2.1117,-2.0529,-2.0147,-1.8649,-1.7062,-1.5543,-1.4082,-1.2973,-1.215,-1.219,-1.2216,-1.146,-0.7601,-0.3406,0.0,0.0,0.0,0.0,0.0,0.0,0.0,0.0,0.0,0.0,0.0,0.0305,0.289,1.0533,1.2059,1.2196,1.2177,1.2321,1.2321,1.2321,1.2321,1.2321,1.2321,1.2321,1.3058,1.4979,1.8638,2.1552,2.3331,2.3762,2.3918,2.3762,2.3762,2.3918,2.3918,2.3918,2.3918,2.3918,2.3918,2.3918,2.3892,2.3334,2.2763,-2.8961,-2.9994,-3.0598,-3.1189,-3.3115,-3.5201,-3.6749,-3.8399,-3.9737,-4.055,-4.1095,-4.2097,-4.4308,-4.598,-4.8188,-5.1649,-5.3529,-5.4932,-5.6071,-5.692,-5.7816,-5.8856,-6.2623,-6.6034,-6.854,-6.7737,-6.6144,-6.3953,-6.1688,-5.9158,-5.6197,-5.3411,-5.1674,-5.1148,-4.914,-4.6788,-4.4242,-4.0529,-3.8489,-3.8043,-3.6097,-3.498,-3.4517,-3.3802,-3.2567,-3.1171,-3.0294,-2.9955,0.0,-2.7628,-2.6447,-2.586,-2.3138,-2.1822,-2.147,-2.0762,-2.0652,-2.0516,-1.99,-1.8642,-1.7041,-1.539,-1.3968,-1.2762,-1.185,-1.1761,-1.1046,-0.7104,-0.6819,-0.6481,-0.1252,0.0,0.0,0.0,0.0,0.0,0.0,0.0,0.0,0.0,0.1979,0.5624,1.1302,1.221,1.2183,1.2321,1.2321,1.2321,1.2321,1.2321,1.2321,1.2321,1.3358,1.483,1.6743,1.937,2.1853,2.3762,2.3918,2.3918,2.3918,2.3918,2.3918,2.3918,2.3568,2.3568,2.3918,2.4667,2.5227,2.5575,2.3879,2.3308,-2.849,-2.9512,-3.0467,-3.0872,-3.2773,-3.5075,-3.6884,-3.8478,-4.0013,-4.1281,-4.1884,-4.2798,-4.4717,-4.6239,-4.81,-5.1044,-5.2996,-5.4426,-5.5246,-5.6492,-5.7403,-5.7636,-6.1157,-6.4839,-6.8065,-6.7586,-6.6366,-6.4667,-6.2435,-6.0174,-5.7832,-5.545,-5.4261,-5.4505,-5.1993,-4.959,-4.7167,-4.2901,-4.0029,-3.8664,-3.6747,-3.5306,-3.4316,-3.4415,-3.3417,-3.1543,-3.0942,-3.0407,-2.9842,-2.8205,-2.728,-2.6447,-2.3948,-2.2535,-2.1957,-2.1007,-2.0652,-2.0652,-2.0652,-1.9529,-1.7913,-1.6787,-1.5093,-1.3292,-1.2279,-1.1774,-1.0953,-0.8347,-0.8024,-0.7119,-0.141,0.0,0.0,0.0,0.0,0.0,0.0,0.0,0.0,0.0,0.3194,0.7294,1.146,1.2203,1.2321,1.2321,1.2321,1.2321,1.2321,1.2321,1.2321,1.2321,1.395,1.616,1.8795,2.0827,2.2443,2.3762,2.3918,2.3918,2.3918,2.375,2.3646,2.3646,2.3087,2.2983,2.3373,2.4751,2.5701,2.5985,2.4342,2.3952,-2.8888,-2.94,-2.9955,-2.9955,-3.2108,-3.4182,-3.4223,-3.6441,-3.8787,-3.9987,-4.1344,-4.2576,-4.3929,-4.5994,-4.7773,-4.8801,-5.0346,-5.1876,-5.2919,-5.4289,-5.577,-5.7365,-6.0063,-6.2702,-6.5102,-6.639,-6.6351,-6.4656,-6.2388,-6.0074,-5.7868,-5.6608,-5.6011,-5.6011,-5.4111,-5.1564,-4.8261,-4.629,-4.3064,-3.8685,-3.7563,-3.5695,-3.3302,-3.4293,-3.3247,-3.0566,-3.1673,-3.1283,-2.9842,-2.8321,-2.855,-2.9482,-2.4765,-2.3844,-2.4813,-2.1727,-2.0652,-2.0652,-2.0652,-1.9517,-1.8107,-1.8446,-1.6226,-1.3542,-1.3775,-1.2436,-1.0997,-1.1191,-0.5785,-0.0,-0.0,0.0,0.0,0.0,0.0,0.0,0.0,0.0,0.0,0.0,0.3194,0.7294,1.146,1.2203,1.2321,1.2321,1.2321,1.2321,1.2321,1.2321,1.2321,1.2321,1.4092,1.6734,2.067,2.2731,2.3918,2.3905,2.3905,2.3892,2.3892,2.336,2.3061,2.3061,2.2503,2.2204,2.2204,2.3925,2.4713,2.4713,2.4713,2.4352,-2.7374,-2.8152,-2.8779,-3.0929,-3.2895,-3.4697,-3.668,-3.8584,-4.0466,-4.2558,-4.333,-4.3929,-4.5175,-4.6478,-4.7567,-4.7881,-4.9551,-5.109,-5.1845,-5.2965,-5.4806,-5.7725,-5.9863,-6.2321,-6.5312,-6.7054,-6.7035,-6.4692,-6.2796,-6.0726,-5.8519,-5.7735,-5.6932,-5.5976,-5.4628,-5.3159,-5.1659,-4.8239,-4.5103,-4.224,-4.0206,-3.7641,-3.4807,-3.5504,-3.4463,-3.1996,-3.2087,-3.1283,-2.9842,-2.9369,-2.8894,-2.809,-2.5507,-2.4202,-2.3364,-2.1361,-2.0652,-2.0652,-2.0652,-2.027,-1.9678,-1.8564,-1.6691,-1.4668,-1.362,-1.2198,-1.0911,-1.1115,-0.7556,-0.3076,-0.0592,0.0,0.0,0.0,0.0,0.0,0.0,0.0,0.0,0.0,0.3194,0.7294,1.146,1.2203,1.2321,1.2321,1.2321,1.2321,1.2321,1.3508,1.4241,1.4241,1.7315,1.9797,2.0961,2.2731,2.375,2.3347,2.3321,2.3139,2.2724,2.2555,2.2464,2.2464,2.1906,2.2337,2.3925,2.5245,2.5775,2.5649,2.7386,2.724,-2.5255,-2.6664,-2.8072,-2.9898,-3.1888,-3.3933,-3.6183,-3.7737,-3.9572,-4.2163,-4.2986,-4.3704,-4.4985,-4.6057,-4.6959,-4.733,-4.8498,-4.9728,-5.0958,-5.1911,-5.3735,-5.719,-5.9354,-6.1799,-6.5091,-6.7045,-6.7105,-6.4724,-6.2405,-6.0481,-5.9074,-5.8537,-5.7843,-5.6929,-5.5305,-5.4007,-5.314,-4.9457,-4.61,-4.3108,-4.1119,-3.8314,-3.4775,-3.5634,-3.481,-3.2817,-3.2461,-3.1713,-3.0744,-3.0181,-2.9369,-2.8435,-2.6797,-2.5271,-2.3724,-2.2065,-2.1117,-2.0652,-2.0652,-2.0147,-1.9406,-1.84,-1.6492,-1.433,-1.3316,-1.1951,-1.072,-1.0858,-0.8109,-0.5046,-0.4365,-0.2081,0.0,0.0,0.0,0.0,0.0,0.0,0.0,0.0,0.3192,0.7294,1.1599,1.2196,1.2321,1.2321,1.2321,1.2321,1.2321,1.395,1.5128,1.5128,1.937,2.2142,2.2142,2.3175,2.3672,2.3113,2.3074,2.2815,2.223,2.1997,2.1867,2.1867,2.1321,2.2078,2.3933,2.5386,2.6259,2.6758,2.8163,2.8146,-2.2883,-2.5137,-2.7396,-2.7628,-2.9879,-3.2369,-3.374,-3.5208,-3.7074,-3.972,-4.1203,-4.2477,-4.3849,-4.4985,-4.6086,-4.709,-4.7409,-4.8114,-5.0078,-5.1088,-5.286,-5.6257,-5.8736,-6.14,-6.464,-6.6421,-6.656,-6.4605,-6.1613,-5.9786,-5.9508,-5.8985,-5.8574,-5.8226,-5.6071,-5.4433,-5.3299,-5.0339,-4.6801,-4.2711,-4.1339,-3.8399,-3.4273,-3.5259,-3.4827,-3.3207,-3.2828,-3.2462,-3.1948,-3.05,-2.9955,-2.9728,-2.8205,-2.6698,-2.505,-2.3484,-2.1943,-2.0652,-2.0652,-1.9529,-1.8027,-1.8027,-1.5728,-1.2815,-1.2815,-1.168,-1.0482,-1.0499,-0.8137,-0.6463,-0.9738,-0.529,0.0,0.0,0.0,0.0,0.0,0.0,0.0,0.0,0.3646,0.7748,1.1586,1.2183,1.2321,1.2321,1.2321,1.2321,1.2321,1.4092,1.5566,1.5714,2.0648,2.384,2.384,2.3789,2.3516,2.2945,2.2919,2.2782,2.2207,2.1813,2.1537,2.1537,2.1025,2.1592,2.3109,2.4559,2.6095,2.7842,2.7842,2.7842,-2.2656,-2.4306,-2.6112,-2.7263,-2.9879,-3.2149,-3.2478,-3.4489,-3.6767,-3.8438,-3.9864,-4.1511,-4.376,-4.429,-4.4899,-4.6003,-4.6878,-4.7881,-4.9174,-5.1145,-5.3644,-5.697,-5.9405,-6.1949,-6.4912,-6.5396,-6.4984,-6.371,-6.2309,-6.0951,-5.9698,-5.9155,-5.8523,-5.7731,-5.6443,-5.5019,-5.3574,-5.1801,-4.9646,-4.7213,-4.5229,-4.2017,-3.7619,-3.7845,-3.6226,-3.3207,-3.2828,-3.2462,-3.1948,-3.05,-2.9955,-2.9728,-2.8205,-2.6698,-2.505,-2.3484,-2.1943,-2.0652,-2.0652,-1.9529,-1.8027,-1.8027,-1.4855,-1.1053,-1.1053,-1.0803,-1.0436,-1.0522,-0.9917,-0.9486,-1.0251,-0.5222,0.0,0.0,0.0,0.0,0.0,0.0,0.0,0.0,0.5927,1.1121,1.2045,1.2183,1.2321,1.2321,1.2321,1.2321,1.2321,1.5277,1.8061,1.9505,2.1922,2.3256,2.3256,2.2841,2.2334,2.1776,2.1724,2.2093,2.2703,2.2684,2.2613,2.2613,2.2485,2.3244,2.4797,2.5168,2.6681,2.9369,2.9369,2.9369,-2.1592,-2.3018,-2.4559,-2.6095,-2.817,-3.0349,-3.1707,-3.374,-3.5732,-3.7051,-3.9424,-4.1672,-4.2959,-4.4174,-4.5157,-4.578,-4.6335,-4.7009,-4.8084,-5.0361,-5.3172,-5.6519,-5.935,-6.2148,-6.504,-6.5555,-6.5045,-6.3506,-6.305,-6.1904,-5.9701,-5.9337,-5.8938,-5.8389,-5.7003,-5.5893,-5.5035,-5.2712,-5.0731,-4.911,-4.6708,-4.3401,-3.9392,-3.842,-3.6633,-3.4199,-3.3324,-3.2708,-3.2268,-3.1306,-3.0143,-2.8779,-2.7975,-2.6196,-2.4083,-2.3244,-2.1943,-2.0529,-1.9653,-1.8264,-1.6743,-1.5854,-1.3332,-1.0552,-1.0552,-1.0552,-1.0552,-1.0449,-1.0548,-0.9747,-0.633,-0.2741,0.0,0.0,0.0,0.0,0.0,0.0,0.1217,0.5174,0.9289,1.2203,1.219,1.2177,1.2321,1.2321,1.2321,1.2615,1.3501,1.6308,1.8713,2.0487,2.21,2.2957,2.2685,2.2386,2.1971,2.1399,2.21,2.2569,2.2897,2.3604,2.4083,2.4083,2.4083,2.4797,2.6447,2.6447,2.7628,2.9955,2.9955,2.9955,-2.0652,-2.1714,-2.3364,-2.4916,-2.6447,-2.8303,-3.104,-3.3004,-3.4573,-3.5732,-3.9007,-4.1712,-4.2083,-4.3826,-4.5413,-4.578,-4.6068,-4.6604,-4.761,-5.0065,-5.2952,-5.5905,-5.9332,-6.2342,-6.4702,-6.5382,-6.4972,-6.3328,-6.3149,-6.2061,-5.9591,-5.9472,-5.9437,-5.9271,-5.7848,-5.6932,-5.6594,-5.354,-5.1484,-5.0334,-4.7747,-4.4459,-4.0774,-3.8659,-3.6835,-3.5293,-3.387,-3.3129,-3.3028,-3.2303,-3.0573,-2.8303,-2.7842,-2.5844,-2.3244,-2.2748,-2.1564,-1.99,-1.8264,-1.6492,-1.4836,-1.3188,-1.1688,-1.0559,-1.0559,-1.0559,-1.0449,-1.0515,-0.9675,-0.7306,-0.1552,0.0,0.0,0.0,0.0,0.0,0.0,0.061,0.3196,1.0836,1.2216,1.2196,1.2177,1.2321,1.2321,1.2321,1.2321,1.2908,1.4979,1.6918,1.8847,2.0429,2.1992,2.2581,2.21,2.1971,2.1841,2.1612,2.2806,2.3667,2.3724,2.5034,2.5641,2.5641,2.5641,2.633,2.7628,2.7628,2.8435,2.9955,2.9955,2.9955,-2.0652,-2.1714,-2.3364,-2.4916,-2.6447,-2.809,-2.9823,-3.2327,-3.4276,-3.4489,-3.687,-3.9597,-4.1805,-4.245,-4.3381,-4.5498,-4.6853,-4.7927,-4.8968,-5.2307,-5.5138,-5.6497,-6.0342,-6.3032,-6.3457,-6.2852,-6.2489,-6.2525,-6.1421,-6.032,-5.9366,-5.953,-5.9546,-5.9291,-5.9192,-5.8271,-5.6594,-5.4893,-5.3554,-5.2635,-5.0525,-4.7358,-4.3182,-4.1075,-3.8435,-3.5293,-3.387,-3.3735,-3.4346,-3.2734,-3.1818,-3.1263,-2.8629,-2.6564,-2.4559,-2.1725,-1.9689,-1.8151,-1.6492,-1.4836,-1.3061,-1.1431,-1.0688,-1.0449,-1.0449,-1.0463,-1.0528,-1.0519,-0.6062,-0.113,-0.029,0.0,0.0,0.0,0.0,0.0,0.0,0.2746,0.6554,1.129,1.219,1.2177,1.2321,1.2321,1.2321,1.2321,1.2321,1.2908,1.4979,1.7392,1.9784,2.1638,2.1749,2.1568,2.149,2.1036,2.1317,2.265,2.2878,2.4263,2.6914,2.7147,2.7263,2.7263,2.7263,2.7379,2.7628,2.7628,2.8435,2.9955,2.9955,2.9955,-2.0652,-2.1117,-2.2186,-2.4694,-2.5759,-2.6914,-2.9369,-3.2108,-3.4169,-3.4169,-3.7074,-4.0117,-4.1778,-4.2778,-4.3567,-4.462,-4.5899,-4.6884,-4.7464,-5.0766,-5.3567,-5.4785,-5.8222,-6.074,-6.1345,-6.1175,-6.1272,-6.1716,-5.9958,-5.895,-5.9253,-5.9448,-5.9501,-5.9416,-5.9449,-5.8941,-5.7761,-5.5548,-5.4277,-5.4027,-5.139,-4.856,-4.5489,-4.2743,-3.9574,-3.6326,-3.4963,-3.3797,-3.2718,-3.2457,-3.1333,-2.9331,-2.7147,-2.5389,-2.3589,-2.0303,-1.8614,-1.7641,-1.5088,-1.2928,-1.1149,-1.0417,-1.0298,-1.0159,-0.8692,-0.7934,-0.7096,-0.5143,-0.2235,0.0433,0.0146,0.3443,0.6881,0.6881,0.3359,0.0,0.0,0.5036,1.01,1.1901,1.219,1.2321,1.2321,1.2321,1.2321,1.2321,1.2902,1.4298,1.707,1.8506,1.9909,2.1502,2.1516,2.1243,2.0932,2.1496,2.2172,2.2883,2.4544,2.6196,2.7495,2.8435,2.8894,2.8894,2.8894,2.8894,2.8894,2.8894,2.9255,2.9955,2.9955,2.9955,-2.0762,-2.1252,-2.2321,-2.4694,-2.5507,-2.6564,-2.9255,-3.2108,-3.4062,-3.374,-3.6721,-3.9651,-4.0327,-4.1631,-4.2655,-4.2854,-4.46,-4.5959,-4.6095,-4.951,-5.2346,-5.3341,-5.6634,-5.903,-5.9579,-6.0044,-6.0198,-5.9986,-5.8489,-5.7905,-5.8744,-5.9205,-5.9463,-5.9454,-5.9525,-5.9306,-5.8852,-5.663,-5.5303,-5.4774,-5.2177,-4.9396,-4.6536,-4.3812,-4.0346,-3.6637,-3.5755,-3.3947,-3.1684,-3.2345,-3.1144,-2.8532,-2.6213,-2.4559,-2.2989,-1.8974,-1.7427,-1.68,-1.332,-1.1157,-0.9882,-0.9882,-0.9923,-0.9441,-0.5884,-0.4367,-0.3334,-0.0676,0.0279,0.0864,0.2485,0.7316,1.1586,1.0865,0.5188,0.0305,0.1369,0.717,1.2262,1.2216,1.219,1.2321,1.2321,1.2321,1.2587,1.3384,1.387,1.536,1.868,1.9686,2.0636,2.1686,2.2136,2.2209,2.1877,2.2897,2.3709,2.4067,2.6313,2.7726,2.8205,2.9255,2.9955,2.9955,2.9955,2.9955,2.9955,2.9955,2.9955,2.9955,2.9955,2.9955,-2.1007,-2.2791,-2.505,-2.5287,-2.633,-2.7975,-2.9615,-3.2108,-3.3847,-3.2478,-3.4467,-3.6538,-3.6422,-3.7665,-3.8957,-4.0071,-4.3555,-4.6061,-4.6025,-5.0273,-5.3372,-5.3462,-5.7441,-5.9709,-5.8485,-5.9329,-5.9008,-5.6775,-5.6858,-5.7162,-5.7392,-5.8729,-5.9426,-5.9302,-5.9562,-5.956,-5.9253,-5.8749,-5.726,-5.4774,-5.3516,-5.0279,-4.5346,-4.4044,-4.0554,-3.5498,-3.5422,-3.4505,-3.3134,-3.2749,-3.2377,-3.1374,-2.7013,-2.5168,-2.4425,-1.8059,-1.5449,-1.4668,-1.0992,-0.985,-0.9863,-0.9863,-0.9413,-0.7772,-0.211,-0.0251,-0.0255,-0.0,0.0,0.1654,0.8871,1.0649,0.9822,0.6957,0.3039,0.1065,0.4857,0.9128,1.221,1.2203,1.219,1.2321,1.2321,1.2321,1.3242,1.634,1.5268,1.5272,1.8097,2.0979,2.2835,2.282,2.4144,2.5082,2.505,2.505,2.5743,2.7263,2.7495,2.8321,2.9728,2.9842,2.9955,2.9955,2.9955,2.9955,2.9955,2.9955,2.9955,2.9955,2.9955,2.9955,-2.2293,-2.2883,-2.3963,-2.5034,-2.6447,-2.7975,-2.9615,-3.1485,-3.2697,-3.2149,-3.3632,-3.5197,-3.5884,-3.7245,-3.8433,-3.8729,-4.2223,-4.4857,-4.4773,-4.7702,-5.0512,-5.2165,-5.3734,-5.5172,-5.6297,-5.702,-5.6802,-5.5339,-5.5604,-5.6248,-5.7253,-5.7924,-5.8597,-5.9381,-5.9516,-5.9488,-5.9404,-5.9194,-5.8367,-5.7006,-5.5081,-5.1709,-4.7097,-4.5336,-4.1894,-3.7151,-3.587,-3.4104,-3.2195,-3.1167,-3.0021,-2.8614,-2.519,-2.285,-2.0777,-1.6259,-1.4059,-1.2739,-1.0304,-0.9474,-0.9329,-0.6967,-0.5054,-0.3112,-0.0363,0.1497,0.2851,0.3223,0.5219,0.7699,1.044,1.1083,1.0668,0.9572,0.8283,0.7709,0.9299,1.0765,1.1793,1.1616,1.1603,1.2027,1.3014,1.3299,1.3955,1.6306,1.6734,1.7689,1.9636,2.1687,2.3003,2.3003,2.4321,2.5287,2.5287,2.6213,2.703,2.7628,2.855,2.9369,2.9955,2.9955,2.9955,2.9955,2.9955,2.9955,2.9955,2.9955,2.9955,2.9955,2.9955,2.9955,-2.1925,-2.3038,-2.438,-2.5105,-2.6814,-2.8665,-2.9728,-3.106,-3.1928,-3.1505,-3.2458,-3.3607,-3.3932,-3.5611,-3.6851,-3.677,-4.0537,-4.3441,-4.3491,-4.5955,-4.8511,-5.0198,-5.1501,-5.2818,-5.4051,-5.4446,-5.4254,-5.3409,-5.4424,-5.5503,-5.6673,-5.7224,-5.8137,-5.9404,-5.9488,-5.9516,-5.9472,-5.94,-5.8919,-5.8051,-5.6436,-5.3409,-4.9224,-4.5488,-4.1596,-3.762,-3.5514,-3.331,-3.0958,-3.0079,-2.8538,-2.6364,-2.3487,-2.0988,-1.8548,-1.4829,-1.24,-1.0612,-0.8453,-0.7091,-0.5953,-0.3583,-0.1135,0.1275,0.2964,0.4669,0.6139,0.6894,0.8827,1.0926,1.1017,1.0904,1.1069,1.1845,1.1613,1.1353,1.2166,1.1886,1.16,1.2116,1.2102,1.2658,1.4294,1.5257,1.5797,1.6198,1.8118,1.9728,2.0471,2.2428,2.3948,2.4425,2.5962,2.6814,2.6814,2.7859,2.8435,2.8435,2.9369,2.9955,2.9955,2.9955,2.9955,2.9955,2.9955,2.9955,2.9955,2.9955,2.9955,2.9955,2.9955,2.9955,-1.993,-2.3157,-2.6405,-2.5397,-2.7576,-2.9917,-2.9804,-3.0929,-3.1616,-3.0181,-3.106,-3.1616,-3.0181,-3.2327,-3.4169,-3.4169,-3.8637,-4.2175,-4.2175,-4.5391,-4.7754,-4.7783,-5.1016,-5.2833,-5.163,-5.1623,-5.143,-5.0906,-5.3047,-5.4741,-5.5395,-5.6732,-5.7965,-5.9192,-5.95,-5.9608,-5.9492,-5.9457,-5.8833,-5.7626,-5.74,-5.527,-5.139,-4.4608,-3.9735,-3.6455,-3.4496,-3.2167,-2.9734,-2.964,-2.7929,-2.5015,-2.2082,-2.0008,-1.8273,-1.365,-1.0506,-0.8049,-0.5207,-0.2381,0.0,0.0216,0.2164,0.4942,0.788,0.913,0.9617,1.0285,1.0449,1.0515,1.0919,1.073,1.1066,1.3379,1.2519,1.1712,1.3466,1.249,1.1942,1.3451,1.3864,1.4407,1.6024,1.7925,1.8612,1.6705,1.9283,2.114,2.0718,2.3273,2.5877,2.7379,2.9026,2.9955,2.9955,2.9955,2.9955,2.9955,2.9955,2.9955,2.9955,2.9955,2.9955,2.9955,2.9955,2.9955,2.9955,2.9955,2.9955,2.9955,2.9955,2.9955,-2.0512,-2.2435,-2.3803,-2.2569,-2.5684,-2.8843,-2.7939,-2.9164,-3.0407,-3.0068,-3.0294,-3.0407,-2.9955,-3.2327,-3.4169,-3.4169,-3.8014,-4.1229,-4.2109,-4.3892,-4.5811,-4.758,-4.8718,-4.8949,-4.7742,-4.9246,-4.9716,-4.8483,-4.9621,-5.0822,-5.1729,-5.3556,-5.5654,-5.7935,-5.9016,-5.9517,-5.9492,-5.9585,-5.933,-5.8776,-5.6683,-5.4895,-5.3283,-4.794,-4.2504,-3.7291,-3.5217,-3.2749,-3.0013,-2.8306,-2.5438,-2.192,-2.0139,-1.684,-1.2766,-1.0445,-0.6601,-0.2276,-0.1515,-0.065,0.0651,0.4994,0.6851,0.767,0.8817,0.9304,0.9652,1.0008,1.0265,1.083,1.205,1.2324,1.2743,1.464,1.4676,1.4166,1.3368,1.3889,1.4148,1.3368,1.4278,1.5572,1.7265,1.8032,1.8669,1.9305,2.0215,2.118,2.22,2.3003,2.4663,2.7263,2.9026,2.9955,2.9955,2.9955,2.9955,2.9955,2.9955,2.9955,2.9955,2.9955,2.9955,2.9955,2.9955,2.9955,2.9955,2.9955,2.9955,2.9955,2.9955,2.9955,-1.9127,-2.0691,-2.1912,-2.1347,-2.4332,-2.701,-2.578,-2.6789,-2.8014,-2.8014,-2.8401,-2.8772,-2.9331,-3.2081,-3.4169,-3.4169,-3.7761,-4.0876,-4.2017,-4.3347,-4.4687,-4.6158,-4.6332,-4.6039,-4.5296,-4.7449,-4.8307,-4.6698,-4.7962,-4.9003,-4.9413,-5.1292,-5.3357,-5.5432,-5.6733,-5.7397,-5.7449,-5.7517,-5.7519,-5.7399,-5.5457,-5.3762,-5.2245,-4.9035,-4.4475,-3.9045,-3.5544,-3.2361,-2.9366,-2.6431,-2.3149,-1.9764,-1.7408,-1.3772,-0.9475,-0.6272,-0.2926,0.0,0.0,0.1625,0.423,0.7618,0.8709,0.8857,0.9157,0.925,0.9434,0.9718,1.0503,1.1488,1.247,1.3458,1.4457,1.6231,1.6105,1.5476,1.5214,1.5341,1.5476,1.5214,1.598,1.7119,1.8898,1.9146,1.9641,2.1348,2.1007,2.1117,2.2762,2.3484,2.49,2.7379,2.9026,2.9955,2.9955,2.9955,2.9955,2.9955,2.9955,2.9955,2.9955,2.9955,2.9955,2.9955,2.9955,2.9955,2.9955,2.9955,2.9955,2.9955,2.9955,2.9765,-1.6691,-1.8494,-2.017,-2.0833,-2.3191,-2.4997,0.0,-2.4641,-2.565,-2.565,-2.6326,-2.7264,-2.8372,-3.1481,-3.3804,-3.3804,-3.716,-4.0154,-4.1526,-4.275,-4.3554,-4.3671,-4.3849,-4.3937,-4.3937,-4.6042,-4.6846,-4.5432,-4.7181,-4.8197,-4.7835,-4.9556,-5.1084,-5.2389,-5.3549,-5.4297,-5.457,-5.457,-5.4678,-5.4807,-5.3983,-5.2275,-4.9824,-4.8599,-4.5773,-4.1516,-3.6199,-3.2068,-2.8925,-2.4784,-2.1304,-1.8141,-1.4471,-1.0854,-0.7098,-0.1947,0.0,0.0108,0.0759,0.4443,0.8803,0.8918,0.9005,0.9046,0.943,0.9429,0.9511,0.9901,1.1254,1.2594,1.2836,1.4336,1.6159,1.7811,1.7211,1.6482,1.7766,1.7005,1.6492,1.7766,1.8276,1.8898,2.0639,2.0762,2.1239,2.2883,2.2065,2.1714,2.3229,2.4678,2.6095,2.7744,2.9141,2.9955,2.9955,2.9955,2.9955,2.9955,2.9955,2.9955,2.9955,2.9879,2.9822,2.9822,2.9727,2.967,2.967,2.967,2.967,2.967,2.967,2.929,0.0,0.0,0.0,0.0,0.0,0.0,0.0,-2.5639,-2.7052,-2.7052,-2.7183,-2.74,-2.761,-2.9827,-3.1556,-3.1556,-3.3731,-3.6309,-3.8686,-3.9276,-3.9813,-4.1066,-4.1951,-4.2568,-4.2568,-4.3926,-4.4671,-4.439,-4.5087,-4.5506,-4.5557,-4.705,-4.8816,-5.0769,-5.2066,-5.318,-5.4144,-5.425,-5.4471,-5.4793,-5.286,-5.1482,-5.0433,-4.8065,-4.6019,-4.4126,-3.9594,-3.5872,-3.2623,-2.5748,-2.0336,-1.6075,-1.3027,-0.7697,-0.1514,-0.0433,0.0,0.0651,0.5423,0.7798,0.895,0.9931,1.0356,1.0577,1.1726,1.1538,1.1125,1.2311,1.307,1.384,1.5237,1.6163,1.7244,1.8981,1.9451,1.9381,1.8276,1.8898,1.927,1.8276,1.9158,2.0626,2.2172,2.1483,2.1605,2.4456,2.4559,2.4916,2.6447,2.6914,2.7744,2.9255,2.9728,2.9955,2.9955,2.9955,2.9955,2.9955,2.9955,2.9955,2.9955,2.9328,2.8968,2.8968,2.8303,2.7856,2.7856,2.7856,2.7856,2.7856,2.7856,2.7761,0.0,0.0,0.0,0.0,0.0,0.0,0.0,0.0,0.0,0.0,0.0,-2.6026,-2.6657,0.0,-3.0335,-3.0805,-3.2418,-3.4729,-3.7842,-3.8314,-3.8338,-3.8412,-4.0154,-4.1297,-4.1297,-4.2986,-4.3899,-4.319,-4.4271,-4.4946,-4.4901,-4.5865,-4.7195,-4.9026,-4.9528,-5.0328,-5.1502,-5.1547,-5.1884,-5.2356,-5.0998,-5.0072,-4.9503,-4.7269,-4.5836,-4.4822,-4.0178,-3.7028,-3.458,-2.7609,-2.0936,-1.483,-1.1993,-0.6462,0.0,0.0,0.1843,0.4781,0.772,0.9205,0.9794,1.0447,1.1196,1.1839,1.2586,1.242,1.2254,1.2903,1.3981,1.5113,1.5897,1.7067,1.8384,1.9894,2.047,2.0771,2.1044,2.1126,2.0982,2.0644,2.1199,2.2065,2.2762,2.2242,2.2619,2.5401,2.5236,2.5351,2.7327,2.7628,2.8367,3.0428,3.098,3.1075,3.0619,3.098,3.0866,3.0012,2.9575,2.9158,2.874,2.8322,2.8114,2.8114,2.7696,2.7364,2.7364,2.7364,2.7364,2.7364,2.7364,2.7696,0.0,0.0,0.0,0.0,0.0,0.0,0.0,0.0,0.0,0.0,0.0,0.0,0.0,0.0,0.0,-2.9839,-3.114,-3.3087,-3.6432,-3.6852,-3.6674,-3.618,-3.8488,-4.0134,-4.0423,-4.2466,-4.3431,-4.2629,-4.4273,-4.518,-4.5025,-4.5125,-4.5814,-4.7226,-4.6967,-4.7384,-4.8555,-4.8755,-4.9191,-4.9787,-4.9368,0.0,-4.8528,-4.6829,-4.5773,-4.5014,-4.0426,-3.7351,-3.5205,-2.9794,-2.2983,-1.5718,-1.392,-0.9018,-0.2639,-0.0111,0.4147,0.8729,0.9025,0.9953,1.1196,1.1408,1.2462,1.3625,1.3646,1.3636,0.0,1.3646,1.5075,1.6575,1.6575,1.7974,1.9732,2.0805,2.1098,2.168,2.3459,2.2761,2.1996,2.2418,2.2742,2.2964,2.2964,2.3331,2.4407,2.6781,2.5786,2.5586,2.7736,2.7709,2.8351,3.0295,3.1132,3.1265,3.0562,3.1587,3.1474,2.9594,2.9309,2.8835,2.7894,2.781,2.7686,2.7837,2.781,2.7534,2.7364,2.7364,2.7364,2.7364,2.7364,2.7753,0.0,0.0,0.0,0.0,0.0,0.0,0.0,0.0,0.0,0.0,0.0,0.0,0.0,0.0,0.0,0.0,-2.7535,-2.8893,-3.1391,-3.1829,-3.2736,-3.5061,-3.7305,-3.9181,-4.0327,-4.1579,-4.2814,-4.383,-4.4799,-4.5269,-4.5271,-4.4496,0.0,0.0,0.0,-4.588,-4.7072,-4.8021,-4.8741,-4.9265,-4.9191,-4.9141,-4.9069,-4.7451,-4.6385,-4.5608,-4.238,-3.8519,-3.4239,-3.1872,-2.7081,-2.1264,-2.2938,-1.9309,-1.1879,-0.0458,0.59,0.8918,1.0052,0.0,0.0,1.4054,1.5369,1.6474,1.6563,1.6525,1.6487,1.6563,1.7626,1.8686,1.8686,2.0159,2.1701,2.179,2.2156,2.261,2.2797,2.2704,2.2281,2.1295,2.1946,2.2814,2.3033,2.5189,2.745,2.9239,2.8118,2.7637,2.9408,2.8338,2.7581,2.778,2.7981,0.0,2.7905,3.0031,3.0335,2.7905,2.9765,3.0562,2.9708,2.8987,2.893,2.967,2.8968,2.8227,2.7364,2.7364,2.7364,2.7364,2.7364,2.7126,0.0,0.0,0.0,0.0,0.0,0.0,0.0,0.0,0.0,0.0,0.0,0.0,0.0,0.0,0.0,0.0,-2.5409,-2.5924,-2.6959,-2.7821,-2.8951,-3.0615,-3.371,-3.6078,-3.7265,-3.9089,-4.1048,-4.2814,-4.4015,-4.5156,-4.6439,-4.5992,-4.5785,-4.6124,-4.6258,-4.6466,-4.683,-4.7664,-4.8269,-4.8726,-4.9051,-4.9008,-4.8685,-4.7333,-4.6424,-4.5696,-4.2285,-3.8929,-3.5636,-3.2404,-2.8845,-2.5684,0.0,0.0,0.0,0.0,0.8611,1.0907,0.9914,1.1002,1.3007,1.4426,1.6372,1.8329,1.9162,1.9333,1.9304,1.9348,1.9762,2.0145,2.0145,2.0761,2.1569,2.2368,2.2686,2.3242,2.4543,2.4026,2.3411,2.3305,2.3693,0.0,2.3174,2.4683,2.6462,2.762,2.7221,2.7183,2.836,2.7905,2.7553,2.8152,2.8626,2.8721,2.8246,2.9613,0.0,0.0,0.0,2.817,2.7829,2.7013,0.0,0.0,0.0,2.7126,2.6766,2.724,0.0,0.0,2.7318,2.7032,0.0,0.0,0.0,0.0,0.0,0.0,0.0,0.0,0.0,0.0,0.0,0.0,0.0,0.0,0.0,0.0,-2.4034,-2.3959,-2.3959,-2.5359,-2.6767,-2.7688,-3.1011,-3.3505,-3.4218,-3.6148,-3.8316,-4.0559,-4.2222,-4.4187,-4.6422,-4.6752,-4.6923,-4.6974,-4.7031,-4.6926,-4.6766,-4.7246,-4.7702,-4.7978,-4.8773,-4.8968,-4.8562,-4.7604,-4.6981,-4.6497,-4.2883,-4.0002,-3.7536,-3.3656,-3.0546,-2.8504,-3.0403,-2.2325,-0.8233,0.3239,0.9914,1.2943,1.1457,1.2032,1.3709,1.5811,1.8172,2.0244,2.0838,2.1215,2.1509,2.1117,2.1215,2.1509,2.1509,2.1819,2.2323,2.3289,2.3481,2.3949,2.5584,2.5007,2.4253,2.4475,2.4804,2.4757,2.3678,2.4413,2.5399,2.6443,2.6215,2.6291,2.7232,2.7088,2.7032,2.7658,2.8246,2.8467,2.8256,2.9397,2.9428,2.7889,2.785,2.7574,2.6865,2.6204,2.6107,2.6724,2.7198,2.7309,0.0,0.0,0.0,0.0,0.0,0.0,0.0,0.0,0.0,0.0,0.0,0.0,0.0,0.0,0.0,0.0,0.0,0.0,0.0,0.0,0.0,0.0,0.0,0.0,-2.3,-2.4988,-2.6964,-2.8226,-3.0493,-3.1902,-3.1924,-3.3092,-3.4746,-3.6909,-3.9337,-4.1733,-4.4119,-4.592,-4.6858,-4.6867,-4.6577,-4.6473,-4.6473,-4.6754,-4.6881,-4.6931,-4.8442,-4.9179,-4.9137,-4.8589,-4.8455,-4.8527,-4.508,-4.2059,-3.9341,-3.6447,-3.2595,-2.89,-3.2679,-1.8579,0.3705,0.4209,0.8747,1.4752,1.6127,1.5823,1.5401,1.9488,2.1705,2.2579,2.1411,2.19,2.2579,2.1313,2.19,2.2869,2.2869,2.39,2.4944,2.5019,2.5038,2.5038,2.5076,2.5076,2.4659,2.3246,2.4086,2.5095,2.5038,2.5038,2.5589,2.71,2.6082,0.0,2.7156,2.6082,2.5133,2.5152,2.5171,2.5701,2.6814,2.9132,2.9924,2.8583,3.0739,3.0996,2.8544,2.8071,2.8845,3.0824,3.0582,3.0021,2.9295,0.0,0.0,0.0,0.0,0.0,0.0,0.0,0.0,0.0,0.0,0.0,0.0,0.0,0.0,0.0,0.0,0.0,0.0,0.0,0.0,0.0,0.0,0.0,0.0,-2.2139,-2.2755,-2.4539,-2.6925,-2.8697,-2.9466,-3.1362,-3.3412,-3.5743,-3.7317,-3.8572,-3.9593,-4.2848,-4.3511,-4.1128,-4.4895,-4.6212,-4.4525,-4.6243,-4.6817,-4.6225,-4.7704,-4.8901,-4.9815,-5.0189,-5.0857,-5.1663,-4.9787,-4.6311,-4.1781,-4.0841,-3.8636,-3.4213,-1.7848,-0.6252,0.1967,0.655,1.0438,1.3941,1.7528,1.7024,1.548,1.9612,2.1833,2.3079,2.3516,2.4013,2.4112,2.3077,2.3117,2.3357,2.2802,2.3027,2.357,2.4051,2.4203,2.4355,2.4905,2.5038,2.4944,2.4413,2.4285,2.4374,2.4943,2.4564,2.4754,2.6424,2.5741,2.5247,2.5798,2.538,2.5038,2.5038,2.5038,2.5208,2.5659,2.7166,2.7837,2.7464,2.8242,2.8738,2.8592,2.702,2.6834,2.8206,2.7353,2.7101,2.7457,0.0,0.0,0.0,0.0,0.0,0.0,0.0,0.0,0.0,0.0,0.0,0.0,0.0,0.0,0.0,0.0,0.0,0.0,0.0,0.0,0.0,0.0,0.0,0.0,0.0,0.0,-2.1846,-2.4341,0.0,-2.7045,-2.965,-3.2166,-3.4485,-3.6071,-3.7407,-3.829,-4.1665,-4.2632,-4.0589,-4.4161,-4.538,-4.3745,-4.5349,-4.5701,-4.4869,-4.6495,-4.7723,-4.8671,-4.9313,-5.0398,-5.1557,-5.0135,-4.765,-4.4608,-4.4248,-4.3255,-4.0127,-2.2599,-1.2934,-0.8006,-0.011,0.5573,1.0396,1.7101,1.8641,1.8002,2.0271,2.1896,2.3175,2.4622,2.4735,2.4302,2.4171,2.4222,2.4089,2.3609,2.3475,2.3609,2.4089,2.3994,2.3828,2.4469,2.4583,2.4678,2.4981,2.4934,2.5185,2.6046,2.5826,2.5733,2.6828,2.6534,2.599,2.5171,2.5038,2.5038,2.5038,2.5038,2.5208,2.5639,2.6436,2.6914,2.7031,2.7808,2.8218,2.8157,2.6792,2.6316,2.7011,2.5132,2.4814,0.0,0.0,0.0,0.0,0.0,0.0,0.0,0.0,0.0,0.0,0.0,0.0,0.0,0.0,0.0,0.0,0.0,0.0,0.0,0.0,0.0,0.0,0.0,0.0,0.0,0.0,0.0,-2.0223,-2.293,0.0,0.0,0.0,0.0,-3.3287,-3.5552,-3.7701,-3.984,-4.2072,-4.3612,-4.4215,-4.4068,-4.3936,-4.3749,-4.396,-4.3637,-4.2886,-4.4873,-4.5782,-4.5847,-4.6488,-4.75,-4.8693,-4.6699,-4.6509,-4.7518,-4.6597,-4.6318,-4.6213,-4.4844,-3.6846,-2.4973,-1.4935,-0.5522,0.3823,1.4625,2.0322,2.2668,2.1539,2.1926,2.3165,2.4491,2.398,0.0,0.0,2.4905,2.4905,2.4905,2.4905,2.4924,2.4962,2.4355,2.3696,2.3733,2.3842,2.4032,2.4716,2.5874,2.6967,2.8014,0.0,2.8295,2.8281,2.822,2.7491,2.5266,2.4962,2.5076,2.5057,2.5095,2.5639,2.6631,2.6794,2.6963,2.7261,2.9036,2.9321,2.7558,2.7386,2.7302,2.7261,2.4243,0.0,0.0,0.0,0.0,0.0,0.0,0.0,0.0,0.0,0.0,0.0,0.0,0.0,0.0,0.0,0.0,0.0,0.0,0.0,0.0,0.0,0.0,0.0,0.0,0.0,0.0,-1.9201,-1.9839,-2.0668,-2.275,-2.4696,0.0,0.0,0.0,0.0,0.0,0.0,-3.5206,-3.8017,-3.8249,-3.5128,-3.9796,-4.1216,-3.8813,-4.1715,-4.2774,-4.1812,-4.3672,-4.4753,-4.5194,-4.7089,-4.8369,-4.9122,-5.0032,-4.9053,-4.6869,-4.6316,-4.6663,-4.7178,-4.5002,-4.294,-3.9172,-2.2933,-1.4613,-0.9318,0.6026,1.5673,2.139,2.2606,2.286,2.2733,2.3121,0.0,0.0,0.0,0.0,2.2224,2.3034,2.3208,2.338,2.3937,2.3937,2.3956,2.4583,2.54,2.5322,2.2664,2.3459,2.4582,2.4886,2.5592,0.0,2.6711,2.6431,2.5692,2.4199,2.4089,2.4433,2.5272,2.5943,2.6246,2.5825,2.6748,2.6964,2.6153,2.6551,2.7314,2.8349,2.6705,2.5814,2.5916,0.0,0.0,0.0,0.0,0.0,0.0,0.0,0.0,0.0,0.0,0.0,0.0,0.0,0.0,0.0,0.0,0.0,0.0,0.0,0.0,0.0,0.0,0.0,0.0,0.0,0.0,0.0,-1.7186,-1.7679,-1.8337,-2.0536,-2.2634,0.0,0.0,0.0,0.0,0.0,0.0,0.0,0.0,0.0,-3.4363,-3.8501,-3.9883,-3.8057,-4.0684,-4.1534,-4.0602,-4.2019,-4.2334,-4.1772,-4.4037,-4.4958,-4.4935,-4.7868,-4.7551,-4.4901,-4.5046,-4.5273,-4.5387,0.0,0.0,0.0,0.0,-2.0447,-1.6749,-0.1922,0.7512,1.3378,1.549,0.0,0.0,0.0,0.0,0.0,0.0,0.0,2.1689,2.1842,2.2202,2.277,2.3558,2.3482,2.3444,2.4298,2.5818,2.6092,2.2991,2.359,2.4579,2.4629,2.5519,0.0,0.0,0.0,2.6219,2.4639,2.411,2.3856,2.4161,2.4618,2.4717,2.4221,2.5185,2.5625,2.5094,2.6272,2.715,2.7366,2.6988,2.6175,0.0,0.0,0.0,0.0,0.0,0.0,0.0,0.0,0.0,0.0,0.0,0.0,0.0,0.0,0.0,0.0,0.0,0.0,0.0,0.0,0.0,0.0,0.0,0.0,0.0,0.0,0.0,0.0,0.0,-1.5125,-1.5219,0.0,0.0,0.0,0.0,0.0,0.0,0.0,0.0,0.0,0.0,0.0,0.0,0.0,-3.8504,-3.8358,-3.958,-3.9922,-3.9288,-4.0234,-3.9443,-3.7282,-3.9603,-3.9849,-3.8755,-4.2239,0.0,-4.1695,-4.241,0.0,0.0,0.0,0.0,0.0,0.0,0.0,0.0,0.0,0.0,0.0,0.0,0.0,0.0,0.0,0.0,0.0,0.0,0.0,0.0,0.0,0.0,2.258,2.3336,2.3094,2.2837,2.3444,2.5167,2.6015,2.4092,2.4643,2.5427,0.0,0.0,0.0,0.0,0.0,0.0,2.5509,2.4644,2.3885,2.3059,2.3054,2.3073,2.2956,2.3845,2.444,2.4499,2.7061,2.7754,2.59,2.761,0.0,0.0,0.0,0.0,0.0,0.0,0.0,0.0,0.0,0.0,0.0,0.0,0.0,0.0,0.0,0.0,0.0,0.0,0.0,0.0,0.0,0.0,0.0,0.0,0.0,0.0,0.0,0.0,0.0,0.0,0.0,0.0,0.0,0.0,0.0,0.0,0.0,0.0,0.0,0.0,0.0,0.0,0.0,0.0,0.0,0.0,0.0,0.0,0.0,0.0,-3.9318,-3.823,-3.5503,-3.8367,-3.8209,-3.5619,-3.5252,-3.5748,-3.6745,-3.6253,0.0,0.0,0.0,0.0,0.0,0.0,0.0,0.0,0.0,0.0,0.0,0.0,0.0,0.0,0.0,0.0,0.0,0.0,0.0,0.0,0.0,0.0,2.1535,2.2475,2.323,2.3467,2.2903,0.0,0.0,0.0,0.0,0.0,0.0,0.0,0.0,0.0,0.0,0.0,2.4482,2.4831,2.5334,2.5315,2.5986,2.6042,2.539,2.6228,2.6441,2.5669,2.6868,2.7426,0.0,0.0,0.0,0.0,0.0,0.0,0.0,0.0,0.0,0.0,0.0,0.0,0.0,0.0,0.0,0.0,0.0,0.0,0.0,0.0,0.0,0.0,0.0,0.0,0.0,0.0,0.0,0.0,0.0,0.0,0.0,0.0,0.0,0.0,0.0,0.0,0.0,0.0,0.0,0.0,0.0,0.0,0.0,0.0,0.0,0.0,0.0,0.0,0.0,0.0,0.0,0.0,0.0,0.0,0.0,0.0,0.0,0.0,-3.27,-3.2108,0.0,0.0,0.0,0.0,0.0,0.0,0.0,0.0,0.0,0.0,0.0,0.0,0.0,0.0,0.0,0.0,0.0,0.0,0.0,0.0,0.0,0.0,0.0,0.0,0.0,0.0,0.0,0.0,0.0,0.0,0.0,0.0,0.0,0.0,0.0,0.0,0.0,0.0,0.0,0.0,2.5099,2.5442,2.5368,2.4403,2.4739,2.4829,2.4335,2.571,2.6376,2.5862,2.7741,0.0,0.0,0.0,0.0,0.0,0.0,0.0,0.0,0.0,0.0,0.0,0.0,0.0,0.0,0.0,0.0,0.0,0.0,0.0,0.0,0.0,0.0,0.0,0.0,0.0,0.0,0.0,0.0,0.0,0.0,0.0,0.0,0.0,0.0,0.0,0.0,0.0,0.0,0.0,0.0,0.0,0.0,0.0,0.0,0.0,0.0,0.0,0.0,0.0,0.0,0.0,0.0,0.0,0.0,0.0,0.0,0.0,0.0,0.0,-3.0415,-2.8905,0.0,0.0,0.0,0.0,0.0,0.0,0.0,0.0,0.0,0.0,0.0,0.0,0.0,0.0,0.0,0.0,0.0,0.0,0.0,0.0,0.0,0.0,0.0,0.0,0.0,0.0,0.0,0.0,0.0,0.0,0.0,0.0,0.0,0.0,0.0,0.0,0.0,0.0,0.0,0.0,2.6255,2.6362,2.582,2.4092,2.3658,2.3614,2.3886,2.5489,2.6533,2.6533,2.8824,0.0,0.0,0.0,0.0,0.0,0.0,0.0,0.0,0.0,0.0,0.0,0.0,0.0,0.0,0.0,0.0,0.0,0.0,0.0,0.0,0.0,0.0,0.0,0.0,0.0,0.0,0.0,0.0,0.0,0.0,0.0,0.0,0.0,0.0,0.0,0.0,0.0,0.0,0.0,0.0,0.0,0.0,0.0,0.0,0.0,0.0,0.0,0.0,0.0,0.0,0.0,0.0,0.0,0.0,0.0,0.0,0.0,0.0,0.0,0.0,0.0,0.0,0.0,0.0,0.0,0.0,0.0,0.0,0.0,0.0,0.0,0.0,0.0,0.0,0.0,0.0,0.0,0.0,0.0,0.0,0.0,0.0,0.0,0.0,0.0,0.0,0.0,0.0,0.0,0.0,0.0,0.0,0.0,0.0,0.0,0.0,0.0,0.0,0.0,0.0,0.0,2.7226,2.7993,2.8259,2.7117,2.6009,2.5815,2.6923,2.7991,2.8673,2.8673,0.0,0.0,0.0,0.0,0.0,0.0,0.0,0.0,0.0,0.0,0.0,0.0,0.0,0.0,0.0,0.0,0.0,0.0,0.0,0.0,0.0,0.0,0.0,0.0,0.0,0.0,0.0,0.0,0.0,0.0,0.0,0.0,0.0,0.0,0.0,0.0,0.0,0.0,0.0,0.0,0.0,0.0,0.0,0.0,0.0,0.0,0.0,0.0,0.0,0.0,0.0,0.0,0.0,0.0,0.0,0.0,0.0,0.0,0.0,0.0,0.0,0.0,0.0,0.0,0.0,0.0,0.0,0.0,0.0,0.0,0.0,0.0,0.0,0.0,0.0,0.0,0.0,0.0,0.0,0.0,0.0,0.0,0.0,0.0,0.0,0.0,0.0,0.0,0.0,0.0,0.0,0.0,0.0,0.0,0.0,0.0,0.0,0.0,0.0,0.0,0.0,0.0,2.8014,2.8063,2.7868,2.7428,2.6356,2.5825,2.6332,2.7403,2.7936,2.7823,0.0,0.0,0.0,0.0,0.0,0.0,0.0,0.0,0.0,0.0,0.0,0.0,0.0,0.0,0.0,0.0,0.0,0.0,0.0,0.0,0.0,0.0,0.0,0.0,0.0,0.0,0.0,0.0,0.0,0.0,0.0,0.0,0.0,0.0,0.0,0.0,0.0,0.0,0.0,0.0,0.0,0.0,0.0,0.0,0.0,0.0,0.0,0.0,0.0,0.0,0.0,0.0,0.0,0.0,0.0,0.0,0.0,0.0,0.0,0.0,0.0,0.0,0.0,0.0,0.0,0.0,0.0,0.0,0.0,0.0,0.0,0.0,0.0,0.0,0.0,0.0,0.0,0.0,0.0,0.0,0.0,0.0,0.0,0.0,0.0,0.0,0.0,0.0,0.0,0.0,0.0,0.0,0.0,0.0,0.0,0.0,0.0,0.0,0.0,0.0,0.0,0.0,2.8169,2.7979,2.7844,2.7844,2.682,2.6332,2.6625,2.7134,2.7454,2.7496,0.0,0.0,0.0,0.0,0.0,0.0,0.0,0.0,0.0,0.0,0.0,0.0,0.0,0.0,0.0,0.0,0.0,0.0,0.0,0.0,0.0,0.0,0.0,0.0,0.0,0.0,0.0,0.0,0.0,0.0,0.0,0.0,0.0,0.0,0.0,0.0,0.0,0.0,0.0,0.0,0.0,0.0,0.0,0.0,0.0,0.0,0.0,0.0,0.0,0.0,0.0,0.0,0.0,0.0,0.0,0.0,0.0,0.0,0.0,0.0,0.0,0.0,0.0,0.0,0.0,0.0,0.0,0.0,0.0,0.0,0.0,0.0,0.0,0.0,0.0,0.0,0.0,0.0,0.0,0.0,0.0,0.0,0.0,0.0,0.0,0.0,0.0,0.0,0.0,0.0,0.0,0.0,0.0,0.0,0.0,0.0,0.0,0.0,0.0,0.0,0.0,0.0,2.752,2.8309,2.8969,2.8969,2.8015,2.7795,2.8847,2.7991,2.7707,0.0,0.0,0.0,0.0,0.0,0.0,0.0,0.0,0.0,0.0,0.0,0.0,0.0,0.0,0.0,0.0,0.0,0.0,0.0,0.0,0.0,0.0,0.0,0.0,0.0,0.0,0.0,0.0,0.0,0.0,0.0,0.0,0.0,0.0,0.0,0.0,0.0,0.0,0.0,0.0,0.0,0.0,0.0,0.0,0.0,0.0,0.0,0.0,0.0,0.0,0.0,0.0,0.0,0.0,0.0,0.0,0.0,0.0,0.0,0.0,0.0,0.0,0.0,0.0,0.0,0.0,0.0,0.0,0.0,0.0,0.0,0.0,0.0,0.0,0.0,0.0,0.0,0.0,0.0,0.0,0.0,0.0,0.0,0.0,0.0,0.0,0.0,0.0,0.0,0.0,0.0,0.0,0.0,0.0,0.0,0.0,0.0,0.0,0.0,0.0,0.0,0.0,0.0,2.9826,2.86,2.8114,2.9336,2.8096,2.7492,2.8381,2.8133,2.8246,2.9064,0.0,0.0,0.0,0.0,0.0,0.0,0.0,0.0,0.0,0.0,0.0,0.0,0.0,0.0,0.0,0.0,0.0,0.0,0.0,0.0,0.0,0.0,0.0,0.0,0.0,0.0,0.0,0.0,0.0,0.0,0.0,0.0,0.0,0.0,0.0,0.0,0.0,0.0,0.0,0.0,0.0,0.0,0.0,0.0,0.0,0.0,0.0,0.0,0.0,0.0,0.0,0.0,0.0,0.0,0.0,0.0,0.0,0.0,0.0,0.0,0.0,0.0,0.0,0.0,0.0,0.0,0.0,0.0,0.0,0.0,0.0,0.0,0.0,0.0,0.0,0.0,0.0,0.0,0.0,0.0,0.0,0.0,0.0,0.0,0.0,0.0,0.0,0.0,0.0,0.0,0.0,0.0,0.0,0.0,0.0,0.0,0.0,0.0,0.0,0.0,0.0,0.0,0.0,2.8574,2.8159,2.9591,2.8708,2.8223,2.8733,2.8118,2.8188,2.9301,0.0,0.0,0.0,0.0,0.0,0.0,0.0,0.0,0.0,0.0,0.0,0.0,0.0,0.0,0.0,0.0,0.0,0.0,0.0,0.0,0.0,0.0,0.0,0.0,0.0,0.0,0.0,0.0,0.0,0.0,0.0,0.0,0.0,0.0,0.0,0.0,0.0,0.0,0.0,0.0,0.0,0.0,0.0,0.0,0.0,0.0,0.0,0.0,0.0,0.0,0.0,0.0,0.0,0.0,0.0,0.0,0.0,0.0,0.0,0.0,0.0,0.0,0.0,0.0,0.0,0.0,0.0,0.0,0.0,0.0,0.0,0.0,0.0,0.0,0.0,0.0,0.0,0.0,0.0,0.0,0.0,0.0,0.0,0.0,0.0,0.0,0.0,0.0,0.0,0.0,0.0,0.0,0.0,0.0,0.0,0.0,0.0,0.0,0.0,0.0,0.0,0.0,0.0,2.8512,2.8901,2.963,2.9668,2.9603,2.9603,2.8042,2.7754,2.9242,2.8676,0.0,0.0,0.0,0.0,0.0,0.0,0.0,0.0,0.0,0.0,0.0,0.0,0.0,0.0,0.0,0.0,0.0,0.0,0.0,0.0,0.0,0.0,0.0,0.0,0.0,0.0,0.0,0.0,0.0,0.0,0.0,0.0,0.0,0.0,0.0,0.0,0.0,0.0,0.0,0.0,0.0,0.0,0.0,0.0,0.0,0.0,0.0,0.0,0.0,0.0,0.0,0.0,0.0,0.0,0.0,0.0,0.0,0.0,0.0,0.0,0.0,0.0,0.0,0.0,0.0,0.0,0.0,0.0,0.0,0.0,0.0,0.0,0.0,0.0,0.0,0.0,0.0,0.0,0.0,0.0,0.0,0.0,0.0,0.0,0.0,0.0,0.0,0.0,0.0,0.0,0.0,0.0,0.0,0.0,0.0,0.0,0.0,0.0,0.0,0.0,0.0,0.0,2.9552,2.9208,2.9418,2.8901,2.8528,2.8528,2.8163,2.8311,2.9301,2.9182,0.0,0.0,0.0,0.0,0.0,0.0,0.0,0.0,0.0,0.0,0.0,0.0,0.0,0.0,0.0,0.0,0.0,0.0,0.0,0.0,0.0,0.0,0.0,0.0,0.0,0.0,0.0,0.0,0.0,0.0,0.0,0.0,0.0,0.0,0.0,0.0,0.0,0.0,0.0,0.0,0.0,0.0,0.0,0.0,0.0,0.0,0.0,0.0,0.0,0.0,0.0,0.0,0.0,0.0,0.0,0.0,0.0,0.0,0.0,0.0,0.0,0.0,0.0,0.0,0.0,0.0,0.0,0.0,0.0,0.0,0.0,0.0,0.0,0.0,0.0,0.0,0.0,0.0,0.0,0.0,0.0,0.0,0.0,0.0,0.0,0.0,0.0,0.0,0.0,0.0,0.0,0.0,0.0,0.0,0.0,0.0,0.0,0.0,0.0,0.0,0.0,0.0,3.0454,2.9971,2.9971,2.9595,2.936,2.936,2.8976,2.9095,2.9913,2.9259,0.0,0.0,0.0,0.0,0.0,0.0,0.0,0.0,0.0,0.0,0.0,0.0,0.0,0.0,0.0,0.0,0.0,0.0,0.0,0.0,0.0,0.0,0.0,0.0,0.0,0.0,0.0,0.0,0.0,0.0,0.0,0.0,0.0,0.0,0.0,0.0,0.0,0.0,0.0,0.0,0.0,0.0,0.0,0.0,0.0,0.0,0.0,0.0,0.0,0.0,0.0,0.0,0.0,0.0,0.0,0.0,0.0,0.0,0.0,0.0,0.0,0.0,0.0,0.0,0.0,0.0,0.0,0.0,0.0,0.0,0.0,0.0,0.0,0.0,0.0,0.0,0.0,0.0,0.0,0.0,0.0,0.0,0.0,0.0,0.0,0.0,0.0,0.0,0.0,0.0,0.0,0.0,0.0,0.0,0.0,0.0,0.0,0.0,0.0,0.0,0.0,0.0,0.0,3.0877,3.0877,3.0654,3.0456,3.0343,2.9595,2.9452,3.0167,0.0,0.0,0.0,0.0,0.0,0.0,0.0,0.0,0.0,0.0,0.0,0.0,0.0,0.0,0.0,0.0,0.0,0.0,0.0,0.0,0.0,0.0,0.0,0.0,0.0,0.0,0.0,0.0,0.0,0.0,0.0,0.0,0.0,0.0,0.0,0.0,0.0,0.0,0.0,0.0,0.0,0.0,0.0,0.0,0.0,0.0,0.0,0.0,0.0,0.0,0.0,0.0,0.0,0.0,0.0,0.0,0.0,0.0,0.0,0.0,0.0,0.0,0.0,0.0,0.0,0.0,0.0,0.0,0.0,0.0,0.0,0.0,0.0,0.0,0.0,0.0,0.0,0.0,0.0,0.0,0.0,0.0,0.0,0.0,0.0,0.0,0.0,0.0,0.0,0.0,0.0,0.0,0.0,0.0,0.0,0.0,0.0,0.0,0.0,0.0,0.0,0.0,0.0,0.0,3.1527,3.1527,3.0342,2.9301,2.8615,2.8433,2.8211,2.7907,0.0,0.0,0.0,0.0,0.0,0.0,0.0,0.0,0.0,0.0,0.0,0.0,0.0,0.0]}]]]